Date StartTime U_cm/s V_cm/s W_cm/s Ustd_cm/s Vstd_cm/s Wstd_cm/s Uvar_(cm/s)^2 Vvar_(cm/s)^2 Wvar_(cm/s)^2 KE_(m/s)^2 TurbulentKE_(m/s)^2 HorizWindSpeed_cm/s FrictionSpeec_cm/s DragCoef SpeedOfSound_m/s SonicTemperature_C Pressure_mb 
05/01/2013  00:00:00       12.204       12.161        2.391       16.834       15.372       11.184      283.395      236.298      125.085        0.047        0.032       17.229        6.388        0.137      337.723        9.890      864.847
05/01/2013  00:01:00       28.678       16.281       -0.223        8.281        7.639        9.928       68.567       58.347       98.570        0.066        0.011       32.977        0.842        0.001      337.742        9.920      864.852
05/01/2013  00:02:00       32.012       48.756       -0.945       18.830       34.829       14.081      354.581     1213.026      198.261        0.258        0.088       58.326       12.775        0.048      337.721        9.887      864.861
05/01/2013  00:03:00       64.468       48.951        4.282       23.011       19.710       14.025      529.490      388.482      196.701        0.384        0.056       80.947        9.393        0.013      337.761        9.953      864.872
05/01/2013  00:04:00       51.927       31.628       -8.531       18.004       18.104       16.940      324.131      327.768      286.973        0.235        0.047       60.801        9.313        0.023      337.757        9.947      864.884
05/01/2013  00:05:00       41.021       16.361        0.498       27.670       23.137       22.638      765.616      535.338      512.463        0.188        0.091       44.163        8.162        0.034      337.714        9.875      864.903
05/01/2013  00:06:00       17.549       29.243       19.861       12.928       14.000        9.856      167.136      195.994       97.150        0.101        0.023       34.104        7.715        0.051      337.726        9.895      864.910
05/01/2013  00:07:00       26.904       43.591       26.933       21.164       17.528       16.277      447.917      307.228      264.937        0.218        0.051       51.225       15.463        0.091      337.679        9.816      864.908
05/01/2013  00:08:00       34.587       23.590        4.030       13.032        7.921       11.066      169.823       62.742      122.461        0.106        0.018       41.866        5.906        0.020      337.718        9.881      864.900
05/01/2013  00:09:00       38.939       10.830        5.528       13.440       12.229        8.460      180.633      149.548       71.580        0.103        0.020       40.417        2.358        0.003      337.714        9.873      864.902
05/01/2013  00:10:00       38.067       -2.443        7.162       15.506       11.138       12.184      240.429      124.064      148.457        0.101        0.026       38.145        9.302        0.059      337.696        9.844      864.912
05/01/2013  00:11:00       28.613      -37.495        1.474       11.179       19.269        8.839      124.979      371.296       78.134        0.140        0.029       47.165        8.435        0.032      337.912       10.207      864.935
05/01/2013  00:12:00        3.616       -3.825       18.290       14.419       22.654       15.190      207.911      513.214      230.740        0.066        0.048        5.264       14.660        7.756      337.667        9.797      864.949
05/01/2013  00:13:00       37.886       38.863       35.595       35.041       21.383       20.009     1227.870      457.213      400.362        0.315        0.104       54.274       20.385        0.141      337.700        9.851      864.964
05/01/2013  00:14:00       49.297      -17.959        4.457       16.515       20.570       14.618      272.731      423.114      213.673        0.184        0.045       52.466       13.577        0.067      337.816       10.044      864.970
05/01/2013  00:15:00       24.432       -1.087       12.117       22.749       14.402       15.818      517.504      207.431      250.205        0.086        0.049       24.456       13.306        0.296      337.736        9.911      864.971
05/01/2013  00:16:00       40.189       33.019        9.021       18.154       14.278       20.426      329.572      203.856      417.239        0.187        0.048       52.014        8.911        0.029      337.788        9.998      864.979
05/01/2013  00:17:00       16.766       25.667       10.176       12.440       18.602       15.276      154.756      346.038      233.347        0.089        0.037       30.657        7.790        0.065      337.755        9.943      864.990
05/01/2013  00:18:00       10.981       13.950       13.011       19.639       18.689       17.943      385.692      349.263      321.959        0.077        0.053       17.754       11.974        0.455      337.834       10.076      865.005
05/01/2013  00:19:00      -19.687      -38.214        8.208       16.045       14.992       11.921      257.442      224.764      142.121        0.127        0.031       42.987        6.657        0.024      337.923       10.224      865.028
05/01/2013  00:20:00        0.056        9.935        7.843       12.116       15.903        7.214      146.801      252.919       52.043        0.031        0.023        9.935        5.775        0.338      337.745        9.926      865.045
05/01/2013  00:21:00      -13.350        1.661        7.554       22.512       15.341        8.849      506.798      235.343       78.306        0.053        0.041       13.453       12.441        0.855      337.677        9.812      865.063
05/01/2013  00:22:00      -64.073      -40.022       -3.365       15.843       12.197        9.773      250.993      148.763       95.505        0.311        0.025       75.545        3.902        0.003      337.588        9.662      865.088
05/01/2013  00:23:00      -23.576      -22.754        7.329       27.556       11.481       11.790      759.312      131.819      139.013        0.108        0.052       32.765       14.681        0.201      337.543        9.586      865.107
05/01/2013  00:24:00      -51.261      -10.802       -2.247       26.677       18.012       12.683      711.680      324.420      160.860        0.197        0.060       52.387       10.890        0.043      337.464        9.455      865.116
05/01/2013  00:25:00      -35.849      -24.124       -0.773       31.388       24.296       15.254      985.236      590.272      232.677        0.184        0.090       43.210       13.882        0.103      337.376        9.308      865.118
05/01/2013  00:26:00      -65.141        1.168       -7.138       32.746       16.096       16.056     1072.298      259.096      257.803        0.294        0.079       65.151       18.535        0.081      337.220        9.046      865.115
05/01/2013  00:27:00      -79.935        5.172       -9.950       26.498       23.813       15.529      702.165      567.050      241.148        0.401        0.076       80.102       12.016        0.023      337.114        8.868      865.118
05/01/2013  00:28:00      -38.142       -7.983       -9.035       34.304       17.502       19.126     1176.776      306.308      365.818        0.172        0.092       38.968       16.742        0.185      337.141        8.915      865.130
05/01/2013  00:29:00      -42.842        7.946      -10.375       25.335       22.407       12.691      641.856      502.052      161.073        0.166        0.065       43.572        9.451        0.047      337.184        8.987      865.146
05/01/2013  00:30:00      -57.415       24.512      -10.382       20.981       25.758       16.581      440.198      663.450      274.945        0.269        0.069       62.429       14.323        0.053      337.242        9.086      865.158
05/01/2013  00:31:00      -69.540       24.883      -15.816       21.685       18.019       17.363      470.259      324.676      301.485        0.340        0.055       73.858       15.370        0.043      337.221        9.050      865.174
05/01/2013  00:32:00      -74.138       17.107       -9.873       38.756       23.413       17.821     1502.004      548.158      317.588        0.413        0.118       76.086        7.501        0.010      337.175        8.973      865.173
05/01/2013  00:33:00     -110.783       32.214      -12.014       25.574       30.650       23.599      654.036      939.422      556.890        0.780        0.108      115.371       19.195        0.028      337.054        8.768      865.176
05/01/2013  00:34:00      -96.885       -7.858      -13.053       30.294       25.093       19.379      917.727      629.678      375.530        0.577        0.096       97.203       13.926        0.021      337.147        8.926      865.181
05/01/2013  00:35:00      -68.383       24.794      -15.726       20.598       25.139       17.183      424.260      631.972      295.258        0.344        0.068       72.740        8.856        0.015      337.008        8.692      865.196
05/01/2013  00:36:00      -63.861       16.246      -14.804       17.119       19.628       13.833      293.066      385.278      191.357        0.272        0.043       65.895        8.312        0.016      337.201        9.016      865.211
05/01/2013  00:37:00      -48.983       13.769       -2.633       13.351       14.001        8.794      178.249      196.029       77.339        0.152        0.023       50.881        5.852        0.013      337.339        9.247      865.235
05/01/2013  00:38:00      -38.657       -8.578       -9.011       11.873       13.349       11.162      140.975      178.203      124.585        0.105        0.022       39.597        6.199        0.025      337.084        8.817      865.250
05/01/2013  00:39:00      -31.831       -5.960       -3.266       26.144       18.488       13.375      683.518      341.816      178.890        0.113        0.060       32.384       10.030        0.096      337.086        8.821      865.266
05/01/2013  00:40:00      -55.261       20.964      -13.591       19.288       14.212        9.955      372.030      201.973       99.107        0.218        0.034       59.104        9.320        0.025      336.957        8.607      865.288
05/01/2013  00:41:00      -59.810       -2.808      -16.672       10.218       14.768        8.537      104.410      218.105       72.880        0.213        0.020       59.875        4.439        0.005      337.076        8.803      865.298
05/01/2013  00:42:00      -45.322       -1.162      -10.761       11.105       15.334        8.837      123.330      235.146       78.085        0.130        0.022       45.337        3.657        0.007      337.086        8.823      865.309
05/01/2013  00:43:00      -45.198       41.410      -13.631       17.185       19.419        9.060      295.308      377.112       82.082        0.235        0.038       61.300        9.833        0.026      337.330        9.232      865.318
05/01/2013  00:44:00      -43.578        9.297       -4.609       19.788       16.858        9.778      391.583      284.193       95.613        0.139        0.039       44.559        8.398        0.036      337.228        9.062      865.335
05/01/2013  00:45:00      -47.859        1.526       -6.691       13.661       13.702       11.513      186.613      187.758      132.540        0.142        0.025       47.884       10.339        0.047      337.080        8.813      865.348
05/01/2013  00:46:00      -69.088       -3.575      -14.800       14.876       14.348        9.201      221.296      205.856       84.665        0.276        0.026       69.180        6.841        0.010      336.995        8.670      865.349
05/01/2013  00:47:00      -50.171       -5.037       -8.556       27.151       24.931       13.385      737.160      621.564      179.170        0.208        0.077       50.424        8.631        0.029      336.878        8.475      865.355
05/01/2013  00:48:00     -103.843        3.452      -13.824       49.495       25.494       23.392     2449.794      649.953      547.206        0.732        0.182      103.900       26.804        0.067      336.832        8.398      865.361
05/01/2013  00:49:00      -79.311       11.060      -13.954       57.004       40.705       25.717     3249.435     1656.899      661.363        0.609        0.278       80.079       23.792        0.088      336.754        8.268      865.383
05/01/2013  00:50:00      -70.697       -6.564      -13.003       36.709       28.802       22.772     1347.580      829.531      518.547        0.395        0.135       71.001       11.680        0.027      336.804        8.352      865.390
05/01/2013  00:51:00      -77.480      -24.568       -9.298       33.081       32.087       19.717     1094.382     1029.597      388.767        0.460        0.126       81.282       11.553        0.020      336.749        8.261      865.406
05/01/2013  00:52:00      -72.223      -11.102       -4.160       39.995       26.849       21.219     1599.609      720.845      450.244        0.406        0.139       73.071       21.475        0.086      336.668        8.125      865.432
05/01/2013  00:53:00      -98.086      -10.091       -9.998       25.446       20.018       15.822      647.492      400.703      250.334        0.556        0.065       98.604       10.991        0.012      336.754        8.268      865.473
05/01/2013  00:54:00      -84.306      -15.272      -10.363       34.945       21.693       16.468     1221.154      470.576      271.200        0.471        0.098       85.679       13.917        0.026      336.654        8.102      865.485
05/01/2013  00:55:00      -47.659       -7.709       -5.468       21.967       14.816       14.313      482.561      219.523      204.869        0.163        0.045       48.278       12.409        0.066      336.762        8.282      865.497
05/01/2013  00:56:00      -90.640      -15.085      -13.397       19.035       17.577       15.777      362.338      308.954      248.903        0.477        0.046       91.886        5.384        0.003      336.821        8.381      865.508
05/01/2013  00:57:00     -115.599       -0.042      -14.092       23.284       21.913       14.771      542.140      480.165      218.193        0.740        0.062      115.599       10.487        0.008      336.797        8.341      865.507
05/01/2013  00:58:00      -98.433      -37.832       -7.652       20.179       19.303       14.018      407.204      372.600      196.512        0.608        0.049      105.453        8.553        0.007      336.841        8.413      865.511
05/01/2013  00:59:00     -108.025      -23.768      -12.343       18.082       21.236       14.481      326.962      450.984      209.699        0.669        0.049      110.609       11.448        0.011      336.773        8.300      865.513
05/01/2013  01:00:00     -121.861      -17.619      -10.269       26.227       18.076       17.784      687.881      326.744      316.264        0.830        0.067      123.128       16.762        0.019      336.690        8.162      865.524
05/01/2013  01:01:00     -121.901      -37.057       -0.405       34.279       18.162       16.974     1175.037      329.850      288.102        0.901        0.090      127.409       17.311        0.018      336.719        8.210      865.532
05/01/2013  01:02:00     -127.684      -33.492      -11.691       22.687       20.156       15.551      514.722      406.282      241.844        0.936        0.058      132.003       12.429        0.009      336.723        8.218      865.551
05/01/2013  01:03:00     -135.867      -20.748      -16.342       16.368       12.210       12.184      267.898      149.089      148.450        0.986        0.028      137.442        8.704        0.004      336.702        8.182      865.561
05/01/2013  01:04:00     -120.353      -30.636      -18.390       15.190       16.631       14.477      230.741      276.605      209.573        0.824        0.036      124.191        8.443        0.005      336.732        8.233      865.572
05/01/2013  01:05:00     -128.430      -42.644      -19.208       14.964       17.654       13.594      223.914      311.662      184.810        0.970        0.036      135.325        8.039        0.004      336.718        8.209      865.576
05/01/2013  01:06:00     -126.119      -58.756      -10.993       24.479       24.262       13.692      599.215      588.631      187.461        1.043        0.069      139.134       11.105        0.006      336.707        8.192      865.574
05/01/2013  01:07:00     -103.309      -48.181       -4.566       25.455       29.607       17.414      647.946      876.589      303.235        0.742        0.091      113.992       13.269        0.014      336.595        8.004      865.580
05/01/2013  01:08:00      -49.138      -44.065        3.347       51.189       28.021       20.759     2620.353      785.179      430.937        0.410        0.192       66.002       26.600        0.162      336.550        7.927      865.580
05/01/2013  01:09:00      -48.515      -43.462       -7.486       24.576       16.758       13.567      603.994      280.835      184.053        0.268        0.053       65.136       12.072        0.034      336.573        7.965      865.577
05/01/2013  01:10:00      -50.053      -20.763       -0.164       29.705       33.701       16.645      882.381     1135.791      277.068        0.262        0.115       54.189       18.220        0.113      336.475        7.801      865.593
05/01/2013  01:11:00      -89.742      -39.787       -5.430       24.791       20.396       12.583      614.609      416.005      158.331        0.543        0.059       98.166        7.472        0.006      336.489        7.826      865.591
05/01/2013  01:12:00     -105.953      -46.990      -10.808       14.485       14.331       10.704      209.810      205.380      114.577        0.704        0.026      115.906        6.432        0.003      336.490        7.828      865.596
05/01/2013  01:13:00      -88.804      -54.256       -9.076       16.026       14.979       11.060      256.839      224.385      122.333        0.576        0.030      104.067        5.874        0.003      336.468        7.789      865.608
05/01/2013  01:14:00      -53.565      -33.246        0.485       20.170       26.135       10.731      406.834      683.029      115.147        0.259        0.060       63.044        8.891        0.020      336.498        7.841      865.613
05/01/2013  01:15:00      -80.731       -5.371       -5.599       30.111       23.140       15.629      906.685      535.446      244.253        0.413        0.084       80.909       13.946        0.030      336.466        7.787      865.632
05/01/2013  01:16:00     -100.003      -16.321       -6.147       28.490       20.491       16.085      811.679      419.876      258.716        0.590        0.075      101.326       15.784        0.024      336.555        7.936      865.632
05/01/2013  01:17:00      -65.655      -14.903       -6.274       17.668       17.821       12.075      312.157      317.591      145.802        0.267        0.039       67.325        8.359        0.015      336.571        7.963      865.650
05/01/2013  01:18:00      -40.930      -25.679       -2.159       15.703       20.087       17.132      246.584      403.504      293.492        0.164        0.047       48.318       14.461        0.090      336.502        7.846      865.676
05/01/2013  01:19:00      -31.275       10.317       -9.781       13.869       23.134       11.411      192.357      535.170      130.215        0.102        0.043       32.933       10.925        0.110      336.421        7.709      865.688
05/01/2013  01:20:00      -32.445      -27.429       -6.813       26.249       17.363       16.362      688.984      301.477      267.719        0.155        0.063       42.486       11.691        0.076      336.467        7.788      865.700
05/01/2013  01:21:00       -6.382      -14.659       -3.488       27.353       13.560       14.411      748.184      183.863      207.667        0.070        0.057       15.988       17.579        1.209      336.553        7.933      865.716
05/01/2013  01:22:00      -51.773       15.874       -5.844       15.114       14.450        9.528      228.433      208.796       90.778        0.175        0.026       54.152        4.901        0.008      336.687        8.156      865.721
05/01/2013  01:23:00      -11.491       39.291      -11.274       16.855       15.470       12.269      284.087      239.321      150.531        0.124        0.034       40.937       10.257        0.063      337.317        9.209      865.720
05/01/2013  01:24:00       -5.348       54.943       -7.114       18.498       26.930       10.856      342.172      725.226      117.859        0.214        0.059       55.202       12.669        0.053      337.034        8.735      865.719
05/01/2013  01:25:00      -55.422       69.618      -14.540       26.204       25.468       12.778      686.661      648.603      163.270        0.481        0.075       88.984       11.083        0.016      336.784        8.318      865.714
05/01/2013  01:26:00      -38.107       52.097      -10.661       34.460       27.296       14.322     1187.467      745.078      205.122        0.321        0.107       64.546       10.723        0.028      336.755        8.270      865.704
05/01/2013  01:27:00      -11.480       84.092      -13.266       18.947       16.218       13.316      358.980      263.025      177.317        0.409        0.040       84.872        8.595        0.010      337.036        8.739      865.707
05/01/2013  01:28:00      -35.088       48.631       -8.906       20.808       20.586       13.678      432.979      423.777      187.078        0.236        0.052       59.968       14.278        0.057      336.770        8.297      865.709
05/01/2013  01:29:00      -53.403       18.212       -6.642       14.375       20.324       10.313      206.633      413.073      106.367        0.198        0.036       56.423       10.614        0.035      336.561        7.946      865.706
05/01/2013  01:30:00      -41.409        4.893       -7.294       12.081       13.518        9.442      145.946      182.750       89.159        0.110        0.021       41.697        5.984        0.021      336.819        8.377      865.699
05/01/2013  01:31:00      -20.408      -20.128       -5.795       10.532       10.501        6.754      110.921      110.275       45.618        0.056        0.013       28.664        3.584        0.016      336.793        8.335      865.705
05/01/2013  01:32:00      -10.115      -10.880        2.810       10.050       11.140        7.539      101.006      124.097       56.842        0.026        0.014       14.856        4.182        0.079      336.862        8.448      865.708
05/01/2013  01:33:00      -18.673       14.057       -5.033        8.239       10.838        7.208       67.873      117.470       51.961        0.040        0.012       23.372        0.741        0.001      336.898        8.510      865.710
05/01/2013  01:34:00       27.773       22.797        7.071       23.913       15.583       14.968      571.841      242.844      224.039        0.119        0.052       35.931        8.762        0.059      337.095        8.839      865.735
05/01/2013  01:35:00       19.196       11.675        5.305       24.371        9.555       10.991      593.939       91.298      120.797        0.067        0.040       22.468        5.844        0.068      337.077        8.808      865.760
05/01/2013  01:36:00       16.663       18.556        0.255       23.249       14.841       13.280      540.499      220.266      176.371        0.078        0.047       24.939       11.637        0.218      336.997        8.673      865.770
05/01/2013  01:37:00        2.800       -2.889        5.503       28.908       12.668        9.298      835.692      160.479       86.453        0.056        0.054        4.024       13.046       10.513      336.872        8.464      865.783
05/01/2013  01:38:00      -61.203      -12.414      -11.107       12.738       12.854        8.425      162.256      165.221       70.985        0.221        0.020       62.449        4.959        0.006      336.389        7.659      865.793
05/01/2013  01:39:00      -54.118      -22.936      -12.168       17.064       13.762       12.399      291.176      189.389      153.726        0.212        0.032       58.777        8.046        0.019      336.256        7.436      865.798
05/01/2013  01:40:00      -77.017      -26.053      -12.721       29.348       16.024       17.038      861.290      256.769      290.303        0.409        0.070       81.304       14.827        0.033      336.235        7.400      865.796
05/01/2013  01:41:00      -52.477      -25.718      -15.167       27.055       15.880       14.943      731.999      252.163      223.304        0.243        0.060       58.440        7.917        0.018      336.283        7.481      865.806
05/01/2013  01:42:00      -56.512      -31.889       -1.801       21.227       20.735       14.718      450.593      429.950      216.621        0.266        0.055       64.888        7.443        0.013      336.356        7.603      865.816
05/01/2013  01:43:00      -59.368      -32.840       -8.130       27.648       18.132       12.877      764.395      328.782      165.822        0.296        0.063       67.846        7.270        0.011      336.388        7.655      865.812
05/01/2013  01:44:00      -56.456      -26.728        0.016       34.948       14.172       10.715     1221.361      200.852      114.802        0.272        0.077       62.464       16.718        0.072      336.359        7.608      865.803
05/01/2013  01:45:00      -79.751      -44.024       -8.089        8.072       10.536        8.109       65.152      111.001       65.764        0.430        0.012       91.095        6.669        0.005      336.433        7.732      865.805
05/01/2013  01:46:00      -80.338      -52.870        2.621       17.554       19.599       14.174      308.158      384.106      200.889        0.507        0.045       96.174        8.663        0.008      336.701        8.179      865.816
05/01/2013  01:47:00      -17.908       -5.650       11.572       36.511       21.018       12.971     1333.063      441.746      168.242        0.121        0.097       18.778       10.424        0.308      336.407        7.688      865.827
05/01/2013  01:48:00      -17.995       22.328      -10.630       29.749       14.734       16.660      885.003      217.088      277.560        0.116        0.069       28.677       20.517        0.512      336.372        7.628      865.829
05/01/2013  01:49:00      -88.162       20.179       -6.588       13.251       14.933        8.655      175.591      222.992       74.913        0.435        0.024       90.442        5.870        0.004      336.244        7.416      865.824
05/01/2013  01:50:00      -92.569       10.128       -8.878       13.359       17.196       10.189      178.460      295.699      103.826        0.466        0.029       93.121        9.003        0.009      336.224        7.382      865.819
05/01/2013  01:51:00      -59.215        0.700       -8.525       25.127       15.231       12.526      631.360      231.983      156.910        0.230        0.051       59.219       10.919        0.034      336.208        7.356      865.820
05/01/2013  01:52:00      -48.448       -8.295       -5.807       18.397       13.831        9.049      338.449      191.299       81.881        0.153        0.031       49.153        6.548        0.018      336.218        7.372      865.812
05/01/2013  01:53:00      -82.189      -17.643      -15.074       14.981       18.436       11.863      224.419      339.901      140.722        0.400        0.035       84.062       10.429        0.015      336.273        7.464      865.811
05/01/2013  01:54:00      -47.158      -23.118       -8.599       21.051       18.568       14.066      443.125      344.752      197.846        0.191        0.049       52.519       13.392        0.065      336.149        7.256      865.819
05/01/2013  01:55:00      -56.934       -9.798      -15.146       15.994       11.196       10.687      255.800      125.339      114.210        0.203        0.025       57.771        8.296        0.021      336.129        7.223      865.834
05/01/2013  01:56:00      -70.476      -28.361       -9.686       21.424       17.283       11.410      459.009      298.713      130.191        0.338        0.044       75.968        7.531        0.010      336.056        7.102      865.833
05/01/2013  01:57:00      -92.824       -7.958      -15.626       20.366       18.545       13.279      414.758      343.920      176.331        0.493        0.047       93.165       10.365        0.012      335.922        6.879      865.819
05/01/2013  01:58:00      -60.869      -16.578      -10.716       21.880       19.494       15.684      478.740      380.007      245.980        0.260        0.055       63.086       13.475        0.046      335.882        6.811      865.813
05/01/2013  01:59:00      -72.397       -4.874       -9.104       22.277       21.673       12.541      496.262      469.731      157.287        0.324        0.056       72.561        9.962        0.019      335.885        6.818      865.814
05/01/2013  02:00:00      -62.315      -17.404      -13.158       33.888       17.274       13.731     1148.390      298.405      188.549        0.300        0.082       64.700       15.612        0.058      335.837        6.737      865.818
05/01/2013  02:01:00      -13.919      -13.418        2.175       26.331       14.050       12.781      693.337      197.402      163.351        0.072        0.053       19.333        8.289        0.184      335.825        6.716      865.816
05/01/2013  02:02:00      -43.768       -6.867       -9.730       25.250       28.821       16.025      637.577      830.635      256.814        0.189        0.086       44.304        4.011        0.008      335.927        6.886      865.825
05/01/2013  02:03:00      -64.739      -19.617       -5.250       36.325       31.440       26.992     1319.510      988.444      728.553        0.382        0.152       67.646       20.691        0.094      336.045        7.082      865.838
05/01/2013  02:04:00     -103.224      -40.070       -2.704       29.576       46.987       20.964      874.748     2207.745      439.504        0.789        0.176      110.728       15.848        0.020      335.998        7.004      865.839
05/01/2013  02:05:00      -70.847      -39.340        3.967       34.656       26.404       21.935     1201.044      697.164      481.162        0.448        0.119       81.037       20.921        0.067      335.797        6.669      865.834
05/01/2013  02:06:00      -63.487      -22.187       -0.619       39.441       17.768       17.946     1555.557      315.701      322.074        0.336        0.110       67.252       10.863        0.026      335.964        6.949      865.836
05/01/2013  02:07:00     -109.456      -11.258       -7.301       41.783       25.852       20.413     1745.844      668.335      416.694        0.750        0.142      110.034       17.932        0.027      335.835        6.733      865.851
05/01/2013  02:08:00     -103.136      -27.712       -6.239       41.054       27.009       23.314     1685.436      729.490      543.524        0.720        0.148      106.795       21.002        0.039      335.791        6.660      865.846
05/01/2013  02:09:00      -54.663      -17.567       -2.556       22.816       19.907       14.216      520.568      396.301      202.106        0.221        0.056       57.416       10.520        0.034      335.874        6.798      865.847
05/01/2013  02:10:00      -61.297      -23.668      -11.595       25.727       21.258       12.789      661.880      451.887      163.571        0.286        0.064       65.707        6.985        0.011      335.985        6.982      865.858
05/01/2013  02:11:00      -37.378       -9.151      -11.374       19.925       12.507       11.683      397.000      156.431      136.503        0.115        0.034       38.482        8.986        0.055      335.864        6.782      865.857
05/01/2013  02:12:00      -48.254       -5.168      -11.874       34.461       28.482       24.543     1187.534      811.219      602.345        0.255        0.130       48.530       21.749        0.201      335.845        6.751      865.849
05/01/2013  02:13:00      -86.646       -2.116      -17.946       46.379       36.368       25.446     2151.032     1322.650      647.484        0.598        0.206       86.672       23.099        0.071      335.796        6.669      865.852
05/01/2013  02:14:00      -92.527      -11.990       -9.655       46.048       45.493       29.690     2120.388     2069.640      881.468        0.693        0.254       93.301       21.395        0.053      335.760        6.607      865.851
05/01/2013  02:15:00      -94.168      -12.314      -10.915       51.515       36.859       23.018     2653.843     1358.615      529.808        0.684        0.227       94.969       22.098        0.054      335.673        6.463      865.854
05/01/2013  02:16:00      -69.699       -7.707      -11.407       32.324       34.771       16.362     1044.842     1209.053      267.714        0.378        0.126       70.124       11.359        0.026      335.715        6.534      865.876
05/01/2013  02:17:00      -53.412      -21.119      -12.841       23.512       20.230       17.763      552.814      409.259      315.536        0.237        0.064       57.436       12.620        0.048      335.777        6.636      865.891
05/01/2013  02:18:00      -64.081      -50.511       -6.485       32.632       19.930       18.798     1064.865      397.196      353.367        0.426        0.091       81.595       15.137        0.034      335.802        6.679      865.901
05/01/2013  02:19:00     -136.586      -43.673      -15.790       34.722       34.579       16.671     1205.648     1195.680      277.907        1.175        0.134      143.398        3.396        0.001      335.661        6.445      865.919
05/01/2013  02:20:00     -119.969      -47.252      -12.612       42.430       32.295       22.009     1800.307     1042.984      484.404        1.006        0.166      128.939       19.226        0.022      335.612        6.363      865.934
05/01/2013  02:21:00     -122.655      -19.052       -8.339       48.741       38.590       22.487     2375.710     1489.185      505.673        0.992        0.219      124.126       23.419        0.036      335.563        6.282      865.955
05/01/2013  02:22:00     -119.764      -31.503       -1.586       48.970       30.342       20.612     2398.067      920.642      424.851        0.954        0.187      123.838       23.012        0.035      335.530        6.225      865.970
05/01/2013  02:23:00      -72.440       -8.280        4.501       54.528       46.452       29.370     2973.321     2157.796      862.575        0.566        0.300       72.911       25.978        0.127      335.508        6.189      865.973
05/01/2013  02:24:00     -122.551      -24.395      -11.937       36.821       32.195       21.941     1355.800     1036.550      481.390        0.931        0.144      124.955       15.995        0.016      335.496        6.167      865.970
05/01/2013  02:25:00      -97.371      -29.935      -11.682       62.783       40.260       22.147     3941.691     1620.860      490.509        0.828        0.303      101.869       21.049        0.043      335.431        6.059      865.964
05/01/2013  02:26:00      -47.157        9.611       -8.419       41.401       44.243       24.962     1714.068     1957.453      623.114        0.334        0.215       48.126       17.828        0.137      335.304        5.847      865.962
05/01/2013  02:27:00      -84.884       -6.160      -11.111       43.473       39.439       25.541     1889.866     1555.444      652.335        0.573        0.205       85.107       17.745        0.043      335.250        5.758      865.965
05/01/2013  02:28:00      -70.162      -37.862       -3.456       59.354       44.691       24.945     3522.928     1997.251      622.271        0.625        0.307       79.726       20.491        0.066      335.341        5.909      865.970
05/01/2013  02:29:00      -81.863      -17.298       -3.832       42.843       28.785       21.485     1835.491      828.567      461.593        0.507        0.156       83.670       16.052        0.037      335.389        5.989      865.979
05/01/2013  02:30:00      -55.208      -20.318       -0.878       48.554       37.177       25.314     2357.479     1382.104      640.794        0.392        0.219       58.828       28.002        0.227      335.308        5.855      866.008
05/01/2013  02:31:00      -94.737      -40.060       -9.922       52.534       33.078       20.549     2759.873     1094.153      422.277        0.748        0.214      102.858       16.459        0.026      335.401        6.010      866.022
05/01/2013  02:32:00     -122.429      -38.384       -8.666       31.037       27.253       18.568      963.308      742.719      344.783        0.929        0.103      128.305       16.708        0.017      335.303        5.845      866.050
05/01/2013  02:33:00     -131.819      -41.840      -10.390       33.733       27.423       18.292     1137.915      752.028      334.602        1.073        0.111      138.299       14.900        0.012      335.374        5.966      866.060
05/01/2013  02:34:00     -131.713      -62.144      -14.285       35.176       24.849       21.167     1237.382      617.463      448.051        1.186        0.115      145.637       11.725        0.006      335.386        5.985      866.056
05/01/2013  02:35:00     -120.667      -46.112       -3.453       41.290       43.150       26.473     1704.880     1861.944      700.840        1.048        0.213      129.177       24.053        0.035      335.495        6.166      866.069
05/01/2013  02:36:00      -67.200       -7.986        5.035       51.611       24.771       22.244     2663.707      613.625      494.776        0.419        0.189       67.673       24.940        0.136      335.362        5.945      866.075
05/01/2013  02:37:00      -75.308      -22.916       -3.710       20.272       25.351       11.101      410.951      642.670      123.228        0.369        0.059       78.717        6.451        0.007      335.512        6.196      866.091
05/01/2013  02:38:00      -52.087      -12.647       -3.545       34.356       17.184       16.368     1180.311      295.297      267.903        0.231        0.087       53.601       17.743        0.110      335.532        6.228      866.089
05/01/2013  02:39:00      -80.190      -20.504       -6.034       34.928       25.624       22.772     1219.965      656.578      518.584        0.464        0.120       82.770       21.550        0.068      335.420        6.040      866.099
05/01/2013  02:40:00     -118.985        4.805       -0.559       45.955       36.974       26.085     2111.898     1367.069      680.423        0.917        0.208      119.082       22.121        0.035      335.455        6.099      866.108
05/01/2013  02:41:00     -122.082       28.875       -4.356       59.371       42.715       28.140     3524.894     1824.575      791.837        1.095        0.307      125.450       31.320        0.062      335.453        6.097      866.110
05/01/2013  02:42:00     -193.539       21.694      -17.647       40.684       36.383       23.327     1655.203     1323.751      544.168        2.088        0.176      194.751       23.053        0.014      335.453        6.096      866.112
05/01/2013  02:43:00     -132.851        0.854      -14.322       40.510       28.275       20.658     1641.044      799.494      426.764        1.036        0.143      132.854       13.967        0.011      335.453        6.097      866.107
05/01/2013  02:44:00     -120.985       -1.607       -6.595       64.091       50.334       30.914     4107.672     2533.495      955.685        1.114        0.380      120.996       30.046        0.062      335.431        6.058      866.103
05/01/2013  02:45:00      -58.771        6.681       -1.897       55.141       45.300       29.592     3040.482     2052.060      875.675        0.473        0.298       59.150       32.252        0.297      335.383        5.980      866.104
05/01/2013  02:46:00      -86.047        2.504       -0.421       43.831       38.348       28.778     1921.197     1470.592      828.162        0.581        0.211       86.083       25.778        0.090      335.411        6.025      866.123
05/01/2013  02:47:00      -58.369       -3.312       -6.154       38.667       28.177       22.963     1495.110      793.942      527.302        0.314        0.141       58.463       21.392        0.134      335.425        6.051      866.141
05/01/2013  02:48:00     -108.862      -14.410       -7.134       41.716       39.503       22.168     1740.231     1560.489      491.423        0.795        0.190      109.812       17.691        0.026      335.519        6.206      866.148
05/01/2013  02:49:00      -66.892      -44.923        3.984       37.456       35.215       25.032     1402.981     1240.089      626.596        0.489        0.163       80.577       23.217        0.083      335.505        6.184      866.155
05/01/2013  02:50:00     -116.073        3.941      -10.950       63.226       29.895       26.660     3997.566      893.723      710.774        0.960        0.280      116.140       24.554        0.045      335.443        6.080      866.167
05/01/2013  02:51:00     -145.723      -38.006      -16.709       39.970       38.354       31.382     1597.625     1471.006      984.834        1.351        0.203      150.598       27.014        0.032      335.463        6.113      866.165
05/01/2013  02:52:00      -79.357      -20.173        4.096       52.178       43.196       26.710     2722.530     1865.896      713.418        0.601        0.265       81.881       20.918        0.065      335.435        6.067      866.183
05/01/2013  02:53:00     -109.681      -32.758       -3.616       38.658       38.776       22.869     1494.469     1503.615      522.974        0.832        0.176      114.468       18.649        0.027      335.452        6.095      866.195
05/01/2013  02:54:00     -107.381      -41.224      -14.976       20.077       24.009       17.120      403.099      576.438      293.078        0.736        0.064      115.022        9.689        0.007      335.439        6.073      866.207
05/01/2013  02:55:00     -127.345      -39.020       -7.874       23.211       20.750       15.445      538.766      430.562      238.559        0.950        0.060      133.189       12.035        0.008      335.449        6.090      866.219
05/01/2013  02:56:00     -122.753      -48.560       -7.379       20.768       26.229       12.326      431.325      687.959      151.923        0.938        0.064      132.009        5.234        0.002      335.475        6.133      866.225
05/01/2013  02:57:00     -121.691      -31.440       -3.110       33.539       26.202       20.537     1124.886      686.522      421.768        0.902        0.112      125.686       20.771        0.027      335.376        5.969      866.235
05/01/2013  02:58:00     -108.590      -22.508      -11.468       33.566       30.929       17.412     1126.655      956.600      303.175        0.741        0.119      110.898       14.288        0.017      335.364        5.948      866.243
05/01/2013  02:59:00     -127.379        1.224       -5.217       51.646       35.647       29.862     2667.283     1270.701      891.766        1.054        0.241      127.385       19.113        0.023      335.311        5.861      866.236
05/01/2013  03:00:00      -89.920      -18.916       -6.985       47.439       46.037       24.760     2250.499     2119.393      613.057        0.674        0.249       91.888       25.539        0.077      335.362        5.945      866.233
05/01/2013  03:01:00      -61.446        1.758       -5.866       28.756       28.116       15.984      826.929      790.533      255.480        0.284        0.094       61.472        4.582        0.006      335.313        5.863      866.253
05/01/2013  03:02:00      -71.504       -3.493       -2.078       44.941       34.308       26.128     2019.673     1177.072      682.696        0.450        0.194       71.589       21.764        0.092      335.413        6.030      866.256
05/01/2013  03:03:00      -31.250      -18.306       -2.435       46.372       37.714       20.850     2150.364     1422.319      434.735        0.266        0.200       36.217       24.830        0.470      335.473        6.130      866.272
05/01/2013  03:04:00      -87.976       17.441      -17.423       37.639       40.107       22.913     1416.708     1608.548      525.018        0.595        0.178       89.688       14.734        0.027      335.417        6.036      866.298
05/01/2013  03:05:00      -73.156      -24.450      -11.354       38.180       30.973       17.474     1457.728      959.337      305.351        0.440        0.136       77.134       13.901        0.032      335.453        6.096      866.326
05/01/2013  03:06:00      -61.178       -8.956       -1.143       46.134       34.246       25.940     2128.390     1172.818      672.909        0.390        0.199       61.830       23.784        0.148      335.378        5.970      866.346
05/01/2013  03:07:00      -60.195       -5.554       -8.479       31.493       37.138       21.441      991.815     1379.255      459.706        0.328        0.142       60.450       14.801        0.060      335.311        5.859      866.360
05/01/2013  03:08:00      -52.188      -20.046       -7.298       31.571       25.126       15.231      996.717      631.315      231.976        0.252        0.093       55.905       15.110        0.073      335.376        5.968      866.381
05/01/2013  03:09:00      -57.743      -39.486       -4.767       24.588       30.144       17.922      604.573      908.645      321.199        0.337        0.092       69.953        9.318        0.018      335.423        6.046      866.382
05/01/2013  03:10:00      -81.455      -33.133       -3.391       27.891       21.472       20.216      777.931      461.064      408.700        0.470        0.082       87.936       15.474        0.031      335.413        6.030      866.376
05/01/2013  03:11:00      -78.418      -19.343       -3.272       25.040       24.248       14.949      626.988      587.969      223.485        0.399        0.072       80.768       10.864        0.018      335.337        5.904      866.366
05/01/2013  03:12:00      -58.092      -13.135       -9.532       23.570       16.755       12.863      555.545      280.741      165.467        0.232        0.050       59.558        9.479        0.025      335.273        5.796      866.383
05/01/2013  03:13:00      -40.422       -6.963      -11.962       31.788       27.633       16.210     1010.475      763.572      262.766        0.193        0.102       41.017       17.010        0.172      335.388        5.989      866.388
05/01/2013  03:14:00      -14.638        1.700       -8.121       18.077       18.167       13.924      326.762      330.050      193.874        0.057        0.043       14.736       12.235        0.689      335.355        5.932      866.390
05/01/2013  03:15:00      -15.811      -36.011        3.550       27.072       18.549       17.697      732.875      344.057      313.201        0.147        0.070       39.329       16.198        0.170      335.409        6.024      866.402
05/01/2013  03:16:00      -49.129      -14.974       -3.120       30.305       23.309       19.535      918.368      543.311      381.619        0.225        0.092       51.361       19.605        0.146      335.397        6.003      866.412
05/01/2013  03:17:00      -73.644      -47.253      -12.751       24.322       20.246       14.173      591.557      409.917      200.879        0.451        0.060       87.500       10.744        0.015      335.404        6.014      866.417
05/01/2013  03:18:00      -12.195      -33.772       -2.460       21.765       12.467       14.215      473.720      155.438      202.080        0.106        0.042       35.907        8.256        0.053      335.468        6.122      866.418
05/01/2013  03:19:00      -29.760      -17.653        4.692       30.520       22.349       15.889      931.470      499.489      252.457        0.145        0.084       34.602       10.732        0.096      335.424        6.049      866.432
05/01/2013  03:20:00      -70.544      -60.556       -6.992       40.378       18.316       17.723     1630.402      335.468      314.100        0.549        0.114       92.970       18.332        0.039      335.370        5.958      866.440
05/01/2013  03:21:00      -95.703      -37.495       -5.550       22.561       16.081       14.608      508.991      258.584      213.392        0.579        0.049      102.786       13.601        0.018      335.327        5.885      866.435
05/01/2013  03:22:00     -119.492      -21.927      -11.694       12.413       14.919       11.327      154.088      222.565      128.298        0.770        0.025      121.487        6.884        0.003      335.357        5.935      866.431
05/01/2013  03:23:00     -132.717      -14.399      -18.432       15.631       13.937       12.002      244.316      194.247      144.045        0.937        0.029      133.496        5.831        0.002      335.307        5.853      866.424
05/01/2013  03:24:00     -130.349      -21.312      -13.767       18.799       16.327       14.534      353.420      266.582      211.230        0.923        0.042      132.080       11.169        0.007      335.321        5.875      866.412
05/01/2013  03:25:00     -133.591      -48.357      -12.005       20.539       23.487       14.691      421.831      551.651      215.839        1.076        0.059      142.074       10.244        0.005      335.287        5.819      866.400
05/01/2013  03:26:00     -118.659      -28.534      -13.787       19.661       15.611       11.400      386.558      243.711      129.964        0.792        0.038      122.041        6.803        0.003      335.162        5.613      866.412
05/01/2013  03:27:00      -97.229      -48.371      -23.135       15.435       17.461        9.121      238.232      304.903       83.190        0.648        0.031      108.596        6.950        0.004      335.092        5.498      866.441
05/01/2013  03:28:00      -71.932      -32.259      -11.200       25.758       25.467       12.652      663.485      648.559      160.079        0.391        0.074       78.835        6.819        0.007      335.121        5.546      866.467
05/01/2013  03:29:00      -99.604      -18.652      -13.438       22.397       10.673       12.256      501.611      113.921      150.200        0.561        0.038      101.336       13.413        0.018      335.024        5.384      866.482
05/01/2013  03:30:00      -94.040      -38.006      -15.814       19.942       15.411       15.758      397.687      237.508      248.308        0.571        0.044      101.429        5.741        0.003      335.010        5.360      866.485
05/01/2013  03:31:00     -110.839      -22.264      -12.277       17.615       11.899       11.907      310.272      141.578      141.785        0.676        0.030      113.053       10.251        0.008      334.989        5.325      866.495
05/01/2013  03:32:00     -101.067      -41.914      -18.163       17.789       11.879       11.002      316.465      141.102      121.048        0.644        0.029      109.414        7.954        0.005      334.902        5.180      866.490
05/01/2013  03:33:00      -77.003      -62.709       -7.313       40.162       19.878       19.562     1612.965      395.126      382.683        0.615        0.120       99.307       20.770        0.044      334.969        5.291      866.486
05/01/2013  03:34:00      -70.291      -45.677        0.034       40.877       29.061       19.127     1670.909      844.523      365.830        0.495        0.144       83.828       17.037        0.041      334.988        5.324      866.487
05/01/2013  03:35:00     -107.053      -38.276      -13.518       36.932       34.213       20.901     1363.970     1170.516      436.863        0.804        0.149      113.690       16.931        0.022      334.943        5.248      866.492
05/01/2013  03:36:00     -130.501      -20.344      -17.969       32.435       31.691       19.348     1052.024     1004.299      374.356        1.010        0.122      132.078       16.538        0.016      334.797        5.007      866.501
05/01/2013  03:37:00      -97.790      -12.022       -2.030       54.367       39.926       28.120     2955.722     1594.112      790.746        0.752        0.267       98.526       29.954        0.092      334.732        4.899      866.502
05/01/2013  03:38:00      -48.418       -5.179        9.687       62.614       43.007       26.676     3920.514     1849.561      711.603        0.447        0.324       48.694       30.856        0.402      334.766        4.954      866.512
05/01/2013  03:39:00      -66.251      -33.150        2.337       67.595       43.850       24.467     4569.034     1922.846      598.655        0.629        0.355       74.081       32.548        0.193      334.913        5.201      866.517
05/01/2013  03:40:00      -85.239       -9.440       -0.194       44.500       35.432       23.048     1980.239     1255.458      531.194        0.556        0.188       85.760       24.175        0.079      334.867        5.122      866.525
05/01/2013  03:41:00      -85.849       -1.752       -9.623       41.967       43.985       29.575     1761.197     1934.668      874.664        0.602        0.229       85.867       12.972        0.023      334.695        4.837      866.534
05/01/2013  03:42:00      -60.002       10.322       -6.736       32.040       30.206       19.400     1026.586      912.385      376.377        0.303        0.116       60.884       13.602        0.050      334.733        4.901      866.547
05/01/2013  03:43:00      -28.253       14.169       -2.894       34.248       30.785       16.333     1172.960      947.712      266.776        0.170        0.119       31.607        6.307        0.040      334.731        4.898      866.566
05/01/2013  03:44:00      -57.770      -12.456      -14.348       35.942       17.939       16.448     1291.839      321.802      270.522        0.279        0.094       59.097        9.163        0.024      334.753        4.935      866.576
05/01/2013  03:45:00      -51.431       -1.488      -12.077       23.797       23.808       13.219      566.310      566.809      174.730        0.205        0.065       51.452        6.410        0.016      334.969        5.294      866.589
05/01/2013  03:46:00     -106.038       -3.608      -14.266       27.620       22.804       17.650      762.861      520.023      311.532        0.653        0.080      106.099       10.141        0.009      334.960        5.278      866.598
05/01/2013  03:47:00      -82.727        2.423      -16.028       30.843       25.418       16.064      951.284      646.055      258.040        0.448        0.093       82.762       10.591        0.016      334.954        5.268      866.593
05/01/2013  03:48:00      -45.049      -26.443      -11.951       31.890       17.038       14.712     1017.003      290.306      216.436        0.220        0.076       52.237        6.111        0.014      334.986        5.319      866.590
05/01/2013  03:49:00      -70.159      -25.436       -7.761       39.014       22.198       14.261     1522.119      492.756      203.367        0.392        0.111       74.628       11.855        0.025      334.873        5.133      866.567
05/01/2013  03:50:00      -24.097      -29.283      -16.413       29.568       27.247       20.376      874.278      742.409      415.168        0.187        0.102       37.924       18.685        0.243      334.994        5.335      866.573
05/01/2013  03:51:00      -84.915      -61.114      -13.573       24.555       19.634       16.307      602.928      385.495      265.929        0.619        0.063      104.620       11.479        0.012      334.860        5.111      866.583
05/01/2013  03:52:00      -87.974      -41.332      -19.510       24.833       15.626       13.113      616.680      244.178      171.954        0.543        0.052       97.199       10.475        0.012      334.717        4.875      866.619
05/01/2013  03:53:00      -51.558      -15.420      -11.455       16.802       16.512       13.915      282.292      272.651      193.635        0.189        0.037       53.814       11.120        0.043      334.832        5.066      866.629
05/01/2013  03:54:00      -70.047       -4.223      -13.198       30.007       24.080       17.767      900.413      579.827      315.662        0.345        0.090       70.174       15.352        0.048      334.851        5.096      866.640
05/01/2013  03:55:00     -104.672       -8.552      -12.543       24.140       25.449       15.929      582.745      647.641      253.723        0.634        0.074      105.021       11.857        0.013      334.751        4.927      866.643
05/01/2013  03:56:00      -85.750      -12.973      -12.540       19.108       18.070       11.749      365.113      326.531      138.033        0.425        0.041       86.725        8.469        0.010      334.766        4.956      866.647
05/01/2013  03:57:00      -88.610      -22.359      -17.176       12.963       20.689       12.108      168.041      428.045      146.600        0.469        0.037       91.387        4.899        0.003      334.826        5.055      866.669
05/01/2013  03:58:00      -83.665      -34.764      -14.731       17.926       17.739       12.775      321.359      314.684      163.207        0.461        0.040       90.600        5.221        0.003      334.844        5.086      866.685
05/01/2013  03:59:00      -99.918      -25.606      -12.973       27.629       26.659       16.299      763.340      710.693      265.671        0.627        0.087      103.147       14.575        0.020      334.701        4.847      866.690
05/01/2013  04:00:00     -104.538      -29.208       -8.729       29.139       26.519       19.586      849.055      703.270      383.627        0.690        0.097      108.541       11.432        0.011      334.734        4.902      866.701
05/01/2013  04:01:00      -68.552      -11.084       -6.731       44.104       28.044       20.884     1945.123      786.467      436.129        0.402        0.158       69.442       21.642        0.097      334.611        4.697      866.723
05/01/2013  04:02:00      -79.568      -46.350      -14.164       30.138       26.162       17.991      908.288      684.449      323.679        0.530        0.096       92.083       11.840        0.017      334.718        4.876      866.732
05/01/2013  04:03:00      -92.241      -37.508       -4.169       42.444       33.716       21.293     1801.514     1136.791      453.403        0.666        0.170       99.575       21.140        0.045      334.717        4.874      866.737
05/01/2013  04:04:00      -94.230      -17.300      -14.993       50.228       15.532       15.932     2522.854      241.241      253.839        0.621        0.151       95.805       14.921        0.024      334.708        4.858      866.765
05/01/2013  04:05:00     -115.027      -16.170      -19.495       71.146       38.082       21.722     5061.697     1450.265      471.846        1.043        0.349      116.158       29.528        0.065      334.683        4.817      866.775
05/01/2013  04:06:00     -106.098      -19.920       -7.363       55.754       30.956       22.869     3108.516      958.303      522.995        0.815        0.229      107.951       27.601        0.065      334.566        4.623      866.781
05/01/2013  04:07:00      -64.372        2.339       -8.804       32.658       26.313       16.737     1066.517      692.380      280.126        0.313        0.102       64.415       12.752        0.039      334.521        4.549      866.802
05/01/2013  04:08:00      -35.737      -11.647       -7.153       23.243       16.702       15.632      540.214      278.963      244.370        0.126        0.053       37.588       13.630        0.132      334.569        4.629      866.826
05/01/2013  04:09:00      -40.423      -13.087       -8.318       18.626       22.647       20.352      346.933      512.892      414.187        0.157        0.064       42.489       13.851        0.106      334.637        4.743      866.841
05/01/2013  04:10:00      -75.103      -11.030      -17.962       27.412       15.992       15.386      751.443      255.736      236.728        0.366        0.062       75.909       12.083        0.025      334.612        4.699      866.834
05/01/2013  04:11:00     -103.563       -6.173      -15.896       26.396       18.653       16.921      696.724      347.922      286.325        0.617        0.067      103.747       11.504        0.012      334.637        4.740      866.838
05/01/2013  04:12:00      -81.816        6.260      -19.175       26.582       21.204       16.585      706.599      449.620      275.046        0.427        0.072       82.055       11.516        0.020      334.561        4.616      866.860
05/01/2013  04:13:00      -55.676        7.962       -7.278       19.580       19.656       16.572      383.379      386.369      274.617        0.213        0.052       56.243       11.059        0.039      334.555        4.605      866.874
05/01/2013  04:14:00      -61.441      -13.523      -19.930       18.234       13.733       12.257      332.461      188.605      150.246        0.251        0.034       62.912        7.001        0.012      334.699        4.845      866.869
05/01/2013  04:15:00      -68.396       -2.788       -7.595       15.402       16.777       14.128      237.218      281.461      199.594        0.273        0.036       68.453        7.172        0.011      334.573        4.634      866.853
05/01/2013  04:16:00      -65.082      -22.132      -20.775       15.916       14.640       12.368      253.311      214.341      152.960        0.289        0.031       68.742        6.197        0.008      334.666        4.791      866.853
05/01/2013  04:17:00      -88.653      -28.114       -8.373       23.729       26.102       17.985      563.051      681.305      323.460        0.514        0.078       93.004       11.693        0.016      334.753        4.933      866.853
05/01/2013  04:18:00      -89.156      -29.106       -6.376       17.798       23.069       17.551      316.772      532.193      308.030        0.500        0.058       93.787        8.086        0.007      334.671        4.797      866.851
05/01/2013  04:19:00      -99.042        2.957      -17.652       38.566       34.941       18.640     1487.369     1220.847      347.435        0.659        0.153       99.086       15.529        0.025      334.464        4.453      866.852
05/01/2013  04:20:00      -91.483        3.214      -16.234       20.317       17.760       14.167      412.772      315.417      200.690        0.479        0.046       91.539        5.419        0.004      334.515        4.539      866.834
05/01/2013  04:21:00      -72.373       -7.325      -11.432       16.071       12.595       10.548      258.269      158.634      111.262        0.298        0.026       72.743        8.527        0.014      334.451        4.434      866.819
05/01/2013  04:22:00      -49.976      -11.533      -12.172       13.704       11.039       10.785      187.789      121.857      116.325        0.160        0.021       51.289        9.485        0.034      334.435        4.405      866.834
05/01/2013  04:23:00      -79.678       -7.454      -12.920       15.666       14.089       12.592      245.409      198.497      158.558        0.359        0.030       80.026        8.157        0.010      334.424        4.388      866.816
05/01/2013  04:24:00      -86.220      -25.368      -14.336       18.567       35.678       17.495      344.723     1272.939      306.070        0.510        0.096       89.875        5.116        0.003      334.472        4.468      866.818
05/01/2013  04:25:00      -92.820       -7.806       -9.951       44.143       42.386       21.795     1948.612     1796.597      475.015        0.650        0.211       93.148       19.677        0.045      334.417        4.377      866.841
05/01/2013  04:26:00      -98.472       11.359      -10.165       50.116       27.561       28.768     2511.634      759.630      827.613        0.701        0.205       99.125       24.068        0.059      334.772        4.965      866.846
05/01/2013  04:27:00      -51.093      -17.227        2.744       61.434       43.963       39.119     3774.176     1932.704     1530.295        0.507        0.362       53.919       36.801        0.466      334.630        4.730      866.870
05/01/2013  04:28:00      -72.264      -18.837       -9.108       24.304       19.361       15.773      590.674      374.837      248.800        0.344        0.061       74.679        6.334        0.007      334.620        4.713      866.888
05/01/2013  04:29:00      -75.168      -10.615      -12.474       21.195       11.688       21.325      449.248      136.605      454.749        0.348        0.052       75.914       15.507        0.042      334.598        4.676      866.908
05/01/2013  04:30:00     -124.963      -18.741      -23.399       62.464       29.086       21.099     3901.716      845.988      445.177        1.085        0.260      126.360       29.028        0.053      334.459        4.445      866.888
05/01/2013  04:31:00        6.820      -30.029       -2.157       29.744       48.274       24.970      884.733     2330.385      623.522        0.239        0.192       30.793       11.715        0.145      334.400        4.347      866.864
05/01/2013  04:32:00      -13.144      -36.360        0.208       30.417       18.235       16.551      925.196      332.499      273.951        0.151        0.077       38.662        8.581        0.049      334.482        4.485      866.890
05/01/2013  04:33:00      -71.944       -5.495       -1.358       22.363       24.084       15.447      500.082      580.023      238.598        0.326        0.066       72.154       12.982        0.032      334.585        4.655      866.898
05/01/2013  04:34:00      -29.486      -27.590      -11.471       27.016       14.824       14.733      729.889      219.760      217.053        0.146        0.058       40.381       12.589        0.097      334.578        4.642      866.934
05/01/2013  04:35:00      -33.761      -19.868       -4.670       17.996       14.889       13.738      323.840      221.681      188.742        0.115        0.037       39.174       12.892        0.108      334.802        5.014      866.949
05/01/2013  04:36:00      -45.012       -6.880      -13.612       25.331       17.668       12.124      641.649      312.157      146.989        0.168        0.055       45.535       14.386        0.100      334.746        4.923      866.954
05/01/2013  04:37:00      -27.820       -3.357       -6.023       19.743       25.562       19.810      389.767      653.428      392.419        0.113        0.072       28.022       16.127        0.331      335.019        5.374      866.967
05/01/2013  04:38:00        6.419       37.510       -1.261       24.218       20.554       12.084      586.527      422.447      146.032        0.130        0.058       38.055       13.591        0.128      335.371        5.961      866.973
05/01/2013  04:39:00       27.092       43.148        2.992       25.237       17.009       17.930      636.921      289.322      321.473        0.193        0.062       50.949       12.472        0.060      335.246        5.751      866.987
05/01/2013  04:40:00       42.904      137.898      -15.418       56.448       80.121       35.890     3186.377     6419.349     1288.068        1.599        0.545      144.418       28.943        0.040      335.316        5.868      866.985
05/01/2013  04:41:00       98.744       87.379        8.536       44.900       50.813       40.352     2016.032     2581.977     1628.276        1.184        0.311      131.854       32.331        0.060      335.358        5.938      867.004
05/01/2013  04:42:00      110.651       88.585       24.262       41.531       40.147       28.838     1724.805     1611.813      831.636        1.242        0.208      141.743       13.107        0.009      335.369        5.956      867.000
05/01/2013  04:43:00      102.309       69.863       25.231       63.557       34.065       42.040     4039.553     1160.392     1767.354        1.147        0.348      123.887       19.369        0.024      335.649        6.422      867.001
05/01/2013  04:44:00       45.853       45.270        3.526       33.743       38.029       23.518     1138.583     1446.234      553.111        0.365        0.157       64.435       22.513        0.122      335.345        5.916      867.005
05/01/2013  04:45:00       81.889       25.093       14.204       31.314       35.413       22.687      980.558     1254.049      514.692        0.514        0.137       85.648       21.403        0.062      335.408        6.020      867.010
05/01/2013  04:46:00       67.266       38.538       35.055       27.482       27.858       23.087      755.275      776.079      533.010        0.465        0.103       77.523       18.748        0.058      335.394        5.999      867.019
05/01/2013  04:47:00       61.237       34.312       27.681       40.065       21.531       19.994     1605.167      463.592      399.758        0.408        0.123       70.195       16.670        0.056      335.376        5.968      867.025
05/01/2013  04:48:00       35.702       12.509       17.548       36.583       21.365       26.891     1338.287      456.466      723.102        0.213        0.126       37.830       15.199        0.161      335.298        5.838      867.023
05/01/2013  04:49:00       44.103       32.380       43.043       26.814       34.581       25.730      718.982     1195.830      662.015        0.371        0.129       54.714       23.176        0.179      335.227        5.717      867.050
05/01/2013  04:50:00       60.141       19.990       18.403       41.603       29.749       27.513     1730.842      884.995      756.950        0.386        0.169       63.377       27.786        0.192      335.322        5.877      867.063
05/01/2013  04:51:00       56.415       57.889       57.921       43.004       34.337       27.418     1849.336     1179.041      751.721        0.683        0.189       80.832       20.103        0.062      335.308        5.856      867.070
05/01/2013  04:52:00       33.830       50.743       42.685       38.904       31.357       33.532     1513.497      983.244     1124.393        0.458        0.181       60.987       29.154        0.229      335.295        5.833      867.078
05/01/2013  04:53:00       58.933       44.462       34.779       43.827       48.044       35.279     1920.796     2308.211     1244.631        0.607        0.274       73.825       33.168        0.202      335.490        6.159      867.097
05/01/2013  04:54:00       29.665        0.264       34.543       28.305       65.065       32.322      801.187     4233.484     1044.731        0.408        0.304       29.666       38.962        1.725      335.453        6.096      867.097
05/01/2013  04:55:00       31.649       61.107       70.733       50.823       54.020       46.088     2582.955     2918.153     2124.065        0.868        0.381       68.816       43.444        0.399      335.609        6.357      867.099
05/01/2013  04:56:00       93.117     -109.966        9.544       66.885       85.975       58.464     4473.665     7391.761     3418.086        1.807        0.764      144.095       51.325        0.127      335.780        6.640      867.110
05/01/2013  04:57:00      189.035     -209.845        6.347      145.812      158.482       72.379    21261.187    25116.408     5238.753        6.570        2.581      282.434       96.871        0.118      336.174        7.296      867.087
05/01/2013  04:58:00       36.051       -8.365       57.757       80.936      156.502       87.619     6550.716    24492.903     7677.034        2.171        1.936       37.009      105.507        8.127      335.968        6.955      867.097
05/01/2013  04:59:00       82.727      -58.605       46.406       99.355      113.220       76.350     9871.363    12818.808     5829.322        2.047        1.426      101.382       72.942        0.518      336.000        7.006      867.092
05/01/2013  05:00:00       54.717       20.630       61.726       48.274       71.979       37.292     2330.364     5181.014     1390.688        0.806        0.445       58.477       33.546        0.329      335.897        6.837      867.104
05/01/2013  05:01:00      109.586       93.525      102.742       81.738       80.328       65.690     6681.112     6452.653     4315.125        2.438        0.872      144.069       62.452        0.188      335.929        6.889      867.109
05/01/2013  05:02:00       94.174       67.478       95.680       83.519       77.077       51.321     6975.501     5940.790     2633.832        1.906        0.778      115.854       48.750        0.177      335.923        6.880      867.109
05/01/2013  05:03:00      129.016       88.671       64.854       93.556       69.228       66.364     8752.771     4792.460     4404.216        2.333        0.897      156.549       48.240        0.095      335.954        6.929      867.100
05/01/2013  05:04:00      159.186      101.205      109.554      140.521      102.088       84.856    19746.276    10421.922     7200.582        4.247        1.868      188.634       66.869        0.126      336.018        7.035      867.098
05/01/2013  05:05:00      124.907      107.907      122.989       99.972       79.636       64.484     9994.420     6341.861     4158.244        3.143        1.025      165.063       44.400        0.072      335.936        6.898      867.069
05/01/2013  05:06:00      149.153       86.898      104.575       90.706       87.292       74.440     8227.519     7619.818     5541.249        3.106        1.069      172.621       63.565        0.136      335.921        6.875      867.080
05/01/2013  05:07:00      178.430       80.395       78.593      123.131      101.024       86.520    15161.275    10205.835     7485.767        3.866        1.643      195.705       73.543        0.141      335.992        6.992      867.067
05/01/2013  05:08:00      168.744      108.698       66.468       80.566       63.559       64.955     6490.924     4039.685     4219.186        2.973        0.737      200.723       40.174        0.040      335.880        6.806      867.072
05/01/2013  05:09:00      172.440       78.409       81.725       79.878       87.649       68.467     6380.517     7682.433     4687.749        3.065        0.938      189.429       53.553        0.080      335.960        6.939      867.080
05/01/2013  05:10:00      110.392       99.038       84.064       82.503       92.844       60.598     6806.800     8619.980     3672.098        2.408        0.955      148.307       38.832        0.069      335.937        6.901      867.088
05/01/2013  05:11:00       89.936       43.000       49.419       67.191       85.556       47.909     4514.575     7319.746     2295.279        1.325        0.706       99.687       33.043        0.110      335.882        6.811      867.121
05/01/2013  05:12:00      122.772       64.864       28.088       91.951       70.331       41.658     8455.064     4946.488     1735.419        1.760        0.757      138.853       28.101        0.041      335.872        6.793      867.137
05/01/2013  05:13:00      210.827      116.261       42.036       78.790       62.535       50.823     6207.843     3910.583     2583.025        3.621        0.635      240.758       31.937        0.018      335.830        6.721      867.163
05/01/2013  05:14:00      218.173      104.511       42.979      104.946       89.018       65.935    11013.765     7924.256     4347.409        4.182        1.164      241.913       47.043        0.038      335.871        6.790      867.157
05/01/2013  05:15:00      271.114      145.763      140.484      166.639      157.185      127.096    27768.562    24707.026    16153.312        9.154        3.431      307.814      120.569        0.153      336.000        7.005      867.123
05/01/2013  05:16:00      207.242      102.570      115.982      128.985       88.784       82.581    16637.027     7882.568     6819.693        4.912        1.567      231.236       70.549        0.093      336.024        7.046      867.139
05/01/2013  05:17:00      171.994      109.101       96.741      126.410       85.839       90.357    15979.427     7368.386     8164.429        4.117        1.576      203.678       73.049        0.129      336.002        7.009      867.158
05/01/2013  05:18:00      197.986      102.502      100.183      132.542       96.150       87.255    17567.406     9244.822     7613.443        4.708        1.721      222.947       57.609        0.067      336.029        7.054      867.155
05/01/2013  05:19:00      130.054       54.402       86.251       98.456       85.978       65.712     9693.601     7392.261     4318.015        2.435        1.070      140.973       53.744        0.145      336.048        7.086      867.161
05/01/2013  05:20:00      101.009       82.993       97.840       80.631       63.397       49.274     6501.306     4019.185     2427.951        1.980        0.647      130.731       43.501        0.111      335.947        6.918      867.206
05/01/2013  05:21:00      159.064       67.061       72.564       76.562       78.241       56.885     5861.735     6121.576     3235.937        2.514        0.761      172.622       52.572        0.093      335.912        6.859      867.222
05/01/2013  05:22:00      156.914       99.271       29.593       47.274       38.401       43.092     2234.806     1474.615     1856.908        2.046        0.278      185.679       28.241        0.023      335.854        6.763      867.252
05/01/2013  05:23:00      142.387       72.342       23.106       57.232       46.464       36.738     3275.559     2158.892     1349.712        1.641        0.339      159.711       21.794        0.019      335.843        6.745      867.274
05/01/2013  05:24:00      169.825       92.169       57.259       81.607       77.260       56.469     6659.766     5969.177     3188.695        2.821        0.791      193.225       42.744        0.049      335.884        6.814      867.272
05/01/2013  05:25:00      210.471      137.223       78.202       99.158       81.800       81.750     9832.243     6691.275     6683.012        4.622        1.160      251.253       58.160        0.054      335.966        6.949      867.266
05/01/2013  05:26:00      275.716       81.419       34.192      118.490      107.646       87.270    14039.900    11587.668     7616.095        5.852        1.662      287.486       68.496        0.057      335.961        6.939      867.274
05/01/2013  05:27:00      188.953      137.833       41.388       86.822       50.187       49.327     7538.074     2518.775     2433.156        3.445        0.625      233.883       47.936        0.042      335.880        6.805      867.290
05/01/2013  05:28:00      126.819       93.384       75.790       68.218       57.650       52.073     4653.722     3323.501     2711.554        2.062        0.534      157.492       36.117        0.053      335.846        6.750      867.329
05/01/2013  05:29:00       65.753       28.773       57.222       68.878       69.548       47.815     4744.120     4836.977     2286.307        1.014        0.593       71.773       50.693        0.499      335.803        6.680      867.341
05/01/2013  05:30:00      157.802      -41.024       71.433      123.651      130.520       81.092    15289.514    17035.529     6575.902        3.529        1.945      163.047       77.143        0.224      336.001        7.009      867.292
05/01/2013  05:31:00       69.937      113.276      146.930       83.749      114.594       55.329     7013.889    13131.809     3061.273        3.125        1.160      133.126       65.808        0.244      336.010        7.022      867.292
05/01/2013  05:32:00      211.591      156.059      119.361      158.216      151.187      126.954    25032.224    22857.659    16117.281        7.368        3.200      262.916      110.524        0.177      336.132        7.224      867.262
05/01/2013  05:33:00      153.154      139.636      129.069      124.662       74.706       79.338    15540.506     5580.917     6294.590        4.351        1.371      207.254       65.112        0.099      336.012        7.026      867.290
05/01/2013  05:34:00      118.188       77.604       96.016       91.570       71.519       65.572     8384.990     5115.008     4299.707        2.350        0.890      141.389       43.922        0.097      335.950        6.923      867.312
05/01/2013  05:35:00       71.908       59.574       90.965       78.241       67.161       55.669     6121.675     4510.600     3099.055        1.536        0.687       93.381       58.127        0.387      335.904        6.846      867.331
05/01/2013  05:36:00       93.065      -23.518       37.184       60.832       97.776       50.134     3700.531     9560.150     2513.451        1.318        0.789       95.990       68.790        0.514      335.909        6.855      867.355
05/01/2013  05:37:00       48.568      -31.209       33.566       51.378       85.791       52.059     2639.664     7360.125     2710.117        0.858        0.635       57.730       59.536        1.064      335.877        6.802      867.372
05/01/2013  05:38:00       66.613        1.091       39.522       64.281       55.849       49.753     4132.024     3119.103     2475.378        0.786        0.486       66.622       44.442        0.445      335.836        6.734      867.379
05/01/2013  05:39:00       64.287      -19.410       19.727       48.554       53.148       34.862     2357.537     2824.709     1215.339        0.565        0.320       67.153       38.820        0.334      335.861        6.776      867.406
05/01/2013  05:40:00       45.602       19.319       61.147       42.928       58.312       45.463     1842.823     3400.257     2066.841        0.675        0.365       49.525       41.751        0.711      335.849        6.757      867.446
05/01/2013  05:41:00       91.597       57.539       49.995       72.788       74.258       58.614     5298.101     5514.320     3435.613        1.422        0.712      108.171       33.687        0.097      335.839        6.740      867.468
05/01/2013  05:42:00       55.200       51.198       48.564       67.025       56.735       53.892     4492.290     3218.911     2904.301        0.932        0.531       75.288       44.172        0.344      335.753        6.599      867.473
05/01/2013  05:43:00       80.821       39.902       65.306       49.052       46.130       39.634     2406.120     2127.951     1570.868        0.925        0.305       90.135       29.839        0.110      335.857        6.771      867.461
05/01/2013  05:44:00       40.480       46.586       70.186       42.760       36.218       24.526     1828.437     1311.750      601.508        0.624        0.187       61.716       23.463        0.145      335.805        6.683      867.451
05/01/2013  05:45:00       88.982       53.250       82.221       84.393       49.668       39.731     7122.108     2466.909     1578.586        1.434        0.558      103.698       35.767        0.119      335.780        6.642      867.460
05/01/2013  05:46:00       60.102       32.186       38.766       66.758       51.654       39.461     4456.632     2668.157     1557.149        0.741        0.434       68.177       29.970        0.193      335.717        6.536      867.470
05/01/2013  05:47:00       99.571       55.326       38.482       53.931       64.982       43.142     2908.516     4222.607     1861.224        1.172        0.450      113.909       36.191        0.101      335.677        6.471      867.477
05/01/2013  05:48:00       82.052       68.931       74.247       59.477       51.853       44.379     3537.487     2688.725     1969.507        1.259        0.410      107.164       39.584        0.136      335.632        6.396      867.474
05/01/2013  05:49:00       69.837       65.966       66.050       36.560       29.110       26.776     1336.643      847.365      716.973        0.825        0.145       96.066       14.747        0.024      335.687        6.487      867.492
05/01/2013  05:50:00       81.802       64.673       50.883       21.925       18.602       21.814      480.698      346.022      475.830        0.738        0.065      104.279       13.107        0.016      335.594        6.333      867.518
05/01/2013  05:51:00       77.652       34.450       28.601       35.351       29.516       26.745     1249.686      871.197      715.289        0.543        0.142       84.951       21.006        0.061      335.514        6.198      867.542
05/01/2013  05:52:00      100.449       38.910       26.126       33.655       36.124       31.196     1132.660     1304.963      973.215        0.785        0.171      107.722       19.795        0.034      335.504        6.181      867.555
05/01/2013  05:53:00      105.011       28.586       22.552       48.501       35.864       35.247     2352.329     1286.198     1242.385        0.862        0.244      108.832       26.341        0.059      335.489        6.158      867.566
05/01/2013  05:54:00      143.551       29.998       17.112       70.446       44.075       36.286     4962.620     1942.630     1316.649        1.501        0.411      146.651       34.665        0.056      335.549        6.258      867.581
05/01/2013  05:55:00       90.475       22.570       36.716       68.647       49.898       47.328     4712.450     2489.761     2239.949        0.974        0.472       93.248       32.923        0.125      335.546        6.253      867.590
05/01/2013  05:56:00      107.810       25.477       10.164       51.594       35.862       29.321     2661.913     1286.098      859.727        0.859        0.240      110.779       10.616        0.009      335.458        6.106      867.598
05/01/2013  05:57:00      119.577       50.583       21.437       37.462       32.991       25.682     1403.411     1088.426      659.588        1.023        0.158      129.836       15.216        0.014      335.454        6.098      867.609
05/01/2013  05:58:00       85.659       53.885       39.043       44.294       37.601       34.359     1961.991     1413.830     1180.541        0.816        0.228      101.198       20.360        0.040      335.436        6.068      867.610
05/01/2013  05:59:00       91.882       70.673       45.656       47.547       33.520       33.602     2260.678     1123.611     1129.111        1.002        0.226      115.918       26.108        0.051      335.424        6.049      867.612
05/01/2013  06:00:00       78.426       58.150       42.834       51.321       40.714       33.548     2633.856     1657.625     1125.496        0.839        0.271       97.632       22.751        0.054      335.535        6.234      867.621
05/01/2013  06:01:00       48.793       49.139       61.771       48.899       28.994       22.944     2391.156      840.645      526.443        0.618        0.188       69.249        9.301        0.018      335.451        6.093      867.639
05/01/2013  06:02:00       83.364       39.826       49.364       54.073       47.217       35.641     2923.937     2229.473     1270.271        0.870        0.321       92.388       35.627        0.149      335.486        6.152      867.657
05/01/2013  06:03:00       58.872       56.987       56.622       51.655       34.860       29.844     2668.283     1215.241      890.678        0.735        0.239       81.935       28.679        0.123      335.581        6.310      867.665
05/01/2013  06:04:00       97.875       80.597       37.876       42.380       39.134       35.959     1796.099     1531.463     1293.015        1.106        0.231      126.788       19.445        0.024      335.454        6.098      867.678
05/01/2013  06:05:00      149.374       90.022       27.735       54.078       42.365       41.089     2924.407     1794.793     1688.291        1.880        0.320      174.404       19.025        0.012      335.464        6.116      867.704
05/01/2013  06:06:00      117.798       69.706       46.162       37.150       37.658       39.366     1380.086     1418.102     1549.672        1.261        0.217      136.877       23.015        0.028      335.447        6.086      867.725
05/01/2013  06:07:00       63.441       39.293       57.367       49.542       34.413       35.014     2454.453     1184.247     1225.993        0.686        0.243       74.624       16.795        0.051      335.426        6.052      867.739
05/01/2013  06:08:00      129.642       58.158       45.570       82.744       51.887       49.876     6846.646     2692.299     2487.569        1.714        0.601      142.089       41.140        0.084      335.472        6.126      867.746
05/01/2013  06:09:00       91.469       48.831       48.305       47.907       58.515       46.483     2295.063     3424.035     2160.703        1.048        0.394      103.688       32.951        0.101      335.437        6.069      867.771
05/01/2013  06:10:00      107.112       55.749       52.694       69.043       43.831       47.551     4766.972     1921.135     2261.093        1.315        0.447      120.752       42.721        0.125      335.462        6.111      867.783
05/01/2013  06:11:00      117.814       42.910       32.987       60.229       47.913       40.089     3627.580     2295.677     1607.158        1.217        0.377      125.385       33.104        0.070      335.395        6.000      867.796
05/01/2013  06:12:00      122.185       17.528       10.375       58.863       44.433       38.848     3464.878     1974.301     1509.147        1.114        0.347      123.436       32.077        0.068      335.349        5.922      867.816
05/01/2013  06:13:00      121.295       64.652       10.980       44.432       37.722       32.146     1974.246     1422.939     1033.381        1.172        0.222      137.450       16.926        0.015      335.255        5.766      867.824
05/01/2013  06:14:00      146.323       71.138        5.852       33.122       29.206       25.933     1097.086      853.013      672.526        1.456        0.131      162.699       20.633        0.016      335.234        5.731      867.837
05/01/2013  06:15:00      154.325       81.387        7.200       42.226       31.896       29.832     1783.012     1017.375      889.972        1.709        0.185      174.471       18.025        0.011      335.245        5.750      867.861
05/01/2013  06:16:00      147.684       89.712       23.820       40.504       38.337       38.626     1640.608     1469.702     1491.990        1.751        0.230      172.797       26.024        0.023      335.253        5.764      867.876
05/01/2013  06:17:00      161.236       82.325       -2.611       48.299       46.298       31.615     2332.803     2143.517      999.539        1.913        0.274      181.037        9.466        0.003      335.236        5.733      867.895
05/01/2013  06:18:00      164.467       96.029       14.499       43.807       51.399       33.530     1919.028     2641.891     1124.238        2.108        0.284      190.449       18.445        0.009      335.232        5.727      867.914
05/01/2013  06:19:00      145.751      104.748       33.743       43.433       36.083       32.238     1886.460     1302.007     1039.275        1.879        0.211      179.487       20.527        0.013      335.151        5.594      867.936
05/01/2013  06:20:00      147.077       88.276       24.371       46.013       42.564       39.808     2117.228     1811.689     1584.716        1.776        0.276      171.535       18.256        0.011      335.171        5.629      867.963
05/01/2013  06:21:00      127.739       80.734       27.076       56.678       45.296       31.706     3212.379     2051.743     1005.297        1.492        0.313      151.113       17.428        0.013      335.184        5.649      867.993
05/01/2013  06:22:00      127.503       90.438       26.347       43.900       28.650       28.838     1927.172      820.839      831.634        1.435        0.179      156.321       21.127        0.018      335.147        5.589      868.022
05/01/2013  06:23:00      151.472      100.917       28.494       43.161       34.522       36.793     1862.898     1191.756     1353.737        1.917        0.220      182.011       25.052        0.019      335.179        5.641      868.036
05/01/2013  06:24:00      140.863       40.763       39.333       67.114       52.324       48.157     4504.277     2737.785     2319.101        1.630        0.478      146.642       39.486        0.073      335.222        5.711      868.043
05/01/2013  06:25:00       89.445       49.340       31.931       70.190       50.445       39.797     4926.582     2544.659     1583.786        1.025        0.453      102.151       34.774        0.116      335.229        5.722      868.068
05/01/2013  06:26:00      134.779       58.612       43.581       68.095       49.707       43.220     4636.876     2470.760     1867.957        1.624        0.449      146.972       38.790        0.070      335.212        5.693      868.088
05/01/2013  06:27:00      135.124       64.248       43.141       54.090       45.950       36.998     2925.750     2111.420     1368.822        1.533        0.320      149.621       34.577        0.053      335.219        5.705      868.092
05/01/2013  06:28:00      135.219       64.796       23.006       60.906       51.783       39.310     3709.494     2681.496     1545.294        1.547        0.397      149.942       25.995        0.030      335.205        5.683      868.099
05/01/2013  06:29:00      131.554       44.871       25.712       76.917       47.375       45.014     5916.242     2244.420     2026.282        1.508        0.509      138.996       39.284        0.080      335.245        5.749      868.101
05/01/2013  06:30:00      158.431       81.916       43.373       79.380       56.612       43.440     6301.150     3204.961     1887.025        2.254        0.570      178.356       34.035        0.036      335.259        5.771      868.089
05/01/2013  06:31:00      115.401       32.399       14.209       80.114       61.600       40.765     6418.324     3794.605     1661.808        1.322        0.594      119.862       27.850        0.054      335.241        5.742      868.103
05/01/2013  06:32:00      134.748       55.577       26.796       87.553       49.067       38.975     7665.444     2407.589     1519.017        1.678        0.580      145.759       36.461        0.063      335.239        5.740      868.122
05/01/2013  06:33:00      185.056      114.008       37.608       74.140       67.456       53.734     5496.782     4550.291     2887.335        3.079        0.647      217.356       37.057        0.029      335.320        5.871      868.123
05/01/2013  06:34:00      162.023       83.666       25.140       71.467       53.828       47.043     5107.558     2897.496     2213.053        2.205        0.511      182.350       39.958        0.048      335.326        5.883      868.139
05/01/2013  06:35:00      188.657       62.689       14.966       79.315       53.829       43.527     6290.868     2897.537     1894.567        2.541        0.554      198.800       35.553        0.032      335.353        5.927      868.163
05/01/2013  06:36:00      163.137      101.638       23.878       46.889       38.516       38.822     2198.563     1483.449     1507.185        2.135        0.259      192.208       17.669        0.008      335.318        5.869      868.170
05/01/2013  06:37:00       98.705       58.990       34.852       62.061       56.691       51.434     3851.554     3213.820     2645.503        1.207        0.486      114.989       36.552        0.101      335.359        5.939      868.179
05/01/2013  06:38:00      182.684       99.558       56.745       81.902       61.374       52.926     6707.873     3766.778     2801.149        2.989        0.664      208.051       38.920        0.035      335.422        6.042      868.189
05/01/2013  06:39:00      107.351       60.603       67.210       69.407       67.646       49.012     4817.297     4576.034     2402.178        1.575        0.590      123.276       45.306        0.135      335.479        6.142      868.196
05/01/2013  06:40:00      114.827       76.100       35.984       62.952       41.412       40.308     3963.012     1714.987     1624.711        1.379        0.365      137.756       15.137        0.012      335.597        6.336      868.203
05/01/2013  06:41:00       74.759       71.182       49.014       42.381       29.371       38.328     1796.180      862.674     1469.004        0.859        0.206      103.227       21.811        0.045      335.518        6.204      868.215
05/01/2013  06:42:00      142.124       69.923       22.727       72.185       72.499       47.577     5210.637     5256.045     2263.614        1.917        0.637      158.393       32.467        0.042      335.516        6.200      868.213
05/01/2013  06:43:00      110.731       69.833       53.929       66.664       73.227       50.166     4444.105     5362.187     2516.668        1.618        0.616      130.912       31.424        0.058      335.567        6.287      868.231
05/01/2013  06:44:00      143.984       59.440       49.579       68.037       59.122       50.563     4629.068     3495.452     2556.627        1.870        0.534      155.770       35.281        0.051      335.576        6.300      868.269
05/01/2013  06:45:00       81.556       80.502       75.912       59.294       40.833       43.477     3515.759     1667.317     1890.264        1.298        0.354      114.595       28.670        0.063      335.618        6.372      868.300
05/01/2013  06:46:00       82.286       67.814       50.954       49.417       58.926       46.599     2441.998     3472.247     2171.487        1.102        0.404      106.629       38.743        0.132      335.653        6.431      868.336
05/01/2013  06:47:00      127.719       79.700       55.890       70.378       52.287       51.422     4952.995     2733.890     2644.186        1.806        0.517      150.546       32.515        0.047      335.662        6.445      868.344
05/01/2013  06:48:00      118.038       35.434       29.401       67.887       45.125       49.436     4608.620     2036.271     2443.908        1.257        0.454      123.242       27.235        0.049      335.676        6.468      868.359
05/01/2013  06:49:00      111.852       49.429       66.210       99.464       75.510       50.581     9893.023     5701.804     2558.486        1.874        0.908      122.287       56.289        0.212      335.720        6.543      868.379
05/01/2013  06:50:00      132.804       93.833       24.958       59.942       55.791       42.798     3593.082     3112.584     1831.684        1.780        0.427      162.608        9.614        0.003      335.708        6.521      868.395
05/01/2013  06:51:00      240.674      145.986       45.090       92.576       94.816       66.251     8570.249     8990.069     4389.236        5.160        1.097      281.488       39.774        0.020      335.704        6.512      868.427
05/01/2013  06:52:00      118.748       67.890       44.828       91.713       79.568       56.720     8411.278     6331.145     3217.103        1.934        0.898      136.785       50.384        0.136      335.766        6.618      868.419
05/01/2013  06:53:00      230.505      144.444       43.850      114.169       84.877       83.377    13034.524     7204.130     6951.751        5.155        1.360      272.023       54.073        0.040      335.725        6.547      868.439
05/01/2013  06:54:00      291.106      184.472       63.237      133.127       86.345       76.686    17722.914     7455.405     5880.717        7.691        1.553      344.634       50.514        0.021      335.721        6.540      868.434
05/01/2013  06:55:00      270.298      177.322       53.132      153.356       93.220       82.506    23518.123     8690.043     6807.221        7.316        1.951      323.271       58.177        0.032      335.752        6.592      868.463
05/01/2013  06:56:00      277.809      175.824       47.735      109.632       95.590       82.735    12019.281     9137.473     6845.157        6.918        1.400      328.774       58.877        0.032      335.834        6.729      868.454
05/01/2013  06:57:00      211.606      152.866       71.431      100.154       83.620       79.130    10030.804     6992.332     6261.484        4.826        1.164      261.046       63.016        0.058      335.825        6.712      868.473
05/01/2013  06:58:00      259.600      137.869       95.301      142.704      103.333       83.920    20364.378    10677.690     7042.521        6.678        1.904      293.938       56.528        0.037      335.858        6.767      868.471
05/01/2013  06:59:00      198.191       87.956       70.416      147.987      112.192      108.818    21900.251    12587.072    11841.388        4.914        2.316      216.832       74.032        0.117      335.857        6.768      868.439
05/01/2013  07:00:00       70.837       97.748       85.797       86.703       77.352       68.979     7517.350     5983.309     4758.060        2.009        0.913      120.717       50.421        0.174      335.975        6.965      868.467
05/01/2013  07:01:00      191.192       56.236       53.532      142.306       94.083       77.581    20251.019     8851.573     6018.833        3.884        1.756      199.291       64.756        0.106      335.897        6.831      868.465
05/01/2013  07:02:00      141.562       64.413       46.880       97.681       66.917       68.285     9541.571     4477.856     4662.867        2.253        0.934      155.527       48.537        0.097      335.924        6.879      868.490
05/01/2013  07:03:00      306.901      137.914       47.943      117.577      112.397       83.665    13824.377    12633.137     6999.860        7.448        1.673      336.465       64.919        0.037      335.845        6.746      868.496
05/01/2013  07:04:00      266.376      148.625       80.300      133.702      113.108       81.535    17876.323    12793.492     6647.902        6.840        1.866      305.034       74.505        0.060      335.825        6.713      868.475
05/01/2013  07:05:00      163.513       72.735       33.493      117.521       66.335       65.627    13811.218     4400.318     4306.954        2.783        1.126      178.961       55.692        0.097      335.902        6.842      868.487
05/01/2013  07:06:00      151.910       93.692       66.612       89.183       84.298       68.556     7953.641     7106.158     4699.897        2.802        0.988      178.479       61.202        0.118      335.939        6.903      868.504
05/01/2013  07:07:00      215.036      113.751       41.350       95.734       91.542       60.334     9164.936     8380.023     3640.137        4.103        1.059      243.269       32.791        0.018      335.916        6.865      868.515
05/01/2013  07:08:00      205.768      123.953       29.655       94.768       88.702       69.915     8981.052     7868.096     4888.047        4.016        1.087      240.218       58.103        0.059      335.917        6.865      868.523
05/01/2013  07:09:00      275.654      137.961       57.918      132.796      100.449       89.578    17634.678    10090.084     8024.195        6.705        1.787      308.251       72.942        0.056      335.823        6.709      868.546
05/01/2013  07:10:00      213.912      132.360       84.899      148.234      122.030       86.932    21973.331    14891.325     7557.163        5.744        2.221      251.550       79.889        0.101      335.848        6.751      868.554
05/01/2013  07:11:00      118.690      106.195      106.854      123.361      107.302       94.335    15217.972    11513.759     8899.078        3.620        1.782      159.263       74.044        0.216      335.912        6.859      868.556
05/01/2013  07:12:00      110.509      137.491      136.640      137.229      122.322       93.584    18831.801    14962.666     8758.053        4.616        2.128      176.397       79.940        0.205      335.940        6.905      868.582
05/01/2013  07:13:00      164.183      134.184      124.154      125.700       88.044       94.072    15800.416     7751.760     8849.533        4.638        1.620      212.041       68.899        0.106      335.888        6.819      868.595
05/01/2013  07:14:00      198.998      173.345      137.546      135.537      102.218       76.807    18370.349    10448.468     5899.300        6.164        1.736      263.911       62.300        0.056      335.854        6.761      868.594
05/01/2013  07:15:00       67.100       83.058       91.876      103.359       82.486       71.324    10682.985     6803.871     5087.137        2.120        1.129      106.776       66.604        0.389      336.123        7.213      868.618
05/01/2013  07:16:00      323.289      141.671       31.626      135.936       90.937       73.366    18478.649     8269.549     5382.643        7.885        1.607      352.969       54.538        0.024      335.822        6.708      868.634
05/01/2013  07:17:00      117.886      155.244      137.028       94.905      104.670       74.996     9007.053    10955.716     5624.388        4.118        1.279      194.930       70.091        0.129      336.013        7.027      868.641
05/01/2013  07:18:00      181.699      125.488       80.826      117.223       87.674       90.380    13741.300     7686.797     8168.521        4.244        1.480      220.820       67.969        0.095      335.930        6.889      868.672
05/01/2013  07:19:00      118.901      109.154       63.944      104.781       81.595       75.793    10978.997     6657.812     5744.513        2.676        1.169      161.406       70.999        0.193      336.049        7.087      868.696
05/01/2013  07:20:00      245.796      141.481       65.000      128.899      107.953      102.302    16614.828    11653.793    10465.764        6.169        1.937      283.606       58.435        0.042      335.884        6.811      868.722
05/01/2013  07:21:00      322.460      196.404       62.110      142.752      111.166       72.666    20378.224    12357.953     5280.385        9.221        1.901      377.564       31.915        0.007      335.832        6.725      868.756
05/01/2013  07:22:00      287.644      167.770       72.006      126.202       82.252       89.711    15926.822     6765.439     8048.013        7.340        1.537      332.996       80.328        0.058      335.843        6.742      868.765
05/01/2013  07:23:00      194.360      107.302       50.741       73.397       66.218       54.632     5387.098     4384.880     2984.648        3.231        0.638      222.012       37.589        0.029      335.976        6.964      868.799
05/01/2013  07:24:00      184.899      101.651       37.171       85.043       81.879       70.988     7232.379     6704.135     5039.314        3.244        0.949      210.999       34.997        0.028      336.037        7.068      868.818
05/01/2013  07:25:00      140.682       68.247       33.383       94.962       77.687       53.181     9017.757     6035.270     2828.240        2.172        0.894      156.361       44.697        0.082      336.112        7.192      868.825
05/01/2013  07:26:00      236.866      139.126       36.915      132.780      107.236       63.686    17630.408    11499.488     4055.859        5.500        1.659      274.702       30.633        0.012      336.060        7.106      868.832
05/01/2013  07:27:00      289.500      170.931       41.386      121.580      106.745       68.494    14781.740    11394.602     4691.408        7.280        1.543      336.196       44.678        0.018      335.883        6.810      868.848
05/01/2013  07:28:00      287.574      143.633       35.133      138.093      109.119       69.956    19069.591    11906.989     4893.896        7.021        1.794      321.449       46.631        0.021      335.995        6.996      868.870
05/01/2013  07:29:00      167.186      128.117       66.040      115.229       81.815       75.169    13277.780     6693.620     5650.380        3.717        1.281      210.630       45.146        0.046      336.003        7.010      868.886
05/01/2013  07:30:00      285.314      191.057       34.191      110.509       89.047       83.511    12212.265     7929.344     6974.039        7.309        1.356      343.375       48.500        0.020      335.914        6.860      868.891
05/01/2013  07:31:00      244.691      150.327       59.193      132.234       87.989       68.132    17485.846     7742.016     4641.964        5.792        1.493      287.179       40.276        0.020      336.033        7.060      868.889
05/01/2013  07:32:00      237.403      110.281       52.371      123.866      108.882       86.480    15342.882    11855.301     7478.799        5.296        1.734      261.767       61.180        0.055      336.053        7.094      868.890
05/01/2013  07:33:00      202.669       82.853       28.832       95.918       92.936       71.967     9200.313     8637.163     5179.225        3.589        1.151      218.951       41.482        0.036      336.077        7.133      868.906
05/01/2013  07:34:00      277.242      166.030       88.323      169.998      114.020       88.819    28899.388    13000.670     7888.793        8.100        2.489      323.155       71.753        0.049      336.091        7.156      868.887
05/01/2013  07:35:00      278.318      142.226       61.932      178.241      136.705      106.219    31769.959    18688.258    11282.500        8.162        3.087      312.553       98.641        0.100      336.051        7.089      868.886
05/01/2013  07:36:00      246.920      139.809       82.080      151.628       97.451       84.301    22990.943     9496.630     7106.743        6.342        1.980      283.754       75.222        0.070      336.097        7.166      868.907
05/01/2013  07:37:00      267.902      178.269       48.787      126.656      102.491       84.686    16041.661    10504.440     7171.725        6.982        1.686      321.793       54.471        0.029      336.083        7.143      868.899
05/01/2013  07:38:00      259.759      122.936       57.066      114.081       88.582       74.663    13014.439     7846.793     5574.566        5.613        1.322      287.381       57.455        0.040      336.126        7.215      868.877
05/01/2013  07:39:00      295.924      170.624       83.299      156.158      133.592       87.333    24385.268    17846.793     7627.002        8.673        2.493      341.590       68.756        0.041      336.021        7.041      868.873
05/01/2013  07:40:00      235.735      140.539       55.288      138.766       91.055       83.336    19256.080     8291.075     6944.957        5.643        1.725      274.449       78.421        0.082      336.124        7.211      868.901
05/01/2013  07:41:00      138.167      100.914       41.503       83.974       72.826       61.103     7051.602     5303.637     3733.610        2.354        0.804      171.096       31.765        0.034      336.211        7.360      868.940
05/01/2013  07:42:00       72.182       62.421       75.277       91.900       96.097       58.687     8445.663     9234.595     3444.220        1.794        1.056       95.429       55.661        0.340      336.443        7.746      868.955
05/01/2013  07:43:00      263.935      165.142       89.587      121.821      101.385       81.729    14840.472    10278.903     6679.688        6.837        1.590      311.341       56.418        0.033      336.228        7.386      868.967
05/01/2013  07:44:00      209.584      147.990      143.527      142.571      148.849      116.628    20326.482    22156.024    13602.015        7.124        2.804      256.566       93.472        0.133      336.220        7.373      868.949
05/01/2013  07:45:00      206.887      153.191      161.896      153.537      135.450      104.177    23573.586    18346.813    10852.783        7.262        2.639      257.429      100.234        0.152      336.129        7.220      868.951
05/01/2013  07:46:00      152.562      151.392      118.268       94.585      113.834       93.400     8946.355    12958.148     8723.544        4.540        1.531      214.930       82.701        0.148      336.229        7.388      868.967
05/01/2013  07:47:00      162.782      121.317      106.699      140.474       96.109       86.357    19732.858     9237.034     7457.611        4.451        1.821      203.016       75.633        0.139      336.201        7.340      868.966
05/01/2013  07:48:00      209.603      130.816       81.333      125.803       98.530       80.273    15826.363     9708.149     6443.716        4.981        1.599      247.075       53.024        0.046      336.267        7.451      868.991
05/01/2013  07:49:00      256.789      116.804       55.571      154.853       99.945       73.637    23979.554     9988.910     5422.379        6.102        1.970      282.106       52.198        0.034      336.143        7.244      868.998
05/01/2013  07:50:00      236.161      140.875       56.227      122.212       78.292       69.983    14935.685     6129.619     4897.673        5.237        1.298      274.987       50.667        0.034      336.095        7.164      869.037
05/01/2013  07:51:00      262.940      145.945       36.837      117.818       85.467       77.306    13881.147     7304.548     5976.263        5.947        1.358      300.728       57.671        0.037      336.131        7.223      869.050
05/01/2013  07:52:00      201.852      123.249       71.083      140.724      115.791       89.599    19803.304    13407.513     8028.066        5.110        2.062      236.505       71.427        0.091      336.308        7.520      869.048
05/01/2013  07:53:00      279.494      122.813       73.126      146.688      102.176       89.943    21517.327    10439.988     8089.675        6.929        2.002      305.287       63.401        0.043      336.127        7.217      869.058
05/01/2013  07:54:00      147.563       69.073       49.801      140.794       73.541       72.714    19822.861     5408.219     5287.380        2.977        1.526      162.929       55.304        0.115      336.277        7.469      869.076
05/01/2013  07:55:00      157.827       83.942       82.910      113.652      103.874       80.707    12916.861    10789.772     6513.595        3.452        1.511      178.762       58.772        0.108      336.261        7.440      869.095
05/01/2013  07:56:00      225.271      145.440       88.202      145.206      111.457       98.658    21084.747    12422.616     9733.490        6.145        2.162      268.141       86.414        0.104      336.295        7.498      869.093
05/01/2013  07:57:00      279.339      146.450       55.033      133.555       93.023      105.019    17837.006     8653.293    11028.968        7.001        1.876      315.401       81.527        0.067      336.182        7.309      869.100
05/01/2013  07:58:00      142.140      140.907      126.004      124.664       86.745       81.915    15541.233     7524.619     6710.063        4.285        1.489      200.146       87.464        0.191      336.213        7.361      869.089
05/01/2013  07:59:00      184.474      148.603       43.545      103.537      102.527       86.051    10720.004    10511.684     7404.827        4.332        1.432      236.883       58.927        0.062      336.236        7.398      869.084
05/01/2013  08:00:00      230.663      151.579       45.098      116.120       89.536       75.144    13483.848     8016.690     5646.568        5.268        1.357      276.010       56.459        0.042      336.220        7.373      869.079
05/01/2013  08:01:00      195.571      159.161       65.470       97.885       77.795       67.741     9581.406     6052.120     4588.868        4.404        1.011      252.151       61.329        0.059      336.286        7.481      869.091
05/01/2013  08:02:00      162.228      112.862       74.553       74.181       61.708       60.296     5502.805     3807.834     3635.659        2.878        0.647      197.626       33.006        0.028      336.439        7.738      869.126
05/01/2013  08:03:00      145.004       91.742       36.390      103.125       73.863       62.529    10634.749     5455.691     3909.858        2.538        1.000      171.589       52.198        0.093      336.532        7.894      869.146
05/01/2013  08:04:00      264.991      182.225       90.025      155.449       82.466      108.422    24164.389     6800.631    11755.266        7.712        2.136      321.600      101.114        0.099      336.425        7.714      869.158
05/01/2013  08:05:00      180.911      155.531       72.105      132.009       82.176       71.275    17426.484     6752.886     5080.066        4.568        1.463      238.576       61.983        0.067      336.394        7.663      869.177
05/01/2013  08:06:00      244.387      174.213       56.163      131.946       90.146       86.643    17409.773     8126.277     7506.973        6.313        1.652      300.126       69.483        0.054      336.251        7.423      869.178
05/01/2013  08:07:00      278.099      216.737       46.321      151.786      103.146       83.978    23038.876    10639.129     7052.250        8.359        2.037      352.582       32.405        0.008      336.214        7.362      869.165
05/01/2013  08:08:00      248.510      151.024       51.172      145.039       98.657       70.239    21036.289     9733.220     4933.556        6.144        1.785      290.801       56.121        0.037      336.290        7.489      869.156
05/01/2013  08:09:00      197.037      149.016       44.238      122.749      106.042       80.616    15067.270    11244.856     6499.002        4.789        1.641      247.041       39.650        0.026      336.393        7.662      869.168
05/01/2013  08:10:00      253.103      146.611       41.002      114.458       65.403       71.899    13100.605     4277.508     5169.400        5.489        1.127      292.499       51.036        0.030      336.217        7.368      869.174
05/01/2013  08:11:00      216.212      117.330       55.346      113.626       90.294       69.679    12910.943     8152.948     4855.108        4.474        1.296      245.996       52.579        0.046      336.339        7.572      869.180
05/01/2013  08:12:00       55.659       61.049       64.844       60.668       56.890       39.091     3680.591     3236.423     1528.074        0.974        0.422       82.613       22.741        0.076      336.868        8.458      869.190
05/01/2013  08:13:00       61.578      112.085      111.165       79.268       88.698       79.195     6283.439     7867.264     6271.913        2.456        1.021      127.886       76.752        0.360      336.587        7.987      869.184
05/01/2013  08:14:00      118.502      120.436      103.850       96.183       82.819       81.161     9251.213     6858.968     6587.078        3.101        1.135      168.960       66.589        0.155      336.352        7.593      869.173
05/01/2013  08:15:00      224.532      169.287       92.711      132.904       79.531       83.847    17663.341     6325.122     7030.352        5.934        1.551      281.199       70.481        0.063      336.367        7.617      869.164
05/01/2013  08:16:00      119.297       90.379       32.853       96.263       75.843       73.501     9266.655     5752.104     5402.428        2.195        1.021      149.667       40.866        0.075      336.551        7.927      869.170
05/01/2013  08:17:00       67.874       57.947      111.586      112.543       93.587       71.983    12665.990     8758.450     5181.573        2.351        1.330       89.245       67.986        0.580      336.820        8.377      869.166
05/01/2013  08:18:00      127.502      137.236      114.146      118.225       87.278       72.603    13977.190     7617.479     5271.189        3.749        1.343      187.324       56.370        0.091      336.445        7.748      869.191
05/01/2013  08:19:00      161.168      185.340      118.080      159.508       89.609       90.635    25442.773     8029.825     8214.625        5.797        2.084      245.613       94.816        0.149      336.269        7.454      869.191
05/01/2013  08:20:00      326.498      176.428       28.437      129.114       87.275       71.790    16670.540     7616.916     5153.872        8.398        1.472      371.117       45.038        0.015      336.171        7.290      869.203
05/01/2013  08:21:00      214.115      123.949       38.779      110.057      108.320       67.035    12112.469    11733.213     4493.648        4.552        1.417      247.404       52.418        0.045      336.468        7.786      869.195
05/01/2013  08:22:00      258.129      162.917       58.212      119.891       82.293       86.082    14373.743     6772.208     7410.105        6.255        1.428      305.242       60.713        0.040      336.333        7.562      869.193
05/01/2013  08:23:00      391.159      211.132       37.669      122.661      104.363       97.868    15045.715    10891.635     9578.050       11.725        1.776      444.503       59.997        0.018      336.065        7.114      869.187
05/01/2013  08:24:00      192.044      141.677       51.612      117.895       86.731       92.800    13899.209     7522.322     8611.846        4.482        1.502      238.649       67.783        0.081      336.354        7.596      869.196
05/01/2013  08:25:00      295.270      196.679       72.013      140.120      102.208       87.580    19633.656    10446.528     7670.320        8.439        1.888      354.777       73.397        0.043      336.247        7.417      869.183
05/01/2013  08:26:00      275.518      176.692       45.385      118.664       91.434       78.758    14081.121     8360.249     6202.851        6.891        1.432      327.308       41.328        0.016      336.134        7.228      869.203
05/01/2013  08:27:00      205.133      180.710       32.587      137.118      133.726       91.939    18801.439    17882.626     8452.749        6.046        2.257      273.378       67.837        0.062      336.254        7.429      869.188
05/01/2013  08:28:00      289.089      137.133       41.717      123.705       90.503       74.560    15302.871     8190.801     5559.129        6.658        1.453      319.966       49.241        0.024      336.316        7.533      869.182
05/01/2013  08:29:00      190.038      145.308       55.659      169.471      107.131      123.833    28720.497    11477.033    15334.543        5.792        2.777      239.226      100.717        0.177      336.440        7.739      869.150
05/01/2013  08:30:00      289.248      148.845       49.771      158.338      116.981       91.533    25071.061    13684.507     8378.232        7.771        2.357      325.299       88.258        0.074      336.350        7.590      869.166
05/01/2013  08:31:00      288.782      154.075       34.054      150.186       98.455       95.596    22555.719     9693.447     9138.551        7.483        2.069      327.313       76.269        0.054      336.393        7.660      869.181
05/01/2013  08:32:00      257.903      167.658       57.574      127.118       81.655       75.953    16158.903     6667.541     5768.809        6.326        1.430      307.609       37.339        0.015      336.345        7.582      869.191
05/01/2013  08:33:00      244.965      142.722       23.048      127.326       85.442       70.875    16211.833     7300.329     5023.296        5.472        1.427      283.509       39.881        0.020      336.449        7.756      869.202
05/01/2013  08:34:00      149.082      107.206       70.984      115.880       77.902       72.562    13428.170     6068.668     5265.269        3.175        1.238      183.626       58.916        0.103      336.733        8.231      869.208
05/01/2013  08:35:00      239.534      149.975       44.309      119.524      105.912       73.783    14286.047    11217.386     5443.909        5.638        1.547      282.611       33.498        0.014      336.561        7.944      869.218
05/01/2013  08:36:00      294.422      159.119       61.447      109.438      113.847       82.748    11976.645    12961.165     6847.165        7.378        1.589      334.669       50.378        0.023      336.339        7.570      869.217
05/01/2013  08:37:00      206.970      111.498       35.215      101.329      103.493       87.724    10267.567    10710.826     7695.562        4.259        1.434      235.092       52.925        0.051      336.475        7.798      869.231
05/01/2013  08:38:00      151.528      101.480      119.247      118.247      105.488       93.868    13982.427    11127.699     8811.133        4.069        1.696      182.370       79.840        0.192      336.570        7.957      869.235
05/01/2013  08:39:00      105.398      137.555       85.007      108.482       94.659      104.796    11768.437     8960.384    10982.269        3.448        1.586      173.292       71.165        0.169      336.666        8.119      869.228
05/01/2013  08:40:00      225.677      136.977       83.305      164.371      133.028       94.169    27017.985    17696.504     8867.812        6.510        2.679      263.994       84.490        0.102      336.665        8.116      869.217
05/01/2013  08:41:00      260.306      164.399       46.891      115.318       89.480       83.240    13298.338     8006.671     6928.908        6.260        1.412      307.874       49.917        0.026      336.556        7.932      869.199
05/01/2013  08:42:00      138.635      118.304      127.174      152.105      102.606       71.094    23136.027    10527.936     5054.300        4.405        1.936      182.251       70.490        0.150      336.780        8.309      869.152
05/01/2013  08:43:00      147.582      215.059      206.348      132.531      106.690       86.747    17564.569    11382.679     7525.110        7.353        1.824      260.827       72.998        0.078      336.541        7.909      869.158
05/01/2013  08:44:00      254.460      127.705       39.279      123.461       98.442       67.600    15242.573     9690.795     4569.824        5.605        1.475      284.708       35.658        0.016      336.591        7.991      869.184
05/01/2013  08:45:00      270.609      154.504       48.477      103.727       78.661       68.045    10759.248     6187.492     4630.129        6.051        1.079      311.610       36.183        0.013      336.548        7.920      869.189
05/01/2013  08:46:00      119.050       83.614       46.086      112.982       90.287       82.752    12764.888     8151.801     6847.886        2.552        1.388      145.479       62.433        0.184      336.955        8.601      869.182
05/01/2013  08:47:00      319.160      218.301       45.884      135.333      102.388      104.896    18314.895    10483.202    11003.274        9.570        1.990      386.676       69.127        0.032      336.566        7.951      869.147
05/01/2013  08:48:00      242.154      123.356       70.515      171.884      112.491      101.914    29543.982    12654.230    10386.468        6.570        2.629      271.764       85.553        0.099      336.652        8.095      869.127
05/01/2013  08:49:00      163.227       93.658       70.965      162.307      105.112       73.528    26343.680    11048.471     5406.432        4.162        2.140      188.189       55.312        0.086      336.904        8.517      869.119
05/01/2013  08:50:00      158.166      134.033      151.295      119.515      105.293       91.894    14283.950    11086.657     8444.567        4.984        1.691      207.319       71.564        0.119      336.686        8.152      869.120
05/01/2013  08:51:00      240.094      161.194       43.407      117.518       95.693       72.815    13810.538     9157.085     5302.071        5.689        1.413      289.186       39.518        0.019      336.719        8.206      869.118
05/01/2013  08:52:00       88.497       34.321       59.567       87.187       87.474       58.317     7601.552     7651.704     3400.907        1.560        0.933       94.919       39.277        0.171      337.208        9.026      869.124
05/01/2013  08:53:00       64.580      -15.701       63.872      107.045       98.253       71.346    11458.543     9653.719     5090.225        1.734        1.310       66.461       57.535        0.749      337.460        9.447      869.118
05/01/2013  08:54:00      195.709      149.369       92.842      138.902      109.143      100.297    19293.864    11912.245    10059.410        5.524        2.063      246.197       91.313        0.138      336.981        8.644      869.121
05/01/2013  08:55:00      318.589      179.662       57.428      155.426      155.209      109.661    24157.240    24089.851    12025.630        9.866        3.014      365.755       53.541        0.021      336.709        8.190      869.093
05/01/2013  08:56:00      117.731       67.511      120.304      131.473      118.672       88.377    17285.119    14083.149     7810.501        3.603        1.959      135.714       88.954        0.430      337.148        8.926      869.086
05/01/2013  08:57:00      194.961      152.926      117.306      154.437      118.182      108.167    23850.634    13966.879    11700.083        6.233        2.476      247.782       93.601        0.143      336.851        8.428      869.067
05/01/2013  08:58:00      159.944       83.733       72.204      120.191      108.920       79.766    14445.971    11863.602     6362.625        3.523        1.634      180.536       59.381        0.108      336.927        8.554      869.075
05/01/2013  08:59:00      208.693      148.086       40.808      113.827       98.835       85.663    12956.473     9768.281     7338.164        4.860        1.503      255.895       40.280        0.025      336.981        8.644      869.085
05/01/2013  09:00:00      108.106      100.656       71.987       76.278      113.753       74.580     5818.277    12939.753     5562.111        2.566        1.216      147.711       70.369        0.227      337.337        9.241      869.113
05/01/2013  09:01:00      134.223       11.762       17.495       90.572      100.798       76.418     8203.331    10160.150     5839.695        2.133        1.210      134.737       56.188        0.174      337.400        9.347      869.133
05/01/2013  09:02:00      272.551      166.184       57.963      111.557      105.553       98.493    12445.059    11141.424     9700.827        6.927        1.664      319.220       69.167        0.047      336.978        8.639      869.133
05/01/2013  09:03:00      206.679      191.382      128.704      164.702      120.385      114.417    27126.896    14492.431    13091.144        7.530        2.736      281.680      104.247        0.137      336.940        8.574      869.142
05/01/2013  09:04:00      170.876      160.482      181.370      132.574      155.454      121.609    17575.962    24165.865    14788.834        7.218        2.827      234.421      117.306        0.250      336.903        8.514      869.112
05/01/2013  09:05:00      213.024      173.737      179.283      157.005      137.853      118.793    24650.538    19003.491    14111.889        8.272        2.888      274.889       93.730        0.116      336.861        8.444      869.121
05/01/2013  09:06:00       64.350       49.854       75.373       86.219       78.444       70.685     7433.759     6153.441     4996.440        1.544        0.929       81.403       64.975        0.637      337.219        9.044      869.125
05/01/2013  09:07:00       33.272       17.570       24.767       68.576       49.349       47.114     4702.604     2435.283     2219.771        0.569        0.468       37.626       29.214        0.603      337.630        9.733      869.131
05/01/2013  09:08:00      160.161       81.268       37.844      137.372       81.847       63.690    18871.187     6698.987     4056.361        3.165        1.481      179.600       43.114        0.058      337.684        9.823      869.141
05/01/2013  09:09:00      287.501      186.994      141.683      166.098      137.285      106.612    27588.410    18847.237    11366.187        9.774        2.890      342.963       87.973        0.066      336.882        8.477      869.145
05/01/2013  09:10:00      228.276      153.037       97.460      162.870       80.706       95.696    26526.785     6513.473     9157.785        6.360        2.110      274.828       88.230        0.103      336.929        8.559      869.123
05/01/2013  09:11:00      165.690      156.886      170.611      143.697      137.615      120.751    20648.809    18937.853    14580.722        6.766        2.708      228.180      103.693        0.207      337.165        8.952      869.127
05/01/2013  09:12:00       84.497      126.802      153.652      148.678       98.603       83.578    22105.185     9722.481     6985.352        4.281        1.941      152.376       84.705        0.309      337.222        9.048      869.150
05/01/2013  09:13:00      212.272      138.389       75.646      122.148      100.699       87.814    14920.167    10140.239     7711.268        5.135        1.639      253.399       71.772        0.080      337.065        8.784      869.161
05/01/2013  09:14:00      269.392      226.418       63.007      157.948       92.448       94.215    24947.608     8546.578     8876.427        8.508        2.119      351.905       84.112        0.057      337.293        9.167      869.166
05/01/2013  09:15:00      167.237      -60.931       72.122      125.720      181.439      102.938    15805.477    32920.220    10596.249        4.809        2.966      177.991      121.874        0.469      337.393        9.335      869.171
05/01/2013  09:16:00      164.354       97.853       88.950      114.605      134.724       91.409    13134.280    18150.550     8355.524        4.206        1.982      191.279       69.121        0.131      337.387        9.325      869.172
05/01/2013  09:17:00      482.445      293.947       81.327      136.489      104.280       96.515    18629.128    10874.421     9315.136       18.229        1.941      564.941       61.715        0.012      336.963        8.615      869.158
05/01/2013  09:18:00      280.011      104.283      124.007      167.805      144.031      117.002    28158.486    20745.042    13689.429        8.361        3.130      298.800       95.117        0.101      337.220        9.045      869.166
05/01/2013  09:19:00      202.676      132.428      120.467      155.862      150.218      108.402    24293.031    22565.593    11750.897        6.586        2.930      242.105       99.044        0.167      337.418        9.375      869.169
05/01/2013  09:20:00      250.322      200.454      123.386      152.215      123.260      114.356    23169.421    15192.925    13077.320        8.474        2.572      320.691       91.453        0.081      337.199        9.009      869.160
05/01/2013  09:21:00      263.534      132.843       66.677      136.454      101.164       84.335    18619.638    10234.176     7112.406        6.375        1.798      295.123       50.189        0.029      337.467        9.459      869.176
05/01/2013  09:22:00      107.661      133.966      129.817      143.199      115.410      106.018    20505.925    13319.408    11239.879        4.572        2.253      171.866       89.720        0.273      337.421        9.383      869.176
05/01/2013  09:23:00      249.509      116.420       79.671      177.582      117.865      120.504    31535.512    13892.081    14521.260        7.104        2.997      275.333       69.910        0.064      337.364        9.284      869.194
05/01/2013  09:24:00      216.033      141.286       62.717      160.412      104.009       87.559    25732.113    10817.949     7666.572        5.738        2.211      258.132       71.363        0.076      337.422        9.383      869.216
05/01/2013  09:25:00      221.621       96.159       72.461      168.642      117.260      110.096    28440.245    13749.902    12121.070        5.895        2.716      241.583       74.209        0.094      337.174        8.968      869.193
05/01/2013  09:26:00      246.379      171.679       96.786      135.519      103.556       98.386    18365.510    10723.772     9679.749        6.915        1.938      300.294       73.348        0.060      337.358        9.274      869.217
05/01/2013  09:27:00      132.794       93.825       47.034      119.589       88.256       55.099    14301.535     7789.159     3035.912        2.688        1.256      162.596       42.018        0.067      337.702        9.852      869.187
05/01/2013  09:28:00      115.836       97.360      107.588      135.509       84.580       80.014    18362.795     7153.818     6402.268        3.319        1.596      151.317       60.722        0.161      337.801       10.019      869.173
05/01/2013  09:29:00      206.399      164.685      128.615      205.845      143.412      117.462    42372.352    20567.009    13797.239        8.148        3.837      264.048      105.768        0.160      337.554        9.603      869.149
05/01/2013  09:30:00      314.630      201.602       81.765      170.766      126.083       77.414    29160.922    15897.037     5992.899        9.868        2.553      373.679       56.075        0.023      337.068        8.791      869.172
05/01/2013  09:31:00      247.970      157.282      116.999      174.163      126.984      118.866    30332.708    16124.873    14129.220        8.024        3.029      293.643      108.923        0.138      337.301        9.180      869.177
05/01/2013  09:32:00      256.330      176.949      103.364      149.806      115.769      120.197    22441.987    13402.374    14447.319        7.899        2.515      311.474       97.770        0.099      337.247        9.089      869.188
05/01/2013  09:33:00      351.029      178.846      108.979      159.693      156.215      126.130    25501.747    24403.260    15908.897       11.644        3.291      393.964       91.352        0.054      337.136        8.903      869.190
05/01/2013  09:34:00      305.954      134.711       85.435      160.800      110.612      116.278    25856.707    12234.951    13520.619        8.532        2.581      334.298      100.502        0.090      337.346        9.256      869.178
05/01/2013  09:35:00      309.612      132.685       35.966      156.839      124.050       87.331    24598.581    15388.508     7626.685        8.118        2.381      336.845       63.629        0.036      337.414        9.369      869.208
05/01/2013  09:36:00      238.924      164.950       59.051      163.856      102.422       99.413    26848.803    10490.268     9882.946        6.749        2.361      290.333       75.629        0.068      337.654        9.770      869.206
05/01/2013  09:37:00      261.229      206.169      157.114      168.429      147.977      127.066    28368.357    21897.180    16145.732       10.091        3.321      332.786      101.732        0.093      337.411        9.365      869.207
05/01/2013  09:38:00      123.538      143.411      163.868      131.879      104.440       97.704    17392.171    10907.667     9546.075        5.026        1.892      189.284       84.933        0.201      337.524        9.553      869.200
05/01/2013  09:39:00      252.314      194.129       86.077      205.213      131.820       90.166    42112.186    17376.470     8129.892        8.817        3.381      318.353       83.765        0.069      337.673        9.804      869.197
05/01/2013  09:40:00      271.764      180.516       16.308      152.454      100.332       79.609    23242.129    10066.462     6337.560        7.317        1.982      326.254       20.897        0.004      337.578        9.644      869.236
05/01/2013  09:41:00      293.959      174.471       21.659      154.647      112.248       67.603    23915.794    12599.642     4570.114        7.919        2.054      341.836       54.000        0.025      337.481        9.482      869.237
05/01/2013  09:42:00      200.448      142.513      142.364      174.511      128.298      127.499    30453.984    16460.478    16255.970        7.195        3.159      245.946      100.524        0.167      337.646        9.756      869.210
05/01/2013  09:43:00      176.260      169.408      193.014      136.280      113.010       83.049    18572.370    12771.316     6897.163        6.762        1.912      244.472       76.659        0.098      337.409        9.359      869.227
05/01/2013  09:44:00      157.332      140.565      100.604      128.491      132.178      108.276    16509.993    17470.958    11723.728        5.016        2.285      210.978       76.099        0.130      337.683        9.822      869.218
05/01/2013  09:45:00      179.382      188.577      152.002      189.564      109.777      121.928    35934.564    12051.021    14866.378        7.683        3.143      260.268      117.822        0.205      337.643        9.753      869.223
05/01/2013  09:46:00      251.035      120.159       44.842      180.470      132.794       96.469    32569.463    17634.268     9306.274        6.948        2.976      278.310       75.621        0.074      337.393        9.334      869.228
05/01/2013  09:47:00      331.348      219.099       67.287      148.771      137.914      113.692    22132.848    19020.309    12925.975       10.819        2.704      397.235       66.909        0.028      337.339        9.244      869.210
05/01/2013  09:48:00      164.120      104.777       34.580      126.083      102.231      100.300    15897.000    10451.101    10060.069        3.775        1.820      194.714       30.504        0.025      337.689        9.831      869.175
05/01/2013  09:49:00      258.432      168.362       72.230      140.116      120.874      103.623    19632.539    14610.509    10737.759        7.266        2.249      308.437       65.916        0.046      337.909       10.198      869.210
05/01/2013  09:50:00      267.299      167.154      142.064      170.260      139.894      138.067    28988.593    19570.323    19062.623        9.358        3.381      315.261      113.299        0.129      337.867       10.128      869.191
05/01/2013  09:51:00      313.630      137.324      173.749      201.647      198.281      142.633    40661.446    39315.313    20344.298       12.385        5.016      342.377      130.525        0.145      337.358        9.275      869.187
05/01/2013  09:52:00      291.952      161.799      118.217      199.823      149.504      144.190    39929.394    22351.303    20790.816       10.421        4.154      333.789      129.849        0.151      337.562        9.617      869.172
05/01/2013  09:53:00      161.693      131.128      170.809      171.012      171.068      128.066    29244.950    29264.358    16401.028        7.370        3.746      208.181      121.906        0.343      337.838       10.079      869.154
05/01/2013  09:54:00      192.254      158.273      115.031      166.475      121.146       98.429    27714.003    14676.426     9688.268        6.365        2.604      249.022       60.560        0.059      337.978       10.315      869.161
05/01/2013  09:55:00      186.976      151.312      157.890      160.602      132.231       98.566    25793.112    17485.089     9715.332        6.788        2.650      240.531       89.140        0.137      337.844       10.090      869.172
05/01/2013  09:56:00      178.189      158.235      141.276      154.778      111.150      110.166    23956.126    12354.332    12136.511        6.259        2.422      238.306      111.265        0.218      337.777        9.976      869.162
05/01/2013  09:57:00      187.561       -3.675       60.971      175.740      146.408       80.327    30884.554    21435.396     6452.412        4.883        2.939      187.597       73.280        0.153      338.103       10.524      869.171
05/01/2013  09:58:00      327.791      194.064      138.297      174.384      138.405      128.581    30409.780    19155.936    16533.009       11.515        3.305      380.930       85.645        0.051      337.791       10.000      869.165
05/01/2013  09:59:00      192.420      122.282      189.552      200.568      221.393      136.166    40227.324    49014.726    18541.064        9.782        5.389      227.988      157.790        0.479      337.769        9.963      869.150
05/01/2013  10:00:00      189.637       44.509      150.419      144.146      157.548      114.546    20778.125    24821.218    13120.802        5.963        2.936      194.790      106.298        0.298      337.765        9.957      869.142
05/01/2013  10:01:00      233.378      239.255      206.292      201.270      174.059      143.061    40509.509    30296.555    20466.442       12.275        4.564      334.228      120.878        0.131      337.714        9.870      869.106
05/01/2013  10:02:00      191.775      173.409      139.981      140.389      114.384       95.237    19709.067    13083.638     9070.160        6.414        2.093      258.550       94.862        0.135      337.780        9.981      869.117
05/01/2013  10:03:00      144.588      132.702      110.470      151.642      119.047       87.631    22995.402    14172.133     7679.141        4.777        2.242      196.254       77.742        0.157      338.184       10.660      869.113
05/01/2013  10:04:00      292.052      158.851      101.867      188.773      144.019      121.239    35635.392    20741.406    14698.941        9.598        3.554      332.458       85.169        0.066      337.959       10.282      869.100
05/01/2013  10:05:00      226.788      141.074      113.535      205.438      153.677      114.378    42204.972    23616.730    13082.311        8.155        3.945      267.086       90.988        0.116      338.061       10.454      869.097
05/01/2013  10:06:00      109.697       35.324      142.095      184.421      224.493      149.850    34011.288    50396.893    22454.934        7.015        5.343      115.244      165.788        2.070      338.027       10.398      869.120
05/01/2013  10:07:00      201.391     -187.059       19.457      109.462      173.640      111.854    11981.915    30150.906    12511.247        6.527        2.732      274.862      109.060        0.157      338.137       10.581      869.084
05/01/2013  10:08:00      175.243      -47.748       84.290      149.917      212.823      132.209    22475.095    45293.577    17479.245        6.265        4.262      181.632      150.241        0.684      338.143       10.592      869.095
05/01/2013  10:09:00      160.372       67.439       68.710      181.434      123.576       80.226    32918.121    15270.947     6436.155        4.480        2.731      173.975       59.532        0.117      338.371       10.976      869.121
05/01/2013  10:10:00      204.618      159.471      104.467      194.284      120.271      108.498    37746.301    14465.029    11771.922        7.108        3.199      259.421      111.791        0.186      338.119       10.550      869.142
05/01/2013  10:11:00      214.512      130.881       88.938      167.442       85.512       77.926    28036.658     7312.354     6072.416        5.623        2.071      251.287       69.422        0.076      338.002       10.354      869.160
05/01/2013  10:12:00      129.935      161.028      165.562      126.231      131.226      113.243    15934.265    17220.295    12823.952        5.809        2.299      206.913       98.784        0.228      338.087       10.498      869.167
05/01/2013  10:13:00      169.300      142.403      150.923      153.627      159.188      100.843    23601.377    25340.796    10169.386        6.540        2.956      221.226       95.593        0.187      338.117       10.549      869.161
05/01/2013  10:14:00      277.032      126.181      109.665      238.026      180.904      138.181    56656.448    32726.302    19093.906       10.656        5.424      304.415       97.780        0.103      337.888       10.163      869.150
05/01/2013  10:15:00      252.206      140.661      157.777      201.789      161.374      122.158    40719.001    26041.505    14922.583        9.497        4.084      288.779      123.299        0.182      338.061       10.453      869.178
05/01/2013  10:16:00      347.990      179.169      124.634      198.904      170.698      130.569    39562.865    29137.951    17048.355       12.722        4.287      391.406       95.216        0.059      337.896       10.175      869.188
05/01/2013  10:17:00      281.345      153.744       64.241      212.781      149.750      112.674    45275.870    22425.188    12695.534        9.364        4.020      320.612       86.320        0.072      338.111       10.538      869.250
05/01/2013  10:18:00      134.034      173.101      161.631      122.040      114.936       91.568    14893.737    13210.221     8384.697        5.526        1.824      218.927       75.471        0.119      338.051       10.435      869.258
05/01/2013  10:19:00      177.757      194.909      149.922      163.388      111.621      107.231    26695.656    12459.194    11498.527        7.135        2.533      263.793      110.279        0.175      337.936       10.244      869.241
05/01/2013  10:20:00      422.903      259.188       66.414      163.274      163.205      117.088    26658.528    26635.888    13709.540       15.871        3.350      496.009       74.099        0.022      337.812       10.034      869.249
05/01/2013  10:21:00      263.025      120.759       44.891      203.358      178.867      149.910    41354.527    31993.256    22473.061        9.078        4.791      289.422       96.284        0.111      337.894       10.173      869.240
05/01/2013  10:22:00      289.565      122.628       59.319      159.966      128.230       86.207    25589.085    16442.831     7431.695        7.592        2.473      314.461       37.477        0.014      337.822       10.053      869.280
05/01/2013  10:23:00      261.813      159.532       45.666      153.100      110.733       99.193    23439.507    12261.754     9839.245        7.080        2.277      306.589       61.136        0.040      337.998       10.349      869.274
05/01/2013  10:24:00      341.199      197.172       63.843      171.396      113.190      108.788    29376.471    12811.984    11834.911       10.669        2.701      394.074       50.919        0.017      338.154       10.609      869.318
05/01/2013  10:25:00      346.364      176.120       78.441      164.416      128.269      108.819    27032.769    16453.039    11841.641       10.622        2.766      388.569       73.803        0.036      337.841       10.085      869.336
05/01/2013  10:26:00      239.299      174.058      102.549      173.801      127.782      122.677    30206.897    16328.317    15049.661        7.982        3.079      295.906      107.643        0.132      338.197       10.681      869.365
05/01/2013  10:27:00      144.870      129.777      152.744      152.680      107.176       84.761    23311.164    11486.669     7184.436        5.156        2.099      194.498       84.622        0.189      338.154       10.610      869.406
05/01/2013  10:28:00      132.430       82.610       92.266      104.658       95.759       66.015    10953.343     9169.826     4358.027        2.867        1.224      156.084       37.226        0.057      338.468       11.137      869.418
05/01/2013  10:29:00      141.776       29.104       20.242      137.878       83.986       81.757    19010.480     7053.619     6684.189        2.705        1.637      144.732       69.645        0.232      338.271       10.808      869.403
05/01/2013  10:30:00      316.881      228.505       60.629      177.419      119.232      125.495    31477.590    14216.155    15749.017       10.886        3.072      390.676       73.739        0.036      338.157       10.616      869.389
05/01/2013  10:31:00      439.870      260.651       40.343      129.929      124.918       87.473    16881.516    15604.451     7651.512       15.159        2.007      511.297       59.485        0.014      337.843       10.088      869.339
05/01/2013  10:32:00      249.761      123.502       36.868      162.766      118.280       87.970    26492.895    13990.090     7738.787        6.360        2.411      278.628       62.586        0.050      338.322       10.893      869.354
05/01/2013  10:33:00      336.369      266.747      164.760      194.879      137.493      138.756    37977.762    18904.283    19253.284       14.377        3.807      429.299      122.068        0.081      338.323       10.893      869.377
05/01/2013  10:34:00      207.560        6.868      109.952      169.209      204.083      132.944    28631.662    41649.996    17673.999        7.157        4.398      207.673      135.559        0.426      338.648       11.438      869.399
05/01/2013  10:35:00       98.173      -45.413      128.814      131.984      205.271      118.318    17419.714    42136.283    13999.072        5.091        3.678      108.168      136.250        1.587      338.681       11.496      869.400
05/01/2013  10:36:00      159.682      -17.542       89.137      181.364      208.447      151.043    32892.966    43450.165    22813.846        6.643        4.958      160.643      162.328        1.021      338.493       11.179      869.416
05/01/2013  10:37:00      103.916       -1.080       73.778      118.163      162.656       95.067    13962.531    26456.984     9037.826        3.284        2.473      103.922       93.337        0.807      338.455       11.117      869.442
05/01/2013  10:38:00       64.306       71.659      141.141      122.364      175.022      119.818    14972.829    30632.687    14356.363        4.456        2.998       96.282      127.110        1.743      338.929       11.913      869.448
05/01/2013  10:39:00      150.915       29.259      176.752      161.155      257.176      188.539    25970.803    66139.732    35547.080        9.124        6.383      153.725      209.619        1.859      338.505       11.199      869.453
05/01/2013  10:40:00      180.940       24.707      124.365      127.798      201.487      140.041    16332.408    40596.814    19611.599        6.266        3.827      182.619      144.374        0.625      338.447       11.100      869.482
05/01/2013  10:41:00      125.449       -3.371       82.325      113.955      204.419      102.924    12985.798    41786.951    10593.414        4.393        3.268      125.494      121.852        0.943      338.604       11.367      869.494
05/01/2013  10:42:00      176.339      -39.260       87.577      143.525      186.858      109.940    20599.440    34915.857    12086.696        5.394        3.380      180.656      110.497        0.374      338.548       11.271      869.501
05/01/2013  10:43:00       95.844       70.039      128.825      116.215      123.653       93.646    13505.854    15290.037     8769.647        3.412        1.878      118.708       96.338        0.659      338.803       11.701      869.490
05/01/2013  10:44:00       50.852       25.350      136.702      122.257      180.530      105.600    14946.892    32591.163    11151.330        4.029        2.934       56.821      121.488        4.571      339.034       12.089      869.458
05/01/2013  10:45:00      221.396       68.807      132.294      259.235      295.799      159.114    67202.547    87497.068    25317.333       12.560        9.001      231.842      153.209        0.437      338.820       11.730      869.412
05/01/2013  10:46:00      193.706      116.930      122.566      174.601      185.117      124.459    30485.561    34268.254    15490.145        7.321        4.012      226.262      110.865        0.240      338.580       11.325      869.474
05/01/2013  10:47:00      169.286       87.379      122.847      157.009      137.765      109.195    24651.973    18979.300    11923.615        5.346        2.778      190.507       93.976        0.243      338.562       11.295      869.512
05/01/2013  10:48:00      192.524       23.315       83.273      151.145      206.065       98.858    22844.948    42462.881     9772.850        5.980        3.754      193.931       94.658        0.238      338.482       11.161      869.531
05/01/2013  10:49:00      281.599       -4.844       93.209      231.404      215.824      136.084    53548.024    46579.960    18518.990       10.330        5.932      281.641      140.819        0.250      338.613       11.382      869.542
05/01/2013  10:50:00      221.221      153.210      135.724      156.739      151.891      132.835    24567.193    23070.953    17645.227        7.804        3.264      269.095       90.567        0.113      338.467       11.136      869.572
05/01/2013  10:51:00       59.176      -27.604       77.518       90.374      138.820       85.314     8167.546    19270.981     7278.529        2.249        1.736       65.297       49.643        0.578      339.128       12.249      869.609
05/01/2013  10:52:00      132.187      100.815      116.080      144.808      115.529       92.434    20969.223    13346.956     8544.014        4.198        2.143      166.244       83.905        0.255      339.001       12.035      869.650
05/01/2013  10:53:00      176.421      -64.085       85.901      150.149      174.626      101.909    22544.867    30494.295    10385.545        5.300        3.171      187.700      116.003        0.382      338.627       11.406      869.624
05/01/2013  10:54:00      136.074       -9.270       83.054      128.717      198.582      125.886    16567.995    39435.000    15847.200        4.866        3.593      136.390      120.761        0.784      338.933       11.919      869.617
05/01/2013  10:55:00      323.226      -42.255      112.902      195.153      224.875      140.613    38084.637    50568.553    19771.965       11.369        5.421      325.976      163.757        0.252      338.370       10.972      869.652
05/01/2013  10:56:00      117.934        8.410      122.565      131.831      157.788      110.733    17379.324    24896.925    12261.741        4.176        2.727      118.234      109.257        0.854      338.767       11.639      869.674
05/01/2013  10:57:00       97.993      111.776      112.697      107.726      118.743       83.413    11604.930    14099.896     6957.683        3.372        1.633      148.649       72.907        0.241      338.405       11.032      869.672
05/01/2013  10:58:00      209.765     -237.900       44.131      152.959      228.182      103.629    23396.314    52067.244    10738.999        9.436        4.310      317.171      105.381        0.110      338.570       11.306      869.642
05/01/2013  10:59:00      154.036     -132.683       69.499      177.980      246.663      134.690    31676.705    60842.567    18141.311        7.839        5.533      203.302      160.291        0.622      338.732       11.581      869.634
05/01/2013  11:00:00      108.901     -168.609      -23.053       74.852       91.667       65.076     5602.819     8402.906     4234.862        2.953        0.912      200.720       41.412        0.043      338.755       11.620      869.727
05/01/2013  11:01:00      188.811     -226.900       22.533      149.153      211.423      102.612    22246.572    44699.886    10529.199        8.254        3.874      295.183      104.241        0.125      338.865       11.806      869.715
05/01/2013  11:02:00      114.621      -97.578       40.603      116.083      160.757       96.770    13475.238    25842.965     9364.476        3.649        2.434      150.531      107.558        0.511      338.840       11.763      869.777
05/01/2013  11:03:00      189.016      132.219      215.594      160.431      227.213      123.797    25738.100    51625.889    15325.722        9.617        4.634      230.670      145.003        0.395      338.545       11.267      869.807
05/01/2013  11:04:00      196.441      150.802      188.263      158.580      186.930      131.797    25147.699    34943.002    17370.390        8.710        3.873      247.649      141.255        0.325      338.405       11.030      869.854
05/01/2013  11:05:00      145.971       80.527      156.066      131.345      164.305      102.184    17251.564    26996.236    10441.490        5.341        2.734      166.710      115.711        0.482      338.348       10.936      869.892
05/01/2013  11:06:00      155.660      216.990      217.024      140.855      102.765      121.517    19840.037    10560.615    14766.485        8.178        2.258      267.048      107.183        0.161      338.413       11.043      869.868
05/01/2013  11:07:00      141.530      175.273      139.731      152.573      107.859       86.037    23278.562    11633.471     7402.286        5.629        2.116      225.281       68.218        0.092      338.345       10.932      869.861
05/01/2013  11:08:00       52.080       -1.324       76.783      135.800      143.684       86.147    18441.646    20645.138     7421.251        2.755        2.325       52.097       89.158        2.929      338.858       11.794      869.868
05/01/2013  11:09:00      166.534       -4.470       72.433      155.717      131.827       75.028    24247.815    17378.262     5629.234        4.012        2.363      166.594       76.128        0.209      338.638       11.424      869.853
05/01/2013  11:10:00       97.632      -82.839       66.891      103.515      151.413      101.749    10715.347    22925.987    10352.859        3.242        2.200      128.040      108.377        0.716      339.030       12.082      869.832
05/01/2013  11:11:00       63.152      -31.353       80.091      120.696      179.749       90.616    14567.543    32309.861     8211.204        3.323        2.754       70.507      109.171        2.397      339.321       12.573      869.814
05/01/2013  11:12:00      189.940       19.888      176.296      191.494      265.026      178.762    36670.029    70238.597    31956.006       10.318        6.943      190.978      210.096        1.210      338.584       11.331      869.817
05/01/2013  11:13:00      171.556       63.508      126.153      117.600      210.397      126.272    13829.821    44266.879    15944.541        6.169        3.702      182.934      146.808        0.644      338.598       11.356      869.853
05/01/2013  11:14:00      216.778     -126.282       90.279      198.108      301.839      160.420    39246.780    91106.870    25734.690       11.356        7.804      250.878      217.742        0.753      338.613       11.381      869.856
05/01/2013  11:15:00      222.724     -152.911       56.079      189.898      186.825      111.447    36061.147    34903.616    12420.421        7.974        4.169      270.163      122.957        0.207      338.662       11.463      869.846
05/01/2013  11:16:00      268.998     -289.777      -36.573      200.403      207.407      122.540    40161.348    43017.715    15015.988       12.791        4.910      395.386      133.469        0.114      338.543       11.264      869.846
05/01/2013  11:17:00      221.982     -244.575       10.465      190.219      196.949      120.008    36183.430    38789.032    14401.862        9.927        4.469      330.292      139.257        0.178      338.581       11.329      869.853
05/01/2013  11:18:00      104.731      -60.407       94.361      113.203      172.814      117.420    12814.975    29864.592    13787.535        3.998        2.823      120.904      119.485        0.977      339.060       12.133      869.878
05/01/2013  11:19:00      192.976       58.982      131.391      153.974      203.545      132.294    23708.076    41430.769    17501.575        7.029        4.132      201.788      132.226        0.429      338.900       11.863      869.877
05/01/2013  11:20:00      196.513      -52.278       97.417      194.696      248.022      153.707    37906.362    61514.709    23625.767        8.692        6.152      203.348      176.369        0.752      339.280       12.502      869.864
05/01/2013  11:21:00      252.950     -189.264       61.301      196.565      228.669      135.786    38637.657    52289.739    18437.794       10.644        5.468      315.919      160.630        0.259      338.823       11.733      869.871
05/01/2013  11:22:00      244.814     -231.678       58.032      219.296      366.033      175.454    48090.847   133980.383    30784.068       16.487       10.643      337.058      249.322        0.547      338.773       11.649      869.822
05/01/2013  11:23:00      175.615     -116.177       79.648      150.947      261.465      147.021    22785.087    68364.146    21615.051        8.170        5.638      210.565      185.024        0.772      338.872       11.815      869.842
05/01/2013  11:24:00       89.406      -92.503       78.856      128.038      165.565       90.523    16393.820    27411.609     8194.462        3.737        2.600      128.648      105.306        0.670      339.299       12.536      869.825
05/01/2013  11:25:00       88.484      143.199      193.237      130.624      138.405      111.091    17062.704    19155.916    12341.284        5.711        2.428      168.331      100.085        0.354      339.303       12.542      869.847
05/01/2013  11:26:00      236.649      180.236      145.898      200.600      135.920      133.804    40240.385    18474.309    17903.586        9.318        3.831      297.469      106.692        0.129      339.068       12.146      869.881
05/01/2013  11:27:00      242.573      135.460      112.346      173.161      161.909      106.532    29984.790    26214.499    11349.087        7.867        3.377      277.833       87.991        0.100      339.174       12.326      869.906
05/01/2013  11:28:00      138.797       66.130       75.728      111.817      101.860       84.327    12503.125    10375.529     7111.123        2.967        1.499      153.745       67.919        0.195      339.154       12.292      869.913
05/01/2013  11:29:00      169.933      152.252      153.665      168.665      181.781      149.709    28448.042    33044.404    22412.822        7.977        4.195      228.162      143.620        0.396      339.135       12.258      869.881
05/01/2013  11:30:00      288.733      282.293      302.986      216.586      214.376      166.207    46909.568    45957.256    27624.735       18.765        6.025      403.803      155.733        0.149      338.492       11.177      869.856
05/01/2013  11:31:00      248.292      182.221      158.337      183.914      147.911      135.211    33824.204    21877.710    18282.070        9.694        3.699      307.983       90.655        0.087      338.690       11.510      869.902
05/01/2013  11:32:00      206.203      228.051      256.571      164.615      152.817      133.283    27098.050    23353.081    17764.304       11.427        3.411      307.452      109.087        0.126      338.970       11.981      869.940
05/01/2013  11:33:00      256.245      301.609      259.902      168.972      143.505      132.196    28551.550    20593.578    17475.829       14.539        3.331      395.764       97.263        0.060      338.762       11.630      869.954
05/01/2013  11:34:00       98.605       67.143      134.072      112.359      155.123      102.096    12624.626    24063.087    10423.514        3.965        2.356      119.295       87.299        0.536      338.958       11.962      869.969
05/01/2013  11:35:00      179.724       38.800      103.881      131.887      200.320      123.980    17394.188    40128.285    15371.109        5.873        3.645      183.865      140.726        0.586      338.703       11.531      869.980
05/01/2013  11:36:00      136.658      -52.113       66.027      137.549      109.700       81.585    18919.622    12033.985     6656.093        3.167        1.880      146.257       70.115        0.230      339.059       12.131      869.988
05/01/2013  11:37:00      101.566       97.181      138.834      112.589      101.756       96.331    12676.267    10354.294     9279.592        3.567        1.616      140.569       74.175        0.278      339.171       12.322      869.986
05/01/2013  11:38:00      135.876      121.708      183.803      152.367      178.055      109.207    23215.603    31703.493    11926.213        6.694        3.342      182.415      111.557        0.374      338.889       11.845      869.970
05/01/2013  11:39:00      103.768       21.586      129.989      101.716      179.151      118.271    10346.196    32094.962    13987.966        4.227        2.821      105.990      127.785        1.454      338.991       12.018      869.956
05/01/2013  11:40:00       74.597       12.580      126.047       97.889      159.324       86.251     9582.197    25384.226     7439.150        3.200        2.120       75.650       87.194        1.328      339.331       12.588      869.936
05/01/2013  11:41:00      248.259     -297.299      -11.716      176.537      192.121      117.132    31165.192    36910.472    13719.848       11.596        4.090      387.323      132.150        0.116      338.838       11.761      869.915
05/01/2013  11:42:00      301.499     -246.243       -1.927      215.913      221.086      133.555    46618.418    48878.823    17836.919       13.241        5.667      389.278      131.465        0.114      339.009       12.047      869.911
05/01/2013  11:43:00      245.615     -233.894       62.737      180.965      320.518      157.660    32748.171   102731.977    24856.630       13.962        8.017      339.166      214.624        0.400      338.741       11.596      869.922
05/01/2013  11:44:00      243.650     -173.834       75.542      204.200      323.267      158.962    41697.644   104501.629    25268.907       13.334        8.573      299.305      211.610        0.500      338.807       11.708      869.901
05/01/2013  11:45:00      187.308        9.165      150.546      196.805      275.758      169.013    38732.373    76042.624    28565.495       10.056        7.167      187.532      193.106        1.060      339.051       12.118      869.917
05/01/2013  11:46:00      218.918        7.777      144.581      206.577      211.823      114.360    42674.227    44868.959    13078.187        8.473        5.031      219.056      133.915        0.374      339.183       12.340      869.946
05/01/2013  11:47:00      244.663      150.569      122.469      154.190      123.120      115.620    23774.575    15158.468    13368.025        7.490        2.615      287.282      103.354        0.129      338.858       11.793      869.916
05/01/2013  11:48:00       34.519       63.519       94.918       87.798      107.270       78.162     7708.512    11506.809     6109.297        1.977        1.266       72.292       64.526        0.797      339.674       13.169      869.937
05/01/2013  11:49:00      174.827     -245.850       16.375      148.184      222.941      118.110    21958.492    49702.582    13949.891        8.843        4.281      301.673      131.213        0.189      339.270       12.486      869.942
05/01/2013  11:50:00      266.601     -198.382       25.055      174.827      236.727      116.269    30564.560    56039.440    13518.554       10.557        5.006      332.312      146.716        0.195      339.036       12.092      869.952
05/01/2013  11:51:00       99.709      137.564      205.674      130.886      236.745      137.060    17131.206    56048.417    18785.469        8.155        4.598      169.900      162.790        0.918      339.112       12.219      869.940
05/01/2013  11:52:00      248.726     -345.136      -66.664      152.495      141.844       79.710    23254.806    20119.817     6353.752       11.757        2.486      425.422       79.560        0.035      338.793       11.683      869.916
05/01/2013  11:53:00      141.388     -206.119       -6.760      137.181      184.719      100.918    18818.655    34120.990    10184.461        6.281        3.156      249.951       94.118        0.142      339.037       12.095      869.915
05/01/2013  11:54:00      199.925      -58.046       95.390      179.380      282.877      174.936    32177.090    80019.177    30602.617        9.759        7.140      208.181      207.920        0.997      339.254       12.459      869.913
05/01/2013  11:55:00       59.706      -34.498      118.450      132.650      172.753      106.771    17596.112    29843.511    11399.964        3.880        2.942       68.956      111.960        2.636      339.443       12.778      869.905
05/01/2013  11:56:00      142.151     -163.554       30.569      134.412      205.309       99.923    18066.633    42151.956     9984.663        5.903        3.510      216.695      123.651        0.326      339.609       13.056      869.900
05/01/2013  11:57:00      141.482     -169.321       54.232      205.838      219.596      140.160    42369.304    48222.209    19644.864        8.091        5.512      220.651      160.058        0.526      339.431       12.757      869.909
05/01/2013  11:58:00      194.117      -24.224       81.808      157.847      227.940      134.094    24915.694    51956.802    17981.187        6.989        4.743      195.622      146.199        0.559      339.581       13.010      869.922
05/01/2013  11:59:00      109.755     -118.145       39.016      135.207      188.806      100.929    18280.951    35647.729    10186.708        4.581        3.206      161.259      110.474        0.469      339.615       13.067      869.910
05/01/2013  12:00:00      184.223      125.257      100.392      124.269      120.634       91.433    15442.807    14552.480     8359.968        4.902        1.918      222.772       75.381        0.114      339.061       12.135      869.907
05/01/2013  12:01:00       97.766      104.007      114.827      158.293      131.501      113.095    25056.744    17292.397    12790.500        4.434        2.757      142.743      100.262        0.493      339.492       12.861      869.901
05/01/2013  12:02:00      284.289      189.916      174.544      212.726      173.341      159.395    45252.217    30047.255    25406.627       12.401        5.035      341.890      147.240        0.185      339.352       12.623      869.817
05/01/2013  12:03:00      196.114      122.224      103.919      172.911      199.247      143.311    29898.246    39699.285    20538.005        7.715        4.507      231.083      137.835        0.356      339.397       12.700      869.851
05/01/2013  12:04:00       53.349      112.321      160.703      103.519      131.816       90.288    10716.165    17375.512     8151.846        3.876        1.812      124.347       67.598        0.296      339.954       13.639      869.861
05/01/2013  12:05:00      122.236       98.794      168.678      116.132      196.959      127.290    13486.560    38792.672    16202.701        6.081        3.424      157.168      142.369        0.821      339.839       13.445      869.838
05/01/2013  12:06:00      194.478      113.220      171.816      175.592      156.773      114.170    30832.482    24577.640    13034.690        7.429        3.422      225.035      105.678        0.221      339.461       12.807      869.849
05/01/2013  12:07:00      230.468      113.488      126.640      177.389      135.763      118.149    31466.926    18431.664    13959.216        7.293        3.193      256.895      106.351        0.171      339.707       13.223      869.873
05/01/2013  12:08:00      403.256      269.900       64.716      230.165      135.941      121.110    52976.006    18479.851    14667.650       16.287        4.306      485.243       76.146        0.025      339.022       12.068      869.881
05/01/2013  12:09:00      117.531        5.259       84.772      120.914      147.719       70.747    14620.265    21820.858     5005.111        3.123        2.072      117.649       55.654        0.224      339.676       13.170      869.891
05/01/2013  12:10:00      122.908      121.489      121.511      122.331       92.253       85.474    14964.907     8510.541     7305.833        3.770        1.539      172.818       82.369        0.227      339.650       13.126      869.881
05/01/2013  12:11:00      211.076     -127.045       57.222      159.361      143.972       99.757    25395.910    20727.917     9951.376        6.001        2.804      246.361       84.431        0.117      339.680       13.177      869.863
05/01/2013  12:12:00      279.865       34.269       -0.047      151.979      244.401      100.631    23097.576    59731.830    10126.620        8.621        4.648      281.956       68.364        0.059      339.549       12.955      869.818
05/01/2013  12:13:00      275.395      208.363       29.026      160.647      128.579      118.768    25807.436    16532.573    14105.777        8.826        2.822      345.337       93.831        0.074      338.968       11.978      869.875
05/01/2013  12:14:00      142.878      101.131       41.992      117.404      115.345       83.791    13783.754    13304.532     7020.891        3.325        1.705      175.047       56.886        0.106      339.356       12.631      869.856
05/01/2013  12:15:00       35.044       45.093      119.400      114.007      145.096      110.418    12997.683    21052.909    12192.162        3.187        2.312       57.110      104.511        3.349      339.750       13.295      869.859
05/01/2013  12:16:00      263.788       11.777       62.170      193.717      244.320      129.394    37526.453    59692.243    16742.856        9.376        5.698      264.051      128.353        0.236      339.573       12.995      869.832
05/01/2013  12:17:00      190.153      133.234      162.427      171.911      152.200      118.586    29553.232    23164.855    14062.635        7.353        3.339      232.184      107.351        0.214      339.569       12.990      869.850
05/01/2013  12:18:00      143.336      159.941      199.308      142.796      179.311      132.651    20390.831    32152.434    17596.371        7.798        3.507      214.771      140.172        0.426      339.644       13.116      869.899
05/01/2013  12:19:00      346.060      218.408      122.015      146.584      118.724      126.955    21486.840    14095.312    16117.658       11.702        2.585      409.219       94.011        0.053      339.519       12.904      869.916
05/01/2013  12:20:00      391.661      166.469       67.548      215.188      174.095      146.599    46305.723    30309.082    21491.395       14.187        4.905      425.570      110.268        0.067      339.117       12.229      869.881
05/01/2013  12:21:00      144.414       98.681       90.469      135.309      112.202       75.707    18308.516    12589.179     5731.589        3.770        1.831      174.910       67.751        0.150      339.436       12.765      869.879
05/01/2013  12:22:00      200.222      171.671      168.976      135.772      115.246      107.397    18434.030    13281.755    11534.152        7.067        2.162      263.742       96.861        0.135      339.451       12.789      869.856
05/01/2013  12:23:00      109.479      100.586      140.715      137.617      175.493      121.646    18938.487    30797.776    14797.812        5.321        3.227      148.672      122.388        0.678      339.748       13.291      869.805
05/01/2013  12:24:00      259.118      289.645      254.342      196.968      169.624      135.482    38796.327    28772.262    18355.480       15.081        4.296      388.634      107.294        0.076      339.438       12.769      869.802
05/01/2013  12:25:00      293.701      139.176      153.402      231.960      187.330      152.760    53805.218    35092.406    23335.502       12.068        5.612      325.008      149.976        0.213      339.354       12.626      869.809
05/01/2013  12:26:00      245.260      219.090      255.683      143.538      142.038      115.527    20603.224    20174.852    13346.428       11.382        2.706      328.866       82.876        0.064      339.423       12.743      869.828
05/01/2013  12:27:00      250.464      277.740      273.960      202.159      199.297      161.741    40868.253    39719.262    26160.141       16.082        5.337      373.994      142.440        0.145      339.216       12.394      869.846
05/01/2013  12:28:00      232.650      167.786      127.834      163.688      145.288      117.764    26793.910    21108.618    13868.292        8.018        3.089      286.842      101.581        0.125      339.427       12.749      869.910
05/01/2013  12:29:00      279.547       96.124       83.441      177.553      162.360      113.587    31525.137    26360.625    12902.003        8.256        3.539      295.611       87.877        0.088      339.442       12.775      869.943
05/01/2013  12:30:00      330.275      137.103       41.137      152.829      126.526       92.841    23356.706    16008.947     8619.395        8.877        2.399      357.601       71.121        0.040      339.087       12.176      869.936
05/01/2013  12:31:00      215.597      106.120      124.156      183.806      145.114      128.326    33784.792    21057.935    16467.672        7.222        3.566      240.298      117.468        0.239      339.611       13.060      869.915
05/01/2013  12:32:00      311.711      163.101       92.957      186.404      156.838      126.729    34746.485    24598.175    16060.273       10.389        3.770      351.803      113.743        0.105      339.476       12.833      869.942
05/01/2013  12:33:00      198.517      101.975       43.488      144.441       98.560       80.587    20863.227     9714.029     6494.229        4.438        1.854      223.177       51.175        0.053      339.423       12.743      869.940
05/01/2013  12:34:00      233.984       -0.923      100.245      180.727      227.055      127.464    32662.281    51553.899    16247.096        8.261        5.023      233.985      110.873        0.225      339.667       13.154      869.865
05/01/2013  12:35:00      126.571      -11.198       85.366      135.202      161.442       79.533    18279.581    26063.680     6325.508        3.704        2.533      127.066       62.591        0.243      340.066       13.829      869.903
05/01/2013  12:36:00      268.670       -6.130       99.855      255.241      166.485      107.513    65147.871    27717.197    11559.018        9.329        5.221      268.740      104.102        0.150      339.689       13.191      869.947
05/01/2013  12:37:00      214.904       28.282       74.395      160.918      176.222       92.273    25894.512    31054.321     8514.301        5.898        3.273      216.757      103.296        0.227      339.458       12.802      869.947
05/01/2013  12:38:00      116.916       58.787      124.287      159.832      187.163      124.649    25546.403    35030.137    15537.311        5.433        3.806      130.863      118.850        0.825      339.825       13.423      869.894
05/01/2013  12:39:00      245.271      261.304      272.126      179.734      197.296      152.097    32304.339    38925.818    23133.439       14.841        4.718      358.382      130.340        0.132      339.263       12.475      869.910
05/01/2013  12:40:00      224.013      161.092       89.074      180.305      111.124      122.511    32509.741    12348.491    15008.886        7.196        2.993      275.921      109.141        0.156      339.664       13.148      869.963
05/01/2013  12:41:00      179.029      116.533      105.822      164.816      118.463      119.974    27164.305    14033.384    14393.807        5.620        2.780      213.615      114.491        0.287      339.579       13.005      869.970
05/01/2013  12:42:00      191.325      154.891       99.969      150.687      139.680      124.137    22706.655    19510.487    15409.886        6.410        2.881      246.163      105.700        0.184      339.730       13.260      869.949
05/01/2013  12:43:00      119.632       95.536      143.678      123.655      140.612       94.227    15290.629    19771.820     8878.730        4.400        2.197      153.098       96.202        0.395      339.798       13.376      869.982
05/01/2013  12:44:00      242.197      159.674      104.409      207.009      100.154       97.013    42852.709    10030.900     9411.504        7.867        3.115      290.095      102.959        0.126      339.494       12.864      870.013
05/01/2013  12:45:00      291.362      166.365       32.783      132.095      103.288       83.585    17449.184    10668.483     6986.483        7.437        1.755      335.513       70.143        0.044      339.073       12.153      870.008
05/01/2013  12:46:00      216.671      122.693       46.756      119.986       87.399       85.080    14396.659     7638.614     7238.534        4.673        1.464      248.998       36.170        0.021      339.251       12.453      869.990
05/01/2013  12:47:00      149.621      111.447       44.474      110.056       75.831       67.999    12112.260     5750.381     4623.849        2.963        1.124      186.566       50.146        0.072      339.445       12.780      869.975
05/01/2013  12:48:00      119.672       95.626       75.120       95.336       84.707       75.930     9088.916     7175.272     5765.364        2.557        1.101      153.185       70.247        0.210      339.583       13.012      869.970
05/01/2013  12:49:00      250.447      188.172      136.988      218.770      126.830      139.250    47860.185    16085.839    19390.561       10.010        4.167      313.261      120.562        0.148      339.789       13.361      869.941
05/01/2013  12:50:00       77.015       76.870      144.693      137.733      115.057      108.818    18970.432    13238.154    11841.282        3.841        2.202      108.813       95.637        0.772      339.830       13.429      869.976
05/01/2013  12:51:00      243.450      147.314       72.313      137.636      114.726       81.688    18943.578    13162.096     6672.897        6.248        1.939      284.551       68.330        0.058      339.989       13.698      869.955
05/01/2013  12:52:00       73.264      111.052      122.323      127.898      121.864       98.744    16357.897    14850.759     9750.429        3.680        2.048      133.042       76.901        0.334      340.442       14.464      869.932
05/01/2013  12:53:00      269.203      212.554      113.711      194.676      151.990      106.181    37898.693    23100.904    11274.455       10.141        3.614      343.001       89.990        0.069      339.950       13.632      869.964
05/01/2013  12:54:00      225.949      137.711      123.784      188.413      133.602      137.231    35499.549    17849.376    18832.381        7.875        3.609      264.608      107.260        0.164      339.794       13.368      869.970
05/01/2013  12:55:00      170.047      151.554      152.506      138.070      116.984      112.756    19063.460    13685.269    12713.996        6.030        2.273      227.782       85.524        0.141      339.513       12.896      869.993
05/01/2013  12:56:00      352.779      261.223       96.990      241.913      199.172      123.550    58521.926    39669.582    15264.615       15.776        5.673      438.965       75.847        0.030      339.611       13.060      869.983
05/01/2013  12:57:00      322.421      191.446       50.352      160.078      148.436       94.723    25624.880    22033.294     8972.446        9.988        2.832      374.976       54.044        0.021      339.782       13.350      869.989
05/01/2013  12:58:00      241.301      121.083       54.456      165.297      108.896      102.363    27323.111    11858.277    10478.114        6.275        2.483      269.977       81.200        0.090      339.840       13.446      869.968
05/01/2013  12:59:00      231.055      129.375       39.997      168.950      119.323      106.408    28544.181    14238.044    11322.759        6.291        2.705      264.810       54.357        0.042      339.808       13.392      869.930
05/01/2013  13:00:00      278.124      190.705      164.411      180.264      162.327      162.107    32495.195    26350.001    26278.521       11.292        4.256      337.227      123.144        0.133      339.810       13.397      869.993
05/01/2013  13:01:00      273.592      255.293      190.124      186.815      148.914      155.066    34899.667    22175.523    24045.581       12.863        4.056      374.202      108.221        0.084      339.694       13.199      870.012
05/01/2013  13:02:00      254.573      142.955       65.095      148.746      129.045       98.574    22125.245    16652.735     9716.834        6.898        2.425      291.965       66.688        0.052      339.746       13.286      870.030
05/01/2013  13:03:00      287.997      149.803       27.725      121.586      110.457       82.399    14783.215    12200.753     6789.631        6.996        1.689      324.628       50.092        0.024      339.728       13.257      870.018
05/01/2013  13:04:00      151.675      101.733       54.190      144.275      110.375       79.949    20815.333    12182.669     6391.848        3.783        1.969      182.633       45.921        0.063      339.976       13.677      870.004
05/01/2013  13:05:00      315.490      120.169      166.200      174.206      191.688      148.488    30347.887    36744.469    22048.649       11.535        4.457      337.602      135.259        0.161      339.862       13.483      869.973
05/01/2013  13:06:00      306.813      177.137      110.518      157.183      125.997      108.505    24706.407    15875.175    11773.253        9.503        2.618      354.276       85.893        0.059      339.526       12.917      870.021
05/01/2013  13:07:00      254.530      161.260      102.627      177.155      120.724       85.499    31383.802    14574.255     7310.033        7.729        2.663      301.315       74.987        0.062      339.442       12.776      870.026
05/01/2013  13:08:00      201.282      117.982      110.338      141.688      107.194       96.592    20075.496    11490.464     9330.054        5.375        2.045      233.311       80.076        0.118      339.885       13.522      870.003
05/01/2013  13:09:00      160.947      110.350       42.970      129.660      105.383       91.812    16811.671    11105.657     8429.404        3.813        1.817      195.144       36.398        0.035      340.079       13.849      869.988
05/01/2013  13:10:00      261.454      216.917        4.564      158.830      122.499       97.137    25226.998    15005.954     9435.637        8.254        2.483      339.722       76.629        0.051      339.593       13.028      869.969
05/01/2013  13:11:00      213.437      139.444       20.865      116.878      101.718       79.219    13660.361    10346.514     6275.686        4.785        1.514      254.951       38.782        0.023      339.967       13.660      869.975
05/01/2013  13:12:00      298.701      180.039       78.412      158.562      120.343      114.035    25141.951    14482.389    13003.979        9.020        2.631      348.764       68.873        0.039      340.171       14.004      869.962
05/01/2013  13:13:00      152.212      179.947      174.060      160.835      141.279      129.919    25867.997    19959.793    16879.069        7.427        3.135      235.689      121.864        0.267      340.255       14.146      869.959
05/01/2013  13:14:00      217.652      192.902      150.159      209.540      157.452      156.344    43907.069    24791.264    24443.341       10.012        4.657      290.833      131.862        0.206      339.825       13.421      869.936
05/01/2013  13:15:00       70.549       72.415       90.647      106.506       89.242       74.166    11343.497     7964.129     5500.624        2.162        1.240      101.099       68.975        0.465      340.242       14.125      869.945
05/01/2013  13:16:00      193.732      173.673      164.183      170.455      117.362      132.352    29054.787    13773.744    17517.086        7.749        3.017      260.181       88.421        0.115      340.174       14.010      869.930
05/01/2013  13:17:00      256.140      262.963      249.944      241.360      181.843      172.452    58254.741    33066.964    29739.618       15.913        6.053      367.093      158.982        0.188      339.927       13.593      869.901
05/01/2013  13:18:00      359.360      232.044      189.727      162.945      149.713      152.861    26551.179    22414.027    23366.440       14.564        3.617      427.767      110.914        0.067      339.553       12.964      869.969
05/01/2013  13:19:00      181.203     -126.168       41.564      116.856      143.781       95.036    13655.370    20672.988     9031.804        4.691        2.168      220.801       80.348        0.132      339.749       13.293      869.966
05/01/2013  13:20:00       88.979       88.253       81.772      160.608      159.797      111.854    25795.029    25534.953    12511.391        4.311        3.192      125.323       88.658        0.500      340.129       13.936      869.927
05/01/2013  13:21:00      158.620       73.049      103.837      151.648      110.867       92.101    22997.196    12291.531     8482.607        4.252        2.189      174.633       86.576        0.246      339.615       13.067      869.934
05/01/2013  13:22:00       80.337       79.628      118.850      104.560      100.152       65.004    10932.713    10030.440     4225.479        2.605        1.259      113.113       73.839        0.426      340.000       13.717      869.908
05/01/2013  13:23:00      152.167      170.061      120.428      186.816      133.344       86.343    34900.209    17780.622     7455.095        6.335        3.007      228.200       66.317        0.084      340.183       14.025      869.867
05/01/2013  13:24:00      299.359      156.546       35.483      169.859      151.178      103.344    28851.928    22854.746    10679.996        8.887        3.119      337.820       50.801        0.023      340.007       13.728      869.872
05/01/2013  13:25:00      299.940      179.168       50.209      163.017      138.377      105.896    26574.602    19148.145    11213.883        9.075        2.847      349.378       49.817        0.020      340.302       14.226      869.849
05/01/2013  13:26:00      247.168      136.244       94.367      262.812      186.612      108.746    69070.087    34823.865    11825.655       10.212        5.786      282.231       88.410        0.098      340.697       14.895      869.813
05/01/2013  13:27:00      182.713      141.214      224.879      171.026      187.308      113.347    29249.758    35084.189    12847.481        9.053        3.859      230.923      131.823        0.326      340.354       14.312      869.772
05/01/2013  13:28:00      254.370      163.336      100.347      213.919      180.336      107.512    45761.473    32520.920    11558.937        9.563        4.492      302.296       73.055        0.058      340.658       14.828      869.804
05/01/2013  13:29:00      427.001      255.959       54.570      189.667      131.843      111.044    35973.482    17382.673    12330.776       15.824        3.284      497.841       54.851        0.012      339.631       13.092      869.830
05/01/2013  13:30:00      316.672      188.394       76.122      152.325      124.101       95.310    23202.978    15401.063     9083.953        9.462        2.384      368.474       62.017        0.028      339.884       13.518      869.844
05/01/2013  13:31:00      180.487       89.842       67.383      168.017      118.215      100.839    28229.743    13974.845    10168.438        4.877        2.619      201.611       90.748        0.203      340.266       14.165      869.890
05/01/2013  13:32:00      346.615      206.829       68.106      182.731      115.140       81.893    33390.769    13257.147     6706.405       11.045        2.668      403.633       23.494        0.003      339.931       13.600      869.869
05/01/2013  13:33:00      344.155      256.439       48.256      163.124      108.967       85.063    26609.453    11873.863     7235.751       11.612        2.286      429.190       45.308        0.011      339.725       13.251      869.874
05/01/2013  13:34:00      271.785      170.923       35.378      188.025      105.434      103.845    35353.220    11116.336    10783.682        8.078        2.863      321.064       36.961        0.013      339.960       13.648      869.892
05/01/2013  13:35:00      266.830      152.899      162.867      202.275      164.473      143.044    40915.096    27051.385    20461.487       10.475        4.421      307.533      126.437        0.169      340.294       14.211      869.866
05/01/2013  13:36:00      192.165      190.580      175.486      197.371      118.712      108.146    38955.151    14092.592    11695.459        8.438        3.237      270.644      108.311        0.160      340.275       14.179      869.896
05/01/2013  13:37:00      162.011      109.414      105.190      199.399      135.472      118.003    39760.089    18352.785    13924.764        6.065        3.602      195.497      102.173        0.273      340.270       14.173      869.915
05/01/2013  13:38:00      431.060      245.086       88.372      198.533      167.582      128.184    39415.411    28083.717    16431.112       16.880        4.197      495.862      112.801        0.052      340.072       13.837      869.922
05/01/2013  13:39:00      420.618      228.688       57.899      215.475      151.006      139.364    46429.567    22802.932    19422.193       16.060        4.433      478.767       68.347        0.020      339.691       13.194      869.918
05/01/2013  13:40:00      447.336      266.776      104.203      171.458      157.157      115.898    29397.794    24698.246    13432.328       17.482        3.376      520.844       91.810        0.031      339.822       13.416      869.927
05/01/2013  13:41:00      343.940      141.983       69.085      181.749      120.977      115.303    33032.652    14635.410    13294.741       10.208        3.048      372.094       99.170        0.071      340.095       13.875      869.898
05/01/2013  13:42:00      200.496      140.159       71.227      171.476      126.488       99.307    29404.042    15999.243     9861.972        6.008        2.763      244.629       29.272        0.014      340.294       14.212      869.865
05/01/2013  13:43:00      189.232      149.358      122.840      162.289      107.863      108.735    26337.635    11634.326    11823.244        6.149        2.490      241.074      103.987        0.186      340.503       14.564      869.879
05/01/2013  13:44:00      260.909      144.961      125.663      216.877      160.860      120.816    47035.692    25875.798    14596.459        9.618        4.375      298.475      105.860        0.126      340.771       15.017      869.862
05/01/2013  13:45:00      375.566      239.032      151.063      206.588      156.381      128.472    42678.612    24455.057    16505.153       15.231        4.182      445.181      111.473        0.063      340.538       14.623      869.878
05/01/2013  13:46:00      331.406      173.943      119.261      177.116      145.977      137.602    31370.068    21309.157    18934.180       11.295        3.581      374.281      106.627        0.081      340.100       13.885      869.913
05/01/2013  13:47:00       91.806      119.821      144.904      107.337       95.453       92.365    11521.242     9111.307     8531.268        3.647        1.458      150.949       82.138        0.296      340.067       13.830      869.929
05/01/2013  13:48:00      149.488      102.596      125.708      169.902      158.000       94.884    28866.715    24964.028     9002.977        5.574        3.142      181.308       90.720        0.250      340.421       14.427      869.920
05/01/2013  13:49:00       80.528      101.878       97.116      116.531      105.799       78.066    13579.533    11193.394     6094.278        2.858        1.543      129.861       62.383        0.231      340.644       14.805      869.915
05/01/2013  13:50:00      138.347      100.854      114.811      121.566      149.131      111.129    14778.202    22239.933    12349.600        4.592        2.468      171.205      108.450        0.401      340.291       14.207      869.888
05/01/2013  13:51:00       69.633      116.903      174.953      117.979      125.439       77.446    13919.013    15734.891     5997.917        4.238        1.783      136.070       79.818        0.344      340.226       14.098      869.896
05/01/2013  13:52:00      188.728      185.069      167.694      185.812      149.279      142.291    34526.224    22284.305    20246.746        8.751        3.853      264.327      120.959        0.209      340.178       14.016      869.897
05/01/2013  13:53:00      301.388      220.799      166.731      231.859      151.514      132.069    53758.779    22956.354    17442.178       13.076        4.708      373.614      115.919        0.096      340.423       14.431      869.874
05/01/2013  13:54:00      360.481      206.968      188.238      228.039      234.154      168.603    52001.606    54828.101    28426.931       17.171        6.763      415.671      154.808        0.139      340.209       14.067      869.840
05/01/2013  13:55:00      218.485      178.901      110.620      215.686      100.562      111.274    46520.418    10112.746    12381.866        8.048        3.451      282.385      109.131        0.149      340.224       14.094      869.893
05/01/2013  13:56:00      176.977        8.380       54.821      123.454      149.240       95.406    15240.781    22272.638     9102.327        4.050        2.331      177.175       75.787        0.183      340.652       14.819      869.900
05/01/2013  13:57:00      265.388       11.905      119.819      205.718      194.536      149.179    42320.051    37844.093    22254.235        9.366        5.121      265.655      138.642        0.272      340.592       14.714      869.889
05/01/2013  13:58:00      127.550      -36.336       61.965      115.613      226.957      116.829    13366.328    51509.431    13648.998        4.996        3.926      132.624      140.448        1.121      340.708       14.911      869.906
05/01/2013  13:59:00       66.399     -198.905       13.626      114.077      187.454       59.089    13013.530    35139.150     3491.514        4.789        2.582      209.695       77.660        0.137      340.361       14.325      869.898
05/01/2013  14:00:00      145.193     -204.877       33.676      143.014      183.547      113.327    20453.000    33689.614    12842.970        6.558        3.349      251.109      120.868        0.232      340.432       14.444      869.848
05/01/2013  14:01:00       85.651     -107.122       36.862       91.423      193.621       96.106     8358.225    37489.137     9236.420        3.762        2.754      137.154      109.674        0.639      340.676       14.858      869.848
05/01/2013  14:02:00      333.069      233.825      144.309      239.905      160.212      140.764    57554.449    25667.851    19814.580       14.472        5.152      406.951      120.863        0.088      340.748       14.979      869.815
05/01/2013  14:03:00      266.096      101.533       97.009      245.546      193.666      134.061    60292.839    37506.689    17972.292       10.313        5.789      284.808      133.110        0.218      340.862       15.174      869.820
05/01/2013  14:04:00      432.763      290.924       94.072      165.325      138.482      106.857    27332.459    19177.277    11418.345       16.934        2.896      521.460       72.976        0.020      340.390       14.374      869.890
05/01/2013  14:05:00      230.268       90.418       72.953      149.717      121.343       83.403    22415.120    14724.125     6956.095        5.530        2.205      247.384       60.534        0.060      340.443       14.465      869.892
05/01/2013  14:06:00      217.515      109.981       67.215      169.258      120.535       90.434    28648.390    14528.720     8178.267        5.763        2.568      243.739       77.850        0.102      340.967       15.350      869.870
05/01/2013  14:07:00      154.421       96.801      109.079      136.984      127.635       87.098    18764.684    16290.819     7585.998        4.387        2.132      182.253       78.618        0.186      340.995       15.399      869.886
05/01/2013  14:08:00      209.734      153.335       92.248      137.740      111.968      108.785    18972.280    12536.866    11834.096        5.967        2.167      259.807       71.900        0.077      340.486       14.537      869.893
05/01/2013  14:09:00      281.226      139.758       35.324      131.542       98.258       69.566    17303.206     9654.653     4839.453        6.583        1.590      314.039       30.792        0.010      340.324       14.263      869.886
05/01/2013  14:10:00      119.588       47.192       51.994       97.958      105.511       87.648     9595.802    11132.611     7682.246        2.382        1.421      128.563       50.842        0.156      340.791       15.053      869.876
05/01/2013  14:11:00       36.431       18.672       82.651       81.420      101.596       77.302     6629.292    10321.659     5975.562        1.571        1.146       40.937       52.600        1.651      341.068       15.524      869.873
05/01/2013  14:12:00      151.174      114.757      117.181      196.673      113.674      112.360    38680.325    12921.764    12624.697        5.698        3.211      189.796       94.667        0.249      340.851       15.154      869.869
05/01/2013  14:13:00      299.655      151.077       20.929      169.457      151.640      113.073    28715.779    22994.544    12785.544        8.876        3.225      335.585       73.990        0.049      340.783       15.039      869.888
05/01/2013  14:14:00      372.825      205.109      102.284      204.359      151.153      117.637    41762.798    22847.325    13838.542       13.498        3.922      425.521       72.332        0.029      340.552       14.649      869.891
05/01/2013  14:15:00      146.117      187.027      150.441      158.056      122.686      119.415    24981.720    15051.869    14260.010        6.662        2.715      237.338       99.675        0.176      340.755       14.991      869.917
05/01/2013  14:16:00      230.980      200.549      172.441      178.775      146.654      120.704    31960.366    21507.435    14569.410        9.566        3.402      305.895      105.570        0.119      340.371       14.344      869.907
05/01/2013  14:17:00      181.208      140.026      126.412      178.345      178.004      107.674    31806.841    31685.561    11593.684        7.174        3.754      229.005       94.327        0.170      340.729       14.948      869.881
05/01/2013  14:18:00      172.709      115.061      126.737      141.992       87.409       96.308    20161.787     7640.320     9275.291        4.810        1.854      207.527       84.096        0.164      340.481       14.529      869.907
05/01/2013  14:19:00       86.825       92.934       60.563       88.667       75.477       92.775     7861.779     5696.740     8607.125        2.100        1.108      127.182       74.057        0.339      340.602       14.735      869.864
05/01/2013  14:20:00      244.981       94.377       61.856      193.527      127.129      104.738    37452.636    16161.773    10970.059        6.866        3.229      262.531       76.792        0.086      340.844       15.141      869.850
05/01/2013  14:21:00      392.749      205.479       51.351      195.617      145.759      130.619    38266.165    21245.746    17061.217       13.783        3.829      443.253       57.460        0.017      340.330       14.272      869.858
05/01/2013  14:22:00      275.928      179.092       92.337      195.276      163.571      141.960    38132.860    26755.465    20152.509       10.087        4.252      328.953       39.827        0.015      340.747       14.977      869.797
05/01/2013  14:23:00      146.815      102.062      159.497      153.232      138.968      110.591    23480.064    19312.168    12230.460        5.621        2.751      178.806       91.963        0.265      340.967       15.351      869.772
05/01/2013  14:24:00      353.660      146.369      106.806      201.162      141.945      112.297    40466.296    20148.409    12610.626       11.555        3.661      382.752       91.405        0.057      340.714       14.923      869.837
05/01/2013  14:25:00      107.931       25.933       52.641      174.432      134.305       78.030    30426.689    18037.959     6088.678        3.481        2.728      111.003       72.473        0.426      340.910       15.255      869.826
05/01/2013  14:26:00      154.159      155.842      132.217      117.352       96.974       85.002    13771.583     9403.915     7225.281        4.796        1.520      219.207       69.108        0.099      340.968       15.352      869.884
05/01/2013  14:27:00      202.307      134.757       66.160      180.237      163.265      148.322    32485.234    26655.536    21999.283        7.229        4.057      243.079      117.001        0.232      341.080       15.541      869.852
05/01/2013  14:28:00      188.630       99.378       49.437      131.480      166.718       90.781    17287.114    27794.876     8241.162        5.060        2.666      213.208       51.221        0.058      341.090       15.558      869.836
05/01/2013  14:29:00      323.205      212.920       65.813      187.306      154.229      101.395    35083.577    23786.543    10280.888       11.163        3.458      387.035       56.767        0.022      340.969       15.354      869.826
05/01/2013  14:30:00      382.222      207.711       51.713      230.020      156.296       98.572    52909.263    24428.330     9716.537       13.947        4.353      435.014       58.041        0.018      340.836       15.128      869.855
05/01/2013  14:31:00      427.967      209.805       58.802      172.190      137.528       96.369    29649.251    18913.936     9286.981       14.423        2.893      476.628       59.216        0.015      340.432       14.446      869.881
05/01/2013  14:32:00      197.162      101.708       94.512      143.753      120.567      102.017    20665.035    14536.484    10407.520        5.187        2.280      221.850       53.751        0.059      340.451       14.477      869.883
05/01/2013  14:33:00      240.826      182.856      131.431      210.099      122.891      106.370    44141.484    15102.155    11314.649        8.962        3.528      302.379      110.138        0.133      340.464       14.500      869.868
05/01/2013  14:34:00      160.141       87.442       39.642      103.614       89.269       73.503    10735.819     7968.907     5402.702        2.948        1.205      182.459       59.607        0.107      340.760       15.001      869.869
05/01/2013  14:35:00      227.974      188.512      153.887      108.898      129.153      114.217    11858.874    16680.587    13045.470        7.638        2.079      295.819       70.732        0.057      340.639       14.794      869.847
05/01/2013  14:36:00      193.743      114.974      115.163      115.725      116.271       92.167    13392.281    13518.976     8494.793        4.971        1.770      225.289       77.325        0.118      340.500       14.560      869.824
05/01/2013  14:37:00      179.736      154.619       12.225      155.251      137.488       72.273    24102.875    18902.921     5223.354        5.229        2.411      237.091       55.017        0.054      340.942       15.310      869.817
05/01/2013  14:38:00      221.814      232.001       15.317      158.817      143.755       93.135    25222.894    20665.580     8674.102        7.890        2.728      320.977       67.629        0.044      340.553       14.650      869.806
05/01/2013  14:39:00      204.575      125.736       13.504      129.466       82.767       76.049    16761.337     6850.365     5783.376        4.361        1.470      240.126       35.538        0.022      340.845       15.145      869.811
05/01/2013  14:40:00      306.668      113.340       30.506      142.704      135.431       89.105    20364.428    18341.501     7939.784        7.723        2.332      326.942       79.266        0.059      340.990       15.387      869.783
05/01/2013  14:41:00      259.520      229.179      265.760      252.925      194.914      156.523    63970.986    37991.601    24499.543       15.846        6.323      346.228      147.897        0.182      341.036       15.466      869.708
05/01/2013  14:42:00      231.583      240.823      234.436      191.766      205.044      185.731    36774.259    42043.042    34495.965       13.993        5.666      334.105      153.636        0.211      340.922       15.274      869.750
05/01/2013  14:43:00      201.616     -115.003       64.241      131.297      250.841      124.376    17238.865    62920.962    15469.385        7.680        4.781      232.109      130.480        0.316      340.627       14.774      869.803
05/01/2013  14:44:00      111.438       13.380      135.359      135.493      139.454       90.002    18358.234    19447.505     8100.397        3.841        2.295      112.238       91.829        0.669      340.810       15.086      869.827
05/01/2013  14:45:00      224.434      137.395      121.544      207.393      147.801      116.356    43011.825    21845.087    13538.759        8.120        3.920      263.150      101.355        0.148      340.682       14.868      869.849
05/01/2013  14:46:00      137.399      171.026       53.380      169.399      155.658      100.705    28695.887    24229.563    10141.456        5.701        3.153      219.382       59.615        0.074      340.797       15.062      869.827
05/01/2013  14:47:00      187.840      184.123       -1.955      138.273      130.374      102.841    19119.314    16997.500    10576.215        5.793        2.335      263.030       70.536        0.072      340.551       14.647      869.851
05/01/2013  14:48:00      190.463      173.264        7.528      132.785      126.421       96.152    17631.843    15982.380     9245.212        5.460        2.143      257.481       83.773        0.106      340.599       14.728      869.812
05/01/2013  14:49:00      371.332      158.539       65.434      198.555      153.952      100.982    39424.160    23701.225    10197.374       12.030        3.666      403.760       43.016        0.011      340.801       15.069      869.808
05/01/2013  14:50:00      302.599      191.870      180.612      204.541      216.387      151.579    41836.921    46823.231    22976.054       13.630        5.582      358.301      137.963        0.148      340.905       15.244      869.794
05/01/2013  14:51:00      262.894      274.855      227.920      196.551      198.136      157.608    38632.294    39257.696    24840.183       14.965        5.137      380.341      133.374        0.123      340.766       15.010      869.819
05/01/2013  14:52:00      282.181      190.492      125.216      139.606      111.501      108.005    19489.878    12432.481    11665.040        8.758        2.179      340.460       88.672        0.068      340.737       14.960      869.850
05/01/2013  14:53:00      348.554      195.717       48.431      176.615      106.344       90.512    31192.887    11308.947     8192.359       10.641        2.535      399.743       80.312        0.040      340.565       14.670      869.849
05/01/2013  14:54:00      158.306       88.965       29.189      134.158      103.320       71.431    17998.284    10674.969     5102.441        3.380        1.689      181.592       19.082        0.011      340.773       15.022      869.867
05/01/2013  14:55:00      347.541       84.415       61.082      200.255      108.791       93.994    40102.138    11835.399     8834.956        9.620        3.039      357.646       80.938        0.051      340.798       15.063      869.856
05/01/2013  14:56:00      299.188      176.514      113.581      175.574      145.347      125.134    30826.100    21125.884    15658.481       10.058        3.381      347.377      114.842        0.109      340.573       14.685      869.838
05/01/2013  14:57:00      271.994      199.609      109.745      165.540      119.622      110.366    27403.359    14309.358    12180.628        8.987        2.695      337.379       78.999        0.055      340.804       15.072      869.827
05/01/2013  14:58:00      188.911       95.560       27.630      139.835      126.813       91.887    19553.843    16081.546     8443.274        4.482        2.204      211.705       57.588        0.074      340.672       14.852      869.818
05/01/2013  14:59:00      181.761      123.839       50.642      112.518       92.946       61.620    12660.210     8638.916     3797.018        3.801        1.255      219.939       18.130        0.007      340.759       14.999      869.790
05/01/2013  15:00:00      207.877      113.053       47.844      151.653      105.412       81.367    22998.685    11111.587     6620.663        4.950        2.037      236.630       38.658        0.027      340.768       15.015      869.753
05/01/2013  15:01:00      164.792       73.941       35.692      112.377       80.723       69.155    12628.484     6516.275     4782.355        2.891        1.196      180.620       56.857        0.099      341.189       15.727      869.729
05/01/2013  15:02:00      222.868      189.400        7.058      152.163      126.653      100.046    23153.629    16040.906    10009.168        6.739        2.460      292.477       67.688        0.054      340.950       15.321      869.735
05/01/2013  15:03:00      168.616      104.897       37.722      122.170       83.737       73.815    14925.546     7011.945     5448.585        3.412        1.369      198.582       61.338        0.095      341.031       15.461      869.714
05/01/2013  15:04:00      305.504      197.062       76.068      180.647       97.767       82.767    32633.461     9558.304     6850.428        9.349        2.452      363.546       44.234        0.015      340.996       15.399      869.724
05/01/2013  15:05:00      367.604      191.418       97.632      141.956      112.381      127.299    20151.640    12629.444    16204.921       11.514        2.449      414.456       94.287        0.052      341.038       15.471      869.713
05/01/2013  15:06:00      347.066      230.076       76.482      168.080      132.393      107.236    28250.759    17527.788    11499.620       11.825        2.864      416.401       85.600        0.042      340.924       15.277      869.729
05/01/2013  15:07:00      303.231      167.135       73.489      174.657      106.632      102.643    30505.128    11370.486    10535.663        8.884        2.621      346.242      103.910        0.090      340.844       15.140      869.698
05/01/2013  15:08:00      183.680      104.221       75.599      147.385      110.697       75.615    21722.401    12253.733     5717.593        4.500        1.985      211.187       67.020        0.101      341.298       15.911      869.719
05/01/2013  15:09:00      185.864      129.458       74.122      139.323       88.435       66.772    19410.850     7820.725     4458.545        4.424        1.585      226.505       35.828        0.025      341.442       16.154      869.710
05/01/2013  15:10:00      229.952      160.840       74.464      175.341      125.640       88.126    30744.302    15785.370     7766.255        6.929        2.715      280.620       85.729        0.093      340.887       15.216      869.724
05/01/2013  15:11:00      173.064      110.755       17.717       87.445       69.678       57.735     7646.586     4855.071     3333.361        2.918        0.792      205.469       38.805        0.036      340.565       14.670      869.691
05/01/2013  15:12:00      224.911      160.357      113.943      174.060      126.595      134.687    30296.951    16026.305    18140.568        7.686        3.223      276.224      102.611        0.138      341.013       15.428      869.663
05/01/2013  15:13:00      182.021      182.447      172.454      197.728      125.502      126.994    39096.290    15750.696    16127.562        8.355        3.549      257.718      126.963        0.243      341.120       15.609      869.682
05/01/2013  15:14:00      332.446      184.505       49.708      161.439      118.091      114.448    26062.501    13945.485    13098.400       10.006        2.655      380.214       82.687        0.047      340.824       15.107      869.713
05/01/2013  15:15:00      255.814      157.122       38.335      147.796       98.123       88.813    21843.723     9628.146     7887.743        6.547        1.968      300.214       36.988        0.015      340.952       15.323      869.717
05/01/2013  15:16:00      184.127      107.917       52.710      102.171       83.317       70.681    10438.943     6941.640     4995.825        3.535        1.119      213.422       50.461        0.056      341.270       15.863      869.707
05/01/2013  15:17:00      125.910       58.351       13.523       90.869       63.540       55.751     8257.245     4037.287     3108.146        1.742        0.770      138.774       34.602        0.062      341.302       15.919      869.681
05/01/2013  15:18:00       62.651       42.911       36.475       88.456       73.265       48.425     7824.455     5367.701     2344.950        1.131        0.777       75.937       38.320        0.255      341.536       16.317      869.643
05/01/2013  15:19:00      174.877      119.837       60.398      121.556      102.437       75.521    14775.947    10493.238     5703.485        3.978        1.549      211.998       73.637        0.121      341.555       16.347      869.607
05/01/2013  15:20:00      189.979      106.680       57.280      150.832      111.523       82.168    22750.278    12437.271     6751.575        4.634        2.097      217.882       47.118        0.047      341.559       16.353      869.619
05/01/2013  15:21:00      202.428      129.463       19.269      104.088       72.318       73.549    10834.221     5229.880     5409.459        3.979        1.074      240.287       25.914        0.012      341.257       15.841      869.655
05/01/2013  15:22:00      126.584       85.187       66.714      105.187      110.161       73.460    11064.321    12135.494     5396.376        2.816        1.430      152.579       47.115        0.095      341.462       16.190      869.644
05/01/2013  15:23:00      307.737      163.867       58.206      143.666      117.632      107.362    20639.840    13837.180    11526.537        8.547        2.300      348.646       87.225        0.063      341.112       15.594      869.620
05/01/2013  15:24:00      205.690      158.481      107.663      175.571      130.905      140.871    30825.263    17136.147    19844.554        7.340        3.390      259.662      122.773        0.224      341.171       15.695      869.596
05/01/2013  15:25:00      208.595      125.116      108.152      131.849      137.262      112.752    17384.280    18840.861    12713.022        5.989        2.447      243.240       81.052        0.111      340.830       15.118      869.596
05/01/2013  15:26:00      153.140      109.197       50.803      137.499       78.575       76.192    18906.068     6173.997     5805.175        3.442        1.544      188.085       58.588        0.097      341.198       15.742      869.575
05/01/2013  15:27:00      234.357      145.271       73.258      129.661       89.035       90.302    16811.940     7927.177     8154.499        5.714        1.645      275.730       24.123        0.008      341.347       15.993      869.545
05/01/2013  15:28:00      237.168      149.116       63.107      222.076      152.830      106.661    49317.703    23357.042    11376.472        8.324        4.203      280.150       74.643        0.071      341.371       16.035      869.524
05/01/2013  15:29:00      392.836      203.062       74.887      169.170      134.277      101.834    28618.382    18030.195    10370.217       12.908        2.851      442.215       41.796        0.009      341.024       15.446      869.520
05/01/2013  15:30:00      228.437      144.498       79.312      101.497       93.305       86.284    10301.670     8705.847     7444.912        5.290        1.323      270.302       59.573        0.049      341.561       16.356      869.577
05/01/2013  15:31:00      108.440      -51.520       62.755       99.736      147.723       83.445     9947.268    21822.141     6963.070        2.854        1.937      120.057       87.929        0.536      341.271       15.867      869.558
05/01/2013  15:32:00      300.681      183.214      113.146      202.539      165.051      117.839    41022.090    27241.805    13886.108       10.945        4.108      352.103       91.132        0.067      341.192       15.732      869.530
05/01/2013  15:33:00      128.994       73.323       79.548      149.207      142.076      102.929    22262.817    20185.514    10594.423        4.068        2.652      148.377       89.983        0.368      341.295       15.907      869.551
05/01/2013  15:34:00      136.612       52.860      101.411      163.323      111.335      101.782    26674.550    12395.492    10359.544        4.058        2.471      146.482       82.172        0.315      341.066       15.520      869.552
05/01/2013  15:35:00       94.267       85.332       80.611       98.546       65.703       57.389     9711.367     4316.921     3293.456        1.999        0.866      127.153       41.238        0.105      341.023       15.446      869.491
05/01/2013  15:36:00      170.690       60.169       74.750      148.100      105.252       84.806    21933.469    11078.018     7192.068        3.927        2.010      180.985       47.613        0.069      341.526       16.299      869.468
05/01/2013  15:37:00      128.986      104.789      121.743      145.927      128.543      117.207    21294.815    16523.290    13737.518        4.699        2.578      166.187       87.379        0.276      341.312       15.935      869.460
05/01/2013  15:38:00      149.130      169.784      127.741      164.194      115.785      117.209    26959.740    13406.086    13737.937        6.073        2.705      225.979      114.861        0.258      341.169       15.692      869.447
05/01/2013  15:39:00      233.012      143.425       37.956       94.669       84.946       69.930     8962.172     7215.856     4890.162        4.868        1.053      273.615       38.856        0.020      341.553       16.341      869.465
05/01/2013  15:40:00      138.439      158.496      114.626      107.281       94.309       85.478    11509.182     8894.132     7306.550        4.256        1.385      210.443       73.887        0.123      341.599       16.420      869.433
05/01/2013  15:41:00      378.956      217.362      115.228      218.546      186.649      159.093    47762.446    34837.681    25310.713       15.600        5.396      436.869      140.746        0.104      341.263       15.851      869.435
05/01/2013  15:42:00      173.634       91.326      152.504      153.826      171.520      100.542    23662.521    29419.085    10108.613        6.246        3.160      196.187      110.153        0.315      340.947       15.317      869.486
05/01/2013  15:43:00      126.588       91.468      127.967      104.241      116.325       81.963    10866.152    13531.397     6717.927        3.594        1.556      156.176       69.987        0.201      340.849       15.152      869.496
05/01/2013  15:44:00      142.035      120.171      126.584      147.273      129.206      111.468    21689.459    16694.110    12425.198        5.072        2.540      186.051      105.561        0.322      341.212       15.764      869.455
05/01/2013  15:45:00      188.943      158.008      155.424      156.882      141.475      114.451    24612.018    20015.156    13099.031        7.126        2.886      246.304       95.576        0.151      341.320       15.947      869.442
05/01/2013  15:46:00      253.819      172.279      202.869      176.762      179.763      126.057    31244.881    32314.601    15890.267       10.734        3.972      306.764      115.161        0.141      341.291       15.899      869.434
05/01/2013  15:47:00      203.039      203.450      192.115      199.935      169.167      134.247    39973.999    28617.472    18022.331       10.305        4.331      287.431      123.688        0.185      341.174       15.702      869.441
05/01/2013  15:48:00      185.693      173.088      200.682      142.091      169.876      113.758    20189.878    28857.798    12940.826        8.334        3.099      253.853      110.499        0.189      341.012       15.426      869.471
05/01/2013  15:49:00      109.051      139.420      152.446      130.589      117.431       91.729    17053.560    13790.155     8414.210        4.691        1.963      177.002       88.117        0.248      341.327       15.961      869.459
05/01/2013  15:50:00      210.284       90.278       89.272      131.657      102.926       92.452    17333.547    10593.795     8547.450        4.840        1.824      228.844       61.517        0.072      341.233       15.800      869.472
05/01/2013  15:51:00      267.256       99.501       47.891      143.942      112.593       80.674    20719.392    12677.115     6508.371        6.176        1.995      285.177       61.015        0.046      341.323       15.953      869.425
05/01/2013  15:52:00      104.786      103.095      105.606      115.464       83.693       81.609    13331.977     7004.493     6660.095        2.987        1.350      146.999       74.758        0.259      341.132       15.631      869.418
05/01/2013  15:53:00      246.175      163.353      126.144      144.306      137.707      112.767    20824.280    18963.179    12716.480        7.784        2.625      295.442       98.899        0.112      341.084       15.548      869.424
05/01/2013  15:54:00      135.546      102.552      103.962      105.547      104.495       92.605    11140.245    10919.141     8575.692        3.516        1.532      169.969       70.721        0.173      341.080       15.541      869.424
05/01/2013  15:55:00      235.159      270.001        6.594      209.642      187.935      121.267    43949.756    35319.686    14705.734       11.109        4.699      358.051      100.182        0.078      341.256       15.840      869.397
05/01/2013  15:56:00      209.073      138.384       73.658      156.507      112.071       92.761    24494.523    12559.804     8604.568        5.697        2.283      250.722       56.300        0.050      341.481       16.220      869.396
05/01/2013  15:57:00      235.529      136.717       42.859      142.771      106.956       73.741    20383.541    11439.671     5437.751        5.663        1.863      272.334       38.550        0.020      341.646       16.501      869.424
05/01/2013  15:58:00      284.735      132.582       59.878      122.119      117.191       87.444    14913.040    13733.772     7646.435        6.926        1.815      314.090       69.512        0.049      341.312       15.934      869.401
05/01/2013  15:59:00      157.726       86.533       90.470      138.420       82.246       78.303    19160.123     6764.387     6131.429        3.630        1.603      179.904       67.883        0.142      341.369       16.031      869.364
05/01/2013  16:00:00      241.789      171.443       57.716      140.690      110.431       88.769    19793.579    12194.929     7879.961        6.552        1.993      296.402       74.564        0.063      341.443       16.155      869.321
05/01/2013  16:01:00      292.663      143.969       31.073      153.403      129.679       89.206    23532.414    16816.748     7957.625        7.782        2.415      326.157       60.763        0.035      341.591       16.407      869.317
05/01/2013  16:02:00      355.263      236.026      111.351      212.550      144.521      130.244    45177.645    20886.318    16963.517       13.866        4.151      426.521      108.115        0.064      341.540       16.321      869.335
05/01/2013  16:03:00      404.154      169.633       98.230      224.949      160.187      134.878    50601.857    25659.886    18191.971       14.809        4.723      438.310      124.143        0.080      341.341       15.983      869.334
05/01/2013  16:04:00      400.742      231.847       55.668      186.176      167.162      114.475    34661.647    27943.103    13104.495       14.656        3.785      462.976       78.343        0.029      341.238       15.810      869.355
05/01/2013  16:05:00      273.131      127.658       59.183      189.197      130.946      110.505    35795.653    17146.762    12211.429        7.977        3.258      301.492       78.687        0.068      341.271       15.865      869.339
05/01/2013  16:06:00      261.995      152.051      170.830      195.824      179.463      140.073    38346.951    32207.070    19620.491       10.554        4.509      302.921      141.075        0.217      341.285       15.888      869.326
05/01/2013  16:07:00      267.557      193.457      156.270      208.825      146.551      140.421    43607.960    21477.079    19718.020       10.910        4.240      330.170      119.589        0.131      341.319       15.946      869.327
05/01/2013  16:08:00      261.454      211.788      227.790      203.697      191.637      148.105    41492.438    36724.814    21935.083       13.261        5.008      336.470      137.509        0.167      341.260       15.846      869.323
05/01/2013  16:09:00      309.870      178.436       78.883      179.575      115.502      118.220    32247.180    13340.641    13975.957        9.681        2.978      357.573       75.594        0.045      341.435       16.142      869.350
05/01/2013  16:10:00      200.619      158.126      139.582      155.362      134.447      120.502    24137.411    18075.993    14520.636        7.072        2.837      255.444       68.993        0.073      341.218       15.775      869.341
05/01/2013  16:11:00      151.808      125.126      121.445      116.811      115.906      132.753    13644.715    13434.200    17623.412        4.907        2.235      196.729       88.380        0.202      341.413       16.106      869.342
05/01/2013  16:12:00      257.620      124.707       85.691      164.068      123.523       97.028    26918.159    15258.029     9414.396        7.042        2.580      286.217       70.861        0.061      341.544       16.327      869.369
05/01/2013  16:13:00      134.137       66.848       52.096      115.362      147.880       85.464    13308.387    21868.404     7304.087        3.382        2.124      149.871       47.209        0.099      341.496       16.246      869.383
05/01/2013  16:14:00      307.380      224.163       29.120      174.266      129.592      101.977    30368.510    16794.153    10399.403       10.156        2.878      380.436       73.502        0.037      341.270       15.863      869.375
05/01/2013  16:15:00      377.083      249.490       53.957      148.180      111.420      102.356    21957.247    12414.365    10476.783       12.609        2.242      452.147       58.581        0.017      340.978       15.370      869.372
05/01/2013  16:16:00      224.641      145.356       41.021      147.653       98.607       78.348    21801.393     9723.341     6138.409        5.546        1.883      267.566       25.986        0.009      341.257       15.841      869.359
05/01/2013  16:17:00      205.936      140.017       19.379      144.159      101.370       67.539    20781.928    10275.816     4561.458        4.900        1.781      249.027       57.846        0.054      341.212       15.765      869.347
05/01/2013  16:18:00      136.607       88.605       28.777      145.757      101.107       65.468    21245.106    10222.550     4286.110        3.154        1.788      162.826       31.597        0.038      341.726       16.637      869.325
05/01/2013  16:19:00      174.531      159.670      167.423      165.906      141.643      112.598    27524.946    20062.693    12678.353        7.212        3.013      236.550      101.728        0.185      341.619       16.455      869.314
05/01/2013  16:20:00      301.644      236.978      152.040      179.652      135.678      155.578    32274.701    18408.561    24204.483       12.256        3.744      383.599      128.199        0.112      341.463       16.189      869.319
05/01/2013  16:21:00      180.754      123.454       23.945      146.401      109.968       73.733    21433.337    12092.934     5436.492        4.372        1.948      218.890       23.167        0.011      341.664       16.530      869.377
05/01/2013  16:22:00      143.447       70.529       69.580      118.089      114.030       83.700    13944.938    13002.834     7005.701        3.217        1.698      159.848       76.645        0.230      341.836       16.823      869.349
05/01/2013  16:23:00      281.422      163.158       68.170      192.375      133.040      120.810    37008.123    17699.510    14595.169        8.987        3.465      325.298      107.881        0.110      341.588       16.399      869.376
05/01/2013  16:24:00      177.702      129.881       85.569      169.913      118.369      117.398    28870.369    14011.272    13782.324        5.621        2.833      220.107      104.502        0.225      341.616       16.449      869.417
05/01/2013  16:25:00      183.634      156.120      109.681      130.989      109.387      101.578    17158.021    11965.603    10318.175        5.478        1.972      241.029       63.605        0.070      341.508       16.266      869.441
05/01/2013  16:26:00      255.458      150.318       63.145      166.676      112.621      106.090    27780.987    12683.571    11255.021        7.177        2.586      296.402       78.556        0.070      341.332       15.969      869.415
05/01/2013  16:27:00      125.579       94.382      117.040      128.648       95.662       86.134    16550.386     9151.128     7419.091        3.574        1.656      157.093       68.005        0.187      341.409       16.099      869.400
05/01/2013  16:28:00      241.211      130.725       44.664      108.359       66.686       67.267    11741.599     4447.079     4524.812        4.899        1.036      274.357       39.568        0.021      341.648       16.504      869.387
05/01/2013  16:29:00      319.266      207.285       33.480      185.834      133.722       88.235    34534.134    17881.606     7785.389       10.310        3.010      380.655       13.749        0.001      341.529       16.302      869.379
05/01/2013  16:30:00      286.951      236.074       37.862      175.197      136.070      114.948    30693.823    18515.005    13213.130       10.095        3.121      371.580       79.116        0.045      341.494       16.243      869.362
05/01/2013  16:31:00      269.018      183.139       21.845      143.972      136.183      103.168    20727.903    18545.943    10643.651        7.814        2.496      325.440       86.124        0.070      341.608       16.435      869.383
05/01/2013  16:32:00      250.165      205.226      175.250      195.860      129.639      142.481    38361.069    16806.314    20300.864       10.543        3.773      323.574      108.879        0.113      341.393       16.071      869.327
05/01/2013  16:33:00      131.097       68.868       68.248      146.601       96.092       93.043    21491.769     9233.743     8657.071        3.298        1.969      148.085       63.455        0.184      341.517       16.283      869.347
05/01/2013  16:34:00      225.137      118.935       67.422      170.686      117.587       82.674    29133.554    13826.678     6835.012        5.958        2.490      254.621       55.177        0.047      341.656       16.517      869.391
05/01/2013  16:35:00      235.854      107.914       67.997      170.329      145.765      101.230    29012.046    21247.303    10247.479        6.619        3.025      259.369       79.195        0.093      341.574       16.376      869.386
05/01/2013  16:36:00      428.605      306.775       86.629      214.534      155.203      131.655    46024.801    24088.123    17333.054       18.637        4.372      527.080      102.239        0.038      341.310       15.931      869.421
05/01/2013  16:37:00      170.948      110.169       85.425      141.969      104.217      100.875    20155.100    10861.084    10175.863        4.492        2.060      203.373       88.307        0.189      341.439       16.149      869.439
05/01/2013  16:38:00      177.773      128.039       46.234      179.807       98.403       79.780    32330.521     9683.244     6364.899        4.925        2.419      219.082       80.313        0.134      341.553       16.343      869.450
05/01/2013  16:39:00      204.103      125.368       81.005      215.721      119.737      120.043    46535.349    14336.967    14410.435        6.960        3.764      239.531       92.110        0.148      341.625       16.464      869.420
05/01/2013  16:40:00      375.563      229.924       71.091      153.234      113.924       90.339    23480.634    12978.750     8161.161       12.179        2.231      440.356       62.220        0.020      341.544       16.327      869.456
05/01/2013  16:41:00      398.751      235.158       46.086      160.543      122.625      109.656    25773.962    15036.883    12024.480       13.462        2.642      462.928       60.465        0.017      341.236       15.805      869.450
05/01/2013  16:42:00      271.900      200.430       53.996      166.377      136.667       96.434    27681.256    18677.998     9299.494        8.633        2.783      337.790       82.142        0.059      341.541       16.321      869.417
05/01/2013  16:43:00      338.127      193.336       39.650      120.830      111.125       96.155    14599.804    12348.781     9245.755        9.473        1.810      389.498       46.916        0.015      341.612       16.441      869.405
05/01/2013  16:44:00      368.998      218.046       56.529      177.819      141.147       97.839    31619.726    19922.538     9572.448       12.400        3.056      428.606       40.906        0.009      341.669       16.538      869.416
05/01/2013  16:45:00      351.955      234.449       47.285      176.295      160.501       99.415    31079.783    25760.479     9883.273       12.389        3.336      422.893       40.853        0.009      341.776       16.720      869.426
05/01/2013  16:46:00      314.503      183.481       83.489      158.085      147.384      120.462    24990.964    21722.069    14511.179       10.038        3.061      364.112       78.243        0.046      341.738       16.656      869.412
05/01/2013  16:47:00      196.520      119.254       58.526      147.646      122.307       93.399    21799.319    14958.911     8723.395        5.087        2.274      229.873       49.452        0.046      341.701       16.594      869.424
05/01/2013  16:48:00      368.356      184.060       51.793      204.576      147.871      113.806    41851.146    21865.704    12951.742       12.444        3.833      411.782       61.069        0.022      341.694       16.580      869.447
05/01/2013  16:49:00      285.988      204.223       87.225      155.669      143.519      116.160    24232.940    20597.807    13493.138        9.470        2.916      351.420       89.088        0.064      341.461       16.185      869.456
05/01/2013  16:50:00      372.908      217.099      128.228      210.172      134.683      134.735    44172.277    18139.437    18153.575       14.154        4.023      431.500      113.655        0.069      341.439       16.149      869.436
05/01/2013  16:51:00      171.699      139.400      143.802      168.002      112.240      110.383    28224.645    12597.811    12184.383        6.129        2.650      221.163      103.878        0.221      341.536       16.313      869.431
05/01/2013  16:52:00      330.144      147.506      116.581      190.154      153.829      127.995    36158.604    23663.292    16382.760       11.026        3.810      361.598       77.125        0.045      341.600       16.421      869.424
05/01/2013  16:53:00      301.023      166.666       38.917      223.638      167.953      115.490    50013.956    28208.245    13337.872       10.572        4.578      344.082       81.521        0.056      341.626       16.465      869.468
05/01/2013  16:54:00      396.328      276.208       47.380      243.263      159.783      107.867    59176.661    25530.716    11635.292       16.596        4.817      483.081       41.039        0.007      341.563       16.358      869.504
05/01/2013  16:55:00      387.229      249.785       89.733      184.956      156.731      122.022    34208.588    24564.580    14889.408       14.701        3.683      460.803       78.824        0.029      341.328       15.961      869.497
05/01/2013  16:56:00      374.273      196.354       77.895      156.735      129.015      101.156    24566.015    16644.881    10232.440       11.806        2.572      422.652       72.570        0.029      341.433       16.138      869.510
05/01/2013  16:57:00      303.198      187.566       63.281      173.284      126.522       99.943    30027.491    16007.907     9988.538        9.356        2.801      356.525       63.023        0.031      341.297       15.909      869.542
05/01/2013  16:58:00      192.223      141.425       50.934      141.405      111.475       95.334    19995.312    12426.636     9088.588        5.052        2.076      238.644       60.880        0.065      341.501       16.255      869.538
05/01/2013  16:59:00      345.240      225.703       45.969      157.095      107.376      104.137    24678.993    11529.536    10844.423       10.964        2.353      412.471       56.356        0.019      341.314       15.937      869.538
05/01/2013  17:00:00      193.639      190.098       37.655      137.211      116.388      108.926    18826.869    13546.244    11864.923        5.964        2.212      271.355       84.259        0.096      341.468       16.198      869.538
05/01/2013  17:01:00      180.000      144.605       30.424      120.559      108.986       87.453    14534.508    11877.928     7648.038        4.414        1.703      230.890       62.941        0.074      341.654       16.513      869.535
05/01/2013  17:02:00      397.920      235.394       53.151      177.962      147.982       95.392    31670.611    21898.678     9099.716       13.961        3.133      462.332       83.878        0.033      341.569       16.369      869.520
05/01/2013  17:03:00      300.701      130.496      107.502      209.943      137.229      136.236    44076.121    18831.753    18560.235       10.022        4.073      327.796      130.447        0.158      341.646       16.499      869.529
05/01/2013  17:04:00      126.612       81.915      117.929      150.682      130.264      103.782    22705.104    16968.811    10770.607        4.354        2.522      150.800       99.254        0.433      341.473       16.207      869.567
05/01/2013  17:05:00      325.905      172.625      103.631      185.497      149.156      129.762    34409.012    22247.629    16838.091       11.011        3.675      368.800      103.300        0.078      341.468       16.199      869.552
05/01/2013  17:06:00      175.859      167.458       46.589      149.999      127.397       97.505    22499.753    16229.979     9507.225        5.468        2.412      242.835       82.072        0.114      341.602       16.426      869.551
05/01/2013  17:07:00      249.986      209.856       -4.274      150.971      122.096      103.581    22792.370    14907.453    10729.102        7.748        2.421      326.393       85.515        0.069      341.444       16.158      869.589
05/01/2013  17:08:00      228.077      147.924       58.064      179.268      110.250       95.909    32136.903    12155.099     9198.479        6.537        2.675      271.847       51.988        0.037      341.692       16.579      869.589
05/01/2013  17:09:00      279.422      202.685      133.688      185.018      120.869      123.557    34231.516    14609.246    15266.355       10.056        3.205      345.193      107.085        0.096      341.371       16.033      869.594
05/01/2013  17:10:00      193.394       98.867      112.019      159.627      112.594       91.008    25480.644    12677.466     8282.396        5.307        2.322      217.200       75.525        0.121      341.327       15.959      869.562
05/01/2013  17:11:00      278.318      173.615       32.514      135.974      137.568      106.016    18488.990    18924.884    11239.453        7.865        2.433      328.029       73.992        0.051      341.597       16.418      869.566
05/01/2013  17:12:00      228.621      149.475       51.130      168.089      122.759       92.447    28253.869    15069.676     8546.516        6.454        2.594      273.149       79.800        0.085      341.785       16.737      869.581
05/01/2013  17:13:00      283.632      201.852       19.135      136.014      118.218       74.292    18499.918    13975.396     5519.259        7.977        1.900      348.125       50.372        0.021      341.557       16.349      869.575
05/01/2013  17:14:00      216.181      107.639       34.478      136.929       97.978       64.072    18749.566     9599.722     4105.178        4.598        1.623      241.496       43.795        0.033      341.794       16.752      869.555
05/01/2013  17:15:00      420.750      274.049       73.151      177.383      146.584      116.040    31464.797    21486.920    13465.268       16.194        3.321      502.129       97.158        0.037      341.520       16.287      869.540
05/01/2013  17:16:00      291.742      170.343       28.254      178.903      121.131       89.219    32006.418    14672.694     7959.948        8.477        2.732      337.832       49.163        0.021      341.430       16.134      869.534
05/01/2013  17:17:00      294.862      103.622       37.820      182.843      126.145      103.494    33431.554    15912.602    10711.029        7.957        3.003      312.540       40.466        0.017      341.417       16.112      869.541
05/01/2013  17:18:00      232.392       76.166       61.468      167.300      107.202       89.941    27989.355    11492.376     8089.379        5.557        2.379      244.556       56.610        0.054      341.565       16.364      869.522
05/01/2013  17:19:00      393.565      208.413       35.212      170.779      109.368       84.432    29165.310    11961.407     7128.835       12.390        2.413      445.342       56.615        0.016      341.631       16.474      869.554
05/01/2013  17:20:00      334.755      188.258       35.213      175.216      125.579       98.687    30700.533    15770.047     9739.186       10.247        2.810      384.060       65.125        0.029      341.564       16.362      869.537
05/01/2013  17:21:00      262.992      189.138       94.887      145.233      113.905      114.018    21092.572    12974.331    13000.135        8.050        2.353      323.941       60.945        0.035      341.535       16.312      869.533
05/01/2013  17:22:00      318.529      195.172       62.960      157.577      112.426       99.139    24830.482    12639.602     9828.612        9.540        2.365      373.568       54.664        0.021      341.584       16.396      869.555
05/01/2013  17:23:00      376.385      234.595       64.927      166.134      139.411      106.024    27600.641    19435.480    11241.044       12.959        2.914      443.509       65.833        0.022      341.348       15.994      869.519
05/01/2013  17:24:00      358.853      240.149       27.955      199.268      136.293      103.659    39707.538    18575.860    10745.149       12.812        3.451      431.796       52.641        0.015      341.540       16.319      869.533
05/01/2013  17:25:00      379.599      302.128       28.877      240.652      186.006      147.906    57913.618    34598.099    21876.233       17.528        5.719      485.156      100.041        0.043      341.421       16.118      869.511
05/01/2013  17:26:00      282.027      270.911       19.846      189.062      143.490      120.947    35744.357    20589.509    14628.224       11.213        3.548      391.065       85.559        0.048      341.279       15.878      869.527
05/01/2013  17:27:00      294.558      228.889       18.723      118.037      115.258       89.317    13932.674    13284.333     7977.542        8.734        1.760      373.035       61.184        0.027      341.438       16.147      869.546
05/01/2013  17:28:00      197.635       95.889       84.236      157.596       93.378       89.600    24836.629     8719.532     8028.184        4.846        2.079      219.668       86.635        0.156      341.623       16.463      869.562
05/01/2013  17:29:00      183.681      104.884       92.858      148.757      110.989       97.465    22128.609    12318.547     9499.513        4.865        2.197      211.517       91.564        0.187      341.493       16.241      869.573
05/01/2013  17:30:00      216.762       77.172       41.849      131.001       84.944       76.167    17161.284     7215.432     5801.475        4.243        1.509      230.090       57.463        0.062      341.574       16.378      869.581
05/01/2013  17:31:00      314.023      140.929       62.276      163.485      134.374      108.641    26727.499    18056.342    11802.834        8.946        2.829      344.197       63.205        0.034      341.631       16.474      869.590
05/01/2013  17:32:00      254.840      112.921       61.564      193.940      137.513      103.420    37612.786    18909.803    10695.630        7.434        3.361      278.738       63.528        0.052      341.528       16.300      869.583
05/01/2013  17:33:00      105.249       69.677       82.463      133.672      114.173       72.104    17868.143    13035.495     5198.934        2.941        1.805      126.223       58.587        0.215      341.636       16.485      869.585
05/01/2013  17:34:00      278.276      163.009       57.204      198.198      115.284       74.231    39282.295    13290.506     5510.208        8.267        2.904      322.505       75.842        0.055      341.690       16.575      869.589
05/01/2013  17:35:00      221.696      143.670      129.868      189.128      161.836      145.733    35769.383    26190.981    21238.240        8.491        4.160      264.178      137.072        0.269      341.468       16.198      869.554
05/01/2013  17:36:00      347.150      191.583      136.792      230.951      178.222      143.923    53338.165    31762.965    20713.960       14.085        5.291      396.506      129.938        0.107      341.446       16.160      869.548
05/01/2013  17:37:00      335.425      194.247       64.490      159.566      128.014       88.659    25461.328    16387.582     7860.370       10.205        2.485      387.611       60.148        0.024      341.385       16.058      869.598
05/01/2013  17:38:00      482.536      252.987       50.552      213.092      159.198      112.879    45408.290    25344.032    12741.706       19.143        4.175      544.834       75.141        0.019      341.309       15.929      869.593
05/01/2013  17:39:00      304.944      232.107       13.547      154.204      121.214       96.285    23778.799    14692.942     9270.834        9.739        2.387      383.229       51.701        0.018      341.353       16.003      869.599
05/01/2013  17:40:00      261.049      121.936       34.674      169.448      129.134       82.549    28712.738    16675.703     6814.364        6.820        2.610      288.123       33.717        0.014      341.461       16.188      869.609
05/01/2013  17:41:00      411.307      292.879       37.646      190.968      148.367      127.881    36468.859    22012.884    16353.460       16.559        3.742      504.927       69.417        0.019      341.292       15.899      869.613
05/01/2013  17:42:00      211.154      195.698       13.415      165.176      135.934       89.249    27283.247    18478.117     7965.434        6.839        2.686      287.895       47.386        0.027      341.390       16.067      869.632
05/01/2013  17:43:00      388.644      251.054       23.329      163.204      116.470      100.760    26635.437    13565.325    10152.627       13.248        2.518      462.680       59.606        0.017      341.326       15.958      869.654
05/01/2013  17:44:00      458.173      291.661       66.203      215.177      151.749      115.483    46300.953    23027.854    13336.331       19.100        4.133      543.129       84.459        0.024      341.195       15.735      869.624
05/01/2013  17:45:00      259.528      159.302       38.609      129.696       98.846       80.647    16821.041     9770.453     6503.988        6.365        1.655      304.519       39.382        0.017      341.395       16.075      869.622
05/01/2013  17:46:00      333.466      226.049       29.815      176.352      148.789      103.028    31099.897    22138.208    10614.724       11.351        3.193      402.862       60.045        0.022      341.430       16.133      869.644
05/01/2013  17:47:00      345.402      206.788       55.977      180.820      132.251      102.301    32695.739    17490.353    10465.579       11.291        3.033      402.572       59.217        0.022      341.352       16.001      869.637
05/01/2013  17:48:00      270.417      148.247       38.810      179.149      124.114       78.945    32094.351    15404.398     6232.354        7.516        2.687      308.387       62.420        0.041      341.422       16.119      869.646
05/01/2013  17:49:00      295.542      202.019       69.321      172.910      122.680      106.817    29897.738    15050.280    11409.899        9.465        2.818      357.990       87.973        0.060      341.512       16.272      869.646
05/01/2013  17:50:00      284.388       89.305       59.062      191.627      143.756      110.431    36721.082    20665.774    12194.957        8.095        3.479      298.080       74.725        0.063      341.497       16.247      869.658
05/01/2013  17:51:00      269.145      149.997       64.828      171.723      130.129      113.653    29488.925    16933.589    12916.988        7.923        2.967      308.120      105.210        0.117      341.492       16.239      869.682
05/01/2013  17:52:00      254.309      149.291       79.144      169.548      120.462      112.076    28746.602    14511.079    12561.127        7.451        2.791      294.891       78.430        0.071      341.271       15.865      869.681
05/01/2013  17:53:00      218.892      163.436      119.040      166.116      124.208      110.359    27594.634    15427.537    12179.042        7.199        2.760      273.176      101.410        0.138      341.284       15.886      869.676
05/01/2013  17:54:00      368.119      211.979       83.140      195.579      151.278      111.614    38251.313    22884.913    12457.723       13.046        3.680      424.790       43.798        0.011      341.340       15.981      869.688
05/01/2013  17:55:00      355.611      202.642       38.888      126.371      104.270       92.106    15969.529    10872.142     8483.533       10.217        1.766      409.296       25.788        0.004      341.364       16.022      869.699
05/01/2013  17:56:00      210.104      134.886       23.422      142.847      105.721       84.857    20405.266    11176.850     7200.687        5.083        1.939      249.675       54.798        0.048      341.456       16.176      869.713
05/01/2013  17:57:00      457.229      311.003       57.035      189.151      156.829      112.974    35778.034    24595.349    12763.058       19.107        3.657      552.975       80.660        0.021      341.262       15.849      869.712
05/01/2013  17:58:00      283.855      146.813       49.972      203.874      158.731       96.055    41564.714    25195.397     9226.617        9.029        3.799      319.575       58.129        0.033      341.284       15.887      869.710
05/01/2013  17:59:00      334.165      200.544       66.620      167.982      134.840      120.410    28218.102    18181.716    14498.662       10.860        3.045      389.723      101.293        0.068      341.264       15.853      869.732
05/01/2013  18:00:00      228.074      144.175       63.208      201.890      106.371       99.436    40759.723    11314.869     9887.488        6.937        3.098      269.822       60.183        0.050      341.195       15.738      869.724
05/01/2013  18:01:00      139.209      149.227      102.478      147.060      110.468      125.611    21626.601    12203.208    15778.015        5.087        2.480      204.078       84.144        0.170      341.336       15.975      869.732
05/01/2013  18:02:00      222.615      150.702       42.436      148.761      142.898      102.252    22129.883    20419.902    10455.392        6.353        2.650      268.828       49.301        0.034      341.309       15.929      869.744
05/01/2013  18:03:00      271.514      185.261       43.142      175.154      129.087      103.841    30679.077    16663.390    10782.927        8.400        2.906      328.697       48.117        0.021      341.288       15.895      869.754
05/01/2013  18:04:00      313.674      242.629       74.297      190.254      127.226      114.687    36196.464    16186.367    13153.108       11.415        3.277      396.560       59.599        0.023      341.311       15.933      869.767
05/01/2013  18:05:00      407.731      200.365       63.850      226.893      166.027      116.285    51480.414    27565.085    13522.140       15.150        4.628      454.302       93.095        0.042      341.247       15.825      869.759
05/01/2013  18:06:00      416.904      233.974      116.341      203.273      145.435      111.240    41320.029    21151.419    12374.396       15.845        3.742      478.072      100.871        0.045      341.266       15.856      869.774
05/01/2013  18:07:00      234.236      124.875       86.416      179.623      122.124      101.536    32264.255    14914.239    10309.485        6.770        2.874      265.443       90.093        0.115      341.357       16.009      869.786
05/01/2013  18:08:00      356.445      176.093       47.917      172.066      134.656       82.772    29606.829    18132.260     6851.181       10.746        2.730      397.570       34.853        0.008      341.217       15.774      869.793
05/01/2013  18:09:00      302.859      138.224       21.081      136.543      127.539       80.565    18643.881    16266.177     6490.712        7.633        2.070      332.911       66.472        0.040      341.303       15.919      869.784
05/01/2013  18:10:00      327.413      213.531       53.998      119.162      110.538       86.301    14199.651    12218.665     7447.792        9.478        1.693      390.890       43.350        0.012      341.316       15.941      869.794
05/01/2013  18:11:00      315.588      215.148       91.337      137.280      102.071       80.068    18845.753    10418.480     6410.829        9.494        1.784      381.948       39.156        0.011      341.342       15.985      869.803
05/01/2013  18:12:00      352.098      177.525       37.843      161.955      115.021       82.961    26229.312    13229.906     6882.582       10.162        2.317      394.320       36.242        0.008      341.365       16.023      869.819
05/01/2013  18:13:00      173.201      106.048       26.598       94.983       71.393       53.633     9021.840     5096.973     2876.536        2.947        0.850      203.088       25.054        0.015      341.516       16.281      869.827
05/01/2013  18:14:00      141.052      103.540       60.944      112.867       79.127       68.526    12738.982     6261.084     4695.783        2.901        1.185      174.975       63.657        0.132      341.501       16.256      869.831
05/01/2013  18:15:00      166.475       84.237       33.206      109.417       74.140       75.852    11972.084     5496.705     5753.452        2.956        1.161      186.574       29.837        0.026      341.470       16.202      869.855
05/01/2013  18:16:00      204.869      132.539       43.378      143.719      112.634      105.586    20655.185    12686.308    11148.324        5.295        2.224      244.004       68.438        0.079      341.376       16.041      869.875
05/01/2013  18:17:00      382.770      227.882       92.648      161.988      131.193      103.264    26240.057    17211.595    10663.552       13.056        2.706      445.469       75.930        0.029      341.154       15.665      869.861
05/01/2013  18:18:00      209.552      127.757       38.550      145.270      100.265       75.667    21103.509    10053.048     5725.490        4.929        1.844      245.426       50.241        0.042      341.289       15.895      869.855
05/01/2013  18:19:00      287.650      217.487       75.779      189.039      139.159      114.773    35735.862    19365.328    13172.736       10.202        3.414      360.615       57.385        0.025      341.194       15.735      869.858
05/01/2013  18:20:00      300.738      189.433       90.593      197.917      127.295      118.335    39171.336    16204.083    14003.056       10.195        3.469      355.427       96.511        0.074      341.176       15.703      869.847
05/01/2013  18:21:00      365.073      201.246       77.896      159.939      110.483      113.532    25580.413    12206.553    12889.444       11.525        2.534      416.867       80.077        0.037      341.184       15.716      869.858
05/01/2013  18:22:00      341.145      181.215       63.072      175.914      137.929      107.940    30945.741    19024.503    11650.982       10.740        3.081      386.289       67.094        0.030      341.109       15.591      869.842
05/01/2013  18:23:00      316.701      180.407       43.292      149.870      127.280       84.507    22461.141    16200.244     7141.363        9.025        2.290      364.480       28.420        0.006      341.216       15.771      869.857
05/01/2013  18:24:00      155.182      118.633       53.588      131.925       93.625       83.754    17404.109     8765.554     7014.667        3.710        1.659      195.334       66.939        0.117      341.213       15.767      869.841
05/01/2013  18:25:00      299.886      156.438       62.102      141.236      149.855       98.333    19947.684    22456.451     9669.469        8.516        2.604      338.237       59.190        0.031      341.203       15.748      869.851
05/01/2013  18:26:00      255.490      144.214       77.572      166.488      120.093      102.231    27718.382    14422.317    10451.104        7.233        2.630      293.382       83.252        0.081      341.225       15.788      869.860
05/01/2013  18:27:00      218.774      161.659      137.399      167.139      127.951      121.622    27935.279    16371.559    14791.877        7.598        2.955      272.022       89.307        0.108      341.054       15.496      869.835
05/01/2013  18:28:00      181.000      113.187       92.254      163.717      121.295      114.387    26803.134    14712.503    13084.370        5.433        2.730      213.477       91.776        0.185      341.179       15.708      869.866
05/01/2013  18:29:00      293.016      127.486       51.691      170.379      132.921      117.221    29028.859    17667.993    13740.738        8.260        3.022      319.549       78.080        0.060      341.182       15.715      869.883
05/01/2013  18:30:00      285.414      158.136       43.287      168.978      142.498      118.491    28553.721    20305.682    14040.075        8.561        3.145      326.294       74.229        0.052      341.072       15.527      869.899
05/01/2013  18:31:00      318.661      176.564       62.741      158.636      128.839       96.655    25165.388    16599.582     9342.240        9.387        2.555      364.307       64.622        0.031      341.126       15.620      869.902
05/01/2013  18:32:00      344.956      191.979       71.193      149.072      118.266      102.544    22222.592    13986.806    10515.185       10.381        2.336      394.779       71.241        0.033      341.179       15.708      869.914
05/01/2013  18:33:00      312.581      172.971       34.984      166.803      125.623       79.252    27823.388    15781.087     6280.852        8.936        2.494      357.248       69.461        0.038      341.125       15.617      869.935
05/01/2013  18:34:00      391.759      240.510       47.573      170.681      116.646       99.234    29131.951    13606.232     9847.385       13.308        2.629      459.696       49.549        0.012      341.065       15.515      869.938
05/01/2013  18:35:00      281.721      140.871       39.793      162.753      113.064       92.583    26488.419    12783.548     8571.560        7.431        2.392      314.978       69.618        0.049      341.119       15.606      869.939
05/01/2013  18:36:00      301.060      138.456       57.888      163.773      115.045       87.963    26821.570    13235.250     7737.498        8.047        2.390      331.372       65.137        0.039      341.133       15.631      869.951
05/01/2013  18:37:00      378.570      213.311      106.986      211.831      157.134      122.632    44872.395    24691.108    15038.723       14.242        4.230      434.531       86.814        0.040      341.119       15.607      869.959
05/01/2013  18:38:00      293.153      191.438      125.194      171.321      122.230      112.900    29351.005    14940.055    12746.372        9.764        2.852      350.125       91.902        0.069      341.077       15.535      869.986
05/01/2013  18:39:00      277.836      120.817       71.736      177.983      112.104       99.130    31678.100    12567.306     9826.773        7.549        2.704      302.968       82.526        0.074      341.047       15.485      869.978
05/01/2013  18:40:00      239.966      116.504       87.367      221.826      138.577      125.843    49206.985    19203.689    15836.448        8.150        4.212      266.752      113.233        0.180      341.060       15.507      869.959
05/01/2013  18:41:00      319.862      170.674       48.011      198.520      128.168       93.536    39410.206    16427.087     8748.981        9.916        3.229      362.548       75.316        0.043      341.052       15.495      869.963
05/01/2013  18:42:00      349.926      196.170       76.648      168.099      126.409       94.322    28257.426    15979.163     8896.724       10.996        2.657      401.162       73.793        0.034      341.121       15.610      869.985
05/01/2013  18:43:00      224.112      155.868       42.072      140.762      127.949       92.077    19813.952    16370.920     8478.261        6.047        2.233      272.985       51.824        0.036      341.108       15.588      869.996
05/01/2013  18:44:00      290.492      209.893       54.623      172.706      125.829       99.173    29827.289    15833.037     9835.320        9.345        2.775      358.386       29.754        0.007      341.137       15.639      870.004
05/01/2013  18:45:00      247.379      153.231       60.341      116.481       88.643       96.016    13567.856     7857.667     9218.990        5.948        1.532      290.992       42.522        0.021      341.101       15.577      870.011
05/01/2013  18:46:00      208.466      161.915       76.272      129.001       95.398       96.390    16641.175     9100.696     9291.092        5.526        1.752      263.959       68.053        0.066      341.091       15.559      870.019
05/01/2013  18:47:00      211.501      119.699       36.182      164.579      132.676       82.408    27086.279    17602.890     6791.057        5.592        2.574      243.023       57.061        0.055      341.160       15.677      870.027
05/01/2013  18:48:00      245.431      100.988       53.491      155.050       96.662       94.680    24040.379     9343.610     8964.213        5.782        2.117      265.396       50.036        0.036      341.055       15.500      870.032
05/01/2013  18:49:00      323.899      144.481       53.803      160.522      126.594       93.232    25767.348    16026.059     8692.184        8.957        2.524      354.662       72.377        0.042      341.092       15.562      870.034
05/01/2013  18:50:00      241.282      136.176      107.335      156.637      135.481       96.109    24535.099    18355.028     9236.975        7.020        2.606      277.057       77.116        0.077      341.086       15.551      870.033
05/01/2013  18:51:00      175.735       79.051       51.961      111.960      101.301       73.397    12535.094    10261.792     5387.191        3.400        1.409      192.696       36.615        0.036      341.083       15.546      870.055
05/01/2013  18:52:00      290.360      166.504       38.047      117.208       99.175       80.857    13737.704     9835.663     6537.932        7.179        1.506      334.712       53.553        0.026      341.085       15.551      870.055
05/01/2013  18:53:00      215.087      139.302       39.929      130.335       85.230       65.283    16987.314     7264.179     4261.857        4.788        1.426      256.257       46.081        0.032      341.077       15.537      870.065
05/01/2013  18:54:00      265.029      151.636       69.822      143.350       98.420       99.473    20549.097     9686.582     9894.830        6.911        2.007      305.342       59.984        0.039      341.047       15.487      870.080
05/01/2013  18:55:00      343.506      161.855       29.655      141.065      130.913       75.458    19899.277    17138.124     5693.836        9.390        2.137      379.729       22.547        0.004      341.063       15.513      870.081
05/01/2013  18:56:00      278.331      177.987       54.729      136.132       98.732       66.358    18531.876     9748.047     4403.346        7.241        1.634      330.374       40.897        0.015      341.102       15.579      870.098
05/01/2013  18:57:00      180.532      120.757       24.797      109.318       82.152       49.368    11950.336     6748.970     2437.173        3.446        1.057      217.196       26.463        0.015      341.097       15.569      870.107
05/01/2013  18:58:00      279.149      148.958       25.068      112.449      100.485       83.473    12644.776    10097.271     6967.732        6.522        1.485      316.406       34.921        0.012      341.137       15.636      870.114
05/01/2013  18:59:00      175.401      141.392      110.310      114.023      115.441       90.021    13001.180    13326.692     8103.796        4.867        1.722      225.294       59.793        0.070      341.086       15.552      870.101
05/01/2013  19:00:00      245.523      143.021       67.511      131.290      100.373       84.102    17237.127    10074.669     7073.191        5.983        1.719      284.142       66.571        0.055      341.045       15.481      870.120
05/01/2013  19:01:00      165.787       89.583       64.538      122.588       88.490       63.659    15027.851     7830.477     4052.442        3.329        1.346      188.442       52.353        0.077      341.115       15.601      870.140
05/01/2013  19:02:00      149.779      109.507       69.285      127.743      107.957       73.500    16318.206    11654.750     5402.226        3.630        1.669      185.542       70.573        0.145      340.988       15.387      870.133
05/01/2013  19:03:00      171.820       83.024       55.489       99.214      104.195       62.244     9843.498    10856.669     3874.274        3.203        1.229      190.828       57.100        0.090      340.974       15.364      870.144
05/01/2013  19:04:00      173.915      100.006       72.126      108.438       83.317       80.404    11758.712     6941.771     6464.777        3.530        1.258      200.618       64.872        0.105      341.082       15.546      870.151
05/01/2013  19:05:00      184.988       85.049       63.948      114.191      101.437       67.841    13039.627    10289.393     4602.402        3.673        1.397      203.602       52.394        0.066      341.069       15.524      870.149
05/01/2013  19:06:00      231.546      159.270       83.216      171.139      105.172       97.816    29288.493    11061.085     9568.044        6.790        2.496      281.035       66.795        0.056      341.016       15.433      870.138
05/01/2013  19:07:00      338.498      162.490       80.785      190.809      131.749      114.442    36408.257    17357.814    13097.037       10.718        3.343      375.478      106.184        0.080      341.001       15.408      870.133
05/01/2013  19:08:00      249.225      129.255      124.594      189.093      141.291      107.346    35756.193    19963.177    11523.079        8.078        3.362      280.749       99.694        0.126      341.030       15.458      870.138
05/01/2013  19:09:00       86.772       37.397       40.961       96.883       84.717       64.527     9386.370     7177.016     4163.798        1.566        1.036       94.488       47.349        0.251      340.927       15.285      870.174
05/01/2013  19:10:00      164.428      113.500       99.965      130.659       97.892       85.625    17071.888     9582.815     7331.613        4.194        1.699      199.797       79.491        0.158      340.873       15.192      870.187
05/01/2013  19:11:00      199.022       99.399       81.596      159.695      113.546       84.628    25502.585    12892.704     7161.935        5.084        2.278      222.464       66.467        0.089      340.975       15.365      870.195
05/01/2013  19:12:00      172.082       80.104       85.424      151.490       94.585       71.487    22949.198     8946.317     5110.351        4.016        1.850      189.813       64.797        0.117      340.943       15.311      870.212
05/01/2013  19:13:00      212.529      102.723       61.723      159.833      130.035      117.278    25546.591    16909.117    13754.123        5.786        2.810      236.052      104.188        0.195      340.974       15.362      870.207
05/01/2013  19:14:00      195.136      108.364       61.046      138.786       88.867       67.410    19261.427     7897.336     4544.105        4.262        1.585      223.206       50.590        0.051      341.012       15.427      870.222
05/01/2013  19:15:00      176.850       95.735       68.734      117.126       76.925       80.286    13718.574     5917.500     6445.799        3.562        1.304      201.100       58.088        0.083      341.003       15.412      870.243
05/01/2013  19:16:00      241.005       97.892       75.968      169.416      126.684       90.621    28701.727    16048.912     8212.225        6.319        2.648      260.127       92.430        0.126      340.954       15.329      870.215
05/01/2013  19:17:00      235.736      114.417       51.280      107.215       75.815       77.457    11495.010     5747.890     5999.651        4.726        1.162      262.036       68.008        0.067      340.936       15.297      870.245
05/01/2013  19:18:00      118.894      107.923       83.640      104.949       66.042       65.106    11014.292     4361.503     4238.766        2.619        0.981      160.571       55.753        0.121      340.836       15.131      870.255
05/01/2013  19:19:00      129.001       50.244       54.367      108.419       67.859       49.032    11754.748     4604.831     2404.158        2.044        0.938      138.441       14.695        0.011      340.838       15.135      870.263
05/01/2013  19:20:00      145.337      140.108      127.045      107.212       89.173       79.182    11494.424     7951.803     6269.860        4.130        1.286      201.874       63.847        0.100      340.914       15.260      870.275
05/01/2013  19:21:00       84.877       83.938       99.374       84.067       73.934       55.696     7067.324     5466.235     3102.073        1.988        0.782      119.373       28.615        0.057      340.801       15.070      870.301
05/01/2013  19:22:00      105.130       88.962       75.300      102.021       74.587       68.095    10408.194     5563.280     4636.936        2.262        1.030      137.719       51.508        0.140      340.897       15.233      870.293
05/01/2013  19:23:00       89.819       63.757       71.077       83.428       59.669       56.333     6960.294     3560.436     3173.371        1.544        0.685      110.147       47.549        0.186      340.810       15.087      870.302
05/01/2013  19:24:00      140.947       62.115       52.083      103.466       57.782       57.391    10705.181     3338.751     3293.721        2.188        0.867      154.027       41.127        0.071      340.819       15.101      870.299
05/01/2013  19:25:00      217.623      123.659       77.309      128.166      108.494       71.770    16426.523    11770.955     5150.903        5.098        1.667      250.303       69.092        0.076      340.896       15.230      870.305
05/01/2013  19:26:00      155.919       78.270       82.692      136.668      101.225       76.217    18678.008    10246.445     5809.032        3.600        1.737      174.462       71.965        0.170      340.814       15.090      870.316
05/01/2013  19:27:00       90.491       90.106       55.502       83.443       68.914       65.530     6962.674     4749.157     4294.217        1.769        0.800      127.702       44.974        0.124      340.757       14.997      870.327
05/01/2013  19:28:00      192.306      104.818       77.859       96.271       91.275       58.912     9268.192     8331.137     3470.659        3.755        1.053      219.017       31.930        0.021      340.864       15.176      870.350
05/01/2013  19:29:00      172.495      123.041       66.648       75.569       60.387       59.725     5710.625     3646.590     3567.134        3.113        0.646      211.881       39.377        0.035      340.849       15.151      870.352
05/01/2013  19:30:00      197.444       92.350       47.970      117.487       82.190       76.214    13803.134     6755.157     5808.604        3.809        1.318      217.974       57.846        0.070      340.803       15.072      870.361
05/01/2013  19:31:00      131.586       74.560       62.936      141.305       74.753       91.860    19966.973     5588.060     8438.209        3.041        1.700      151.241       84.950        0.315      340.729       14.949      870.357
05/01/2013  19:32:00      158.985       83.691       56.431       89.625       79.841       67.153     8032.607     6374.536     4509.518        2.719        0.946      179.668       56.573        0.099      340.711       14.918      870.372
05/01/2013  19:33:00      103.187       58.202       37.182       55.600       51.621       47.729     3091.374     2664.706     2278.087        1.172        0.402      118.469       25.172        0.045      340.730       14.953      870.372
05/01/2013  19:34:00      130.997       62.304       37.916       74.865       63.963       39.992     5604.836     4091.325     1599.352        1.689        0.565      145.059       35.341        0.059      340.746       14.978      870.377
05/01/2013  19:35:00      105.220       65.941       42.331       51.940       47.333       43.415     2697.813     2240.397     1884.857        1.202        0.341      124.175       26.654        0.046      340.699       14.899      870.388
05/01/2013  19:36:00      101.160       69.140       29.698       52.532       50.727       44.944     2759.617     2573.208     2019.968        1.162        0.368      122.530       31.555        0.066      340.753       14.990      870.387
05/01/2013  19:37:00      184.830      108.477       40.686      108.122       65.605       46.277    11690.425     4304.019     2141.558        3.286        0.907      214.312       47.018        0.048      340.820       15.103      870.390
05/01/2013  19:38:00      175.252       83.345       38.148       65.470       48.627       50.930     4286.327     2364.601     2593.872        2.418        0.462      194.061       24.331        0.016      340.756       14.994      870.395
05/01/2013  19:39:00      151.414       82.800       37.679       78.409       57.548       41.548     6148.003     3311.752     1726.231        2.119        0.559      172.575       23.686        0.019      340.732       14.955      870.407
05/01/2013  19:40:00      166.667      114.144       44.700       70.518       52.485       43.904     4972.840     2754.677     1927.559        2.623        0.483      202.007       30.596        0.023      340.785       15.043      870.409
05/01/2013  19:41:00      124.115       47.411       26.213       67.388       72.665       42.870     4541.204     5280.183     1837.867        1.500        0.583      132.862       20.609        0.024      340.691       14.885      870.429
05/01/2013  19:42:00      159.172       84.118       22.779       86.602       64.009       42.573     7499.913     4097.172     1812.481        2.317        0.670      180.032       26.246        0.021      340.753       14.990      870.439
05/01/2013  19:43:00      153.523       82.110       42.295       91.922       54.402       49.012     8449.572     2959.629     2402.170        2.295        0.691      174.102       38.300        0.048      340.627       14.776      870.453
05/01/2013  19:44:00      124.065       70.042       27.928       77.928       57.384       46.845     6072.805     3292.968     2194.479        1.632        0.578      142.471       29.634        0.043      340.652       14.820      870.478
05/01/2013  19:45:00      160.333      104.645       43.711       76.918       74.615       54.529     5916.386     5567.368     2973.405        2.651        0.723      191.461       30.619        0.026      340.695       14.890      870.501
05/01/2013  19:46:00      103.822       24.963       32.739       91.540       52.368       49.713     8379.596     2742.358     2471.422        1.303        0.680      106.781       39.105        0.134      340.613       14.754      870.518
05/01/2013  19:47:00       64.902       18.101       34.127       87.011       61.729       51.568     7570.940     3810.490     2659.304        0.987        0.702       67.379       30.531        0.205      340.537       14.626      870.522
05/01/2013  19:48:00      160.720       86.591       12.699       71.655       57.436       37.965     5134.403     3298.930     1441.359        2.168        0.494      182.562       14.529        0.006      340.575       14.688      870.548
05/01/2013  19:49:00      218.907      100.704       51.138       94.061       59.016       52.071     8847.563     3482.922     2711.384        3.786        0.752      240.960       27.662        0.013      340.648       14.811      870.563
05/01/2013  19:50:00      136.329       50.714       25.793       84.946       67.418       42.780     7215.885     4545.186     1830.105        1.770        0.680      145.456       31.966        0.048      340.621       14.767      870.561
05/01/2013  19:51:00      140.480       97.490       35.258       84.072       56.879       44.166     7068.141     3235.178     1950.622        2.137        0.613      170.994       23.167        0.018      340.695       14.892      870.571
05/01/2013  19:52:00      183.118      122.036       71.149      115.084       88.438       85.066    13244.385     7821.240     7236.231        4.089        1.415      220.057       60.967        0.077      340.625       14.771      870.575
05/01/2013  19:53:00       92.553       61.275       54.425       74.388       59.399       51.186     5533.600     3528.215     2619.981        1.348        0.584      110.998       37.575        0.115      340.526       14.607      870.598
05/01/2013  19:54:00      181.286       68.443       57.148       73.122       65.421       60.578     5346.840     4279.910     3669.662        2.705        0.665      193.775       49.616        0.066      340.598       14.727      870.608
05/01/2013  19:55:00      112.529       61.150       50.190       70.353       50.385       58.728     4949.493     2538.623     3448.939        1.493        0.547      128.071       46.969        0.135      340.585       14.706      870.625
05/01/2013  19:56:00       80.957       61.310       53.034       75.574       62.853       50.079     5711.371     3950.457     2507.859        1.265        0.608      101.552       44.832        0.195      340.289       14.208      870.640
05/01/2013  19:57:00       98.456       50.152       49.374       61.753       41.054       38.301     3813.469     1685.418     1466.983        1.081        0.348      110.494       27.913        0.064      340.469       14.511      870.655
05/01/2013  19:58:00       98.762       45.781       62.621       72.670       49.845       46.942     5280.865     2484.519     2203.597        1.287        0.498      108.857       27.480        0.064      340.462       14.498      870.670
05/01/2013  19:59:00       87.717       18.240       19.216       83.637       48.487       37.874     6995.135     2350.943     1434.475        0.959        0.539       89.593       30.598        0.117      340.429       14.443      870.691
05/01/2013  20:00:00      133.214       12.757       21.014       66.283       41.100       36.649     4393.480     1689.233     1343.185        1.289        0.371      133.823       31.520        0.055      340.343       14.297      870.704
05/01/2013  20:01:00       73.384       25.050        5.035       41.818       41.346       29.838     1748.779     1709.526      890.288        0.519        0.217       77.542       12.258        0.025      340.249       14.139      870.727
05/01/2013  20:02:00      169.827       95.769       34.282       59.628       46.272       47.776     3555.500     2141.076     2282.567        2.358        0.399      194.969       31.649        0.026      340.522       14.598      870.740
05/01/2013  20:03:00      165.327       71.965       39.271       62.694       52.343       43.772     3930.590     2739.804     1915.997        2.132        0.429      180.311       33.881        0.035      340.503       14.566      870.755
05/01/2013  20:04:00      169.825       77.599       30.432       48.335       35.924       39.580     2336.280     1290.509     1566.606        2.049        0.260      186.714       19.777        0.011      340.436       14.454      870.780
05/01/2013  20:05:00      111.397       58.132       60.388       76.114       68.766       43.911     5793.392     4728.726     1928.175        1.594        0.623      125.653       36.825        0.086      340.297       14.219      870.795
05/01/2013  20:06:00      102.912       55.311       41.186       55.779       44.800       39.939     3111.324     2007.069     1595.101        1.103        0.336      116.834       29.429        0.063      340.247       14.136      870.817
05/01/2013  20:07:00       84.402        8.322       16.770       33.248       42.110       29.696     1105.426     1773.250      881.854        0.562        0.188       84.811       13.674        0.026      340.241       14.124      870.837
05/01/2013  20:08:00       76.494       53.297       64.318       52.128       38.425       34.180     2717.360     1476.450     1168.301        0.909        0.268       93.230       20.907        0.050      340.209       14.071      870.847
05/01/2013  20:09:00       87.565       60.651       39.886       75.589       45.152       36.838     5713.694     2038.734     1357.010        1.102        0.455      106.518       30.640        0.083      340.320       14.258      870.856
05/01/2013  20:10:00       97.280       37.144       42.501       61.918       49.165       38.386     3833.853     2417.215     1473.497        1.019        0.386      104.130       30.918        0.088      340.289       14.207      870.859
05/01/2013  20:11:00      143.756       82.809       48.361       64.879       48.342       47.002     4209.262     2336.931     2209.182        1.931        0.438      165.901       33.344        0.040      340.417       14.420      870.868
05/01/2013  20:12:00       94.365       55.045       50.533       41.428       32.100       28.874     1716.308     1030.389      833.708        0.903        0.179      109.246       16.796        0.024      340.267       14.169      870.880
05/01/2013  20:13:00       83.107       56.232       64.037       63.771       63.538       48.676     4066.713     4037.078     2369.382        1.232        0.524      100.343       36.092        0.129      340.234       14.114      870.890
05/01/2013  20:14:00      127.368       48.870       43.351       65.773       72.122       47.901     4326.081     5201.651     2294.545        1.615        0.591      136.422       46.354        0.115      340.355       14.317      870.904
05/01/2013  20:15:00      117.222       73.012       47.378       57.347       43.357       49.380     3288.630     1879.852     2438.431        1.446        0.380      138.100       29.252        0.045      340.348       14.307      870.920
05/01/2013  20:16:00      134.154       46.264       55.068       80.564       64.773       44.517     6490.525     4195.511     1981.735        1.792        0.633      141.907       37.619        0.070      340.315       14.248      870.935
05/01/2013  20:17:00       78.370       63.360       58.030       53.377       50.338       39.541     2849.052     2533.928     1563.510        1.023        0.347      100.779       33.670        0.112      340.135       13.946      870.948
05/01/2013  20:18:00       88.604       18.540       26.812       50.819       47.979       36.160     2582.558     2301.950     1307.553        0.755        0.310       90.523       27.204        0.090      340.176       14.016      870.953
05/01/2013  20:19:00      121.419       33.340       22.199       48.174       40.321       32.687     2320.706     1625.775     1068.470        1.068        0.251      125.913       30.187        0.057      340.212       14.076      870.965
05/01/2013  20:20:00       88.267       15.944       22.439       80.804       33.937       36.905     6529.233     1151.708     1361.954        0.879        0.452       89.695       34.422        0.147      340.235       14.115      870.972
05/01/2013  20:21:00      121.088       49.417       14.010       76.893       54.401       43.319     5912.601     2959.468     1876.562        1.402        0.537      130.783       44.331        0.115      340.333       14.280      870.987
05/01/2013  20:22:00      174.935       37.240       26.660       77.217       61.864       41.294     5962.407     3827.095     1705.201        2.210        0.575      178.855       26.799        0.022      340.350       14.307      871.001
05/01/2013  20:23:00      126.297       64.955       29.971       46.675       45.602       42.962     2178.512     2079.548     1845.753        1.359        0.305      142.021       26.054        0.034      340.290       14.208      871.017
05/01/2013  20:24:00       93.863       39.243       26.957       68.460       51.927       37.479     4686.729     2696.399     1404.680        0.993        0.439      101.736       32.504        0.102      340.241       14.125      871.025
05/01/2013  20:25:00       97.524       63.031       26.927       77.245       44.800       40.361     5966.810     2007.077     1628.980        1.190        0.480      116.120       46.856        0.163      340.270       14.174      871.030
05/01/2013  20:26:00       94.457       12.332       20.172       59.154       38.290       29.002     3499.221     1466.156      841.115        0.764        0.290       95.259       23.018        0.058      340.110       13.907      871.033
05/01/2013  20:27:00      101.442       54.939       26.403       56.544       43.340       39.617     3197.278     1878.337     1569.520        1.032        0.332      115.363       20.243        0.031      340.237       14.118      871.036
05/01/2013  20:28:00      112.293       67.972       22.315       46.746       34.694       33.196     2185.147     1203.670     1101.995        1.111        0.225      131.263       23.636        0.032      340.274       14.180      871.045
05/01/2013  20:29:00      132.154       83.747       38.613       52.122       35.409       32.830     2716.748     1253.822     1077.841        1.551        0.252      156.455       26.278        0.028      340.315       14.251      871.048
05/01/2013  20:30:00       99.627       41.956       29.854       40.925       36.688       30.711     1674.838     1346.006      943.191        0.827        0.198      108.101       26.346        0.059      340.236       14.116      871.063
05/01/2013  20:31:00       85.282       60.500       56.819       39.197       27.864       29.474     1536.391      776.421      868.709        0.867        0.159      104.562       14.449        0.019      340.162       13.993      871.087
05/01/2013  20:32:00      122.421       63.365       45.457       49.051       29.550       33.757     2406.037      873.206     1139.550        1.274        0.221      137.848       29.376        0.045      340.195       14.048      871.090
05/01/2013  20:33:00      106.737       67.355       39.456       42.411       26.384       31.600     1798.663      696.113      998.551        1.049        0.175      126.212       29.936        0.056      340.118       13.917      871.097
05/01/2013  20:34:00      109.240       48.641       19.587       59.623       37.449       32.982     3554.888     1402.419     1087.831        1.036        0.302      119.580       22.640        0.036      340.057       13.814      871.111
05/01/2013  20:35:00       99.701       13.328       11.257       67.893       43.718       34.913     4609.495     1911.282     1218.927        0.899        0.387      100.588       20.758        0.043      340.119       13.919      871.116
05/01/2013  20:36:00       88.605       49.222       29.406       27.051       26.675       28.888      731.740      711.558      834.533        0.671        0.114      101.359       19.541        0.037      340.117       13.918      871.115
05/01/2013  20:37:00       93.239       14.397       21.553       47.202       40.155       30.823     2227.983     1612.450      950.036        0.708        0.240       94.344       20.941        0.049      340.055       13.812      871.116
05/01/2013  20:38:00       82.555       26.758       12.529       38.849       37.190       27.465     1509.221     1383.102      754.331        0.567        0.182       86.783       26.840        0.096      340.042       13.790      871.123
05/01/2013  20:39:00       86.818       38.291       10.976       34.995       24.726       22.849     1224.682      611.351      522.078        0.574        0.118       94.887       19.030        0.040      339.982       13.689      871.128
05/01/2013  20:40:00      121.659       44.679       14.192       24.025       23.816       14.773      577.196      567.222      218.235        0.918        0.068      129.604       10.715        0.007      340.038       13.783      871.140
05/01/2013  20:41:00       91.534       31.507        4.268       33.429       19.018       18.676     1117.530      361.673      348.808        0.561        0.091       96.805        8.328        0.007      339.973       13.672      871.149
05/01/2013  20:42:00      124.657       14.306       11.880       45.686       39.409       28.915     2087.229     1553.081      836.083        1.018        0.224      125.475       22.931        0.033      340.043       13.792      871.156
05/01/2013  20:43:00      111.122       42.027       11.240       48.067       36.210       29.633     2310.403     1311.159      878.109        0.937        0.225      118.804       25.059        0.044      339.991       13.705      871.167
05/01/2013  20:44:00      104.338       55.346       27.733       45.334       31.291       35.413     2055.213      979.109     1254.059        0.950        0.214      118.109       22.232        0.035      340.025       13.761      871.180
05/01/2013  20:45:00       98.748       71.586       48.253       42.834       37.627       45.720     1834.768     1415.762     2090.331        1.127        0.267      121.966       26.191        0.046      340.085       13.862      871.201
05/01/2013  20:46:00      107.981       60.597       46.585       37.210       32.396       30.308     1384.564     1049.499      918.564        1.043        0.168      123.821       19.892        0.026      340.075       13.847      871.213
05/01/2013  20:47:00       76.710       50.860       40.042       37.369       27.000       32.731     1396.444      729.019     1071.334        0.664        0.160       92.039       24.295        0.070      340.022       13.755      871.242
05/01/2013  20:48:00      129.394       49.739       13.680       32.779       30.597       26.808     1074.465      936.194      718.672        1.107        0.136      138.624       17.854        0.017      340.071       13.840      871.252
05/01/2013  20:49:00       99.327       43.374       14.975       39.925       33.461       28.739     1593.989     1119.667      825.947        0.775        0.177      108.384       24.039        0.049      339.979       13.684      871.258
05/01/2013  20:50:00      104.686       26.274       26.898       42.273       47.929       34.428     1787.036     2297.211     1185.294        0.882        0.263      107.932       20.726        0.037      340.049       13.802      871.264
05/01/2013  20:51:00       96.143       30.783       12.414       39.080       38.725       25.107     1527.255     1499.611      630.375        0.700        0.183      100.951       13.273        0.017      340.019       13.750      871.268
05/01/2013  20:52:00      108.793       44.292       18.206       35.500       33.549       25.766     1260.282     1125.557      663.866        0.859        0.152      117.464       19.572        0.028      339.993       13.708      871.286
05/01/2013  20:53:00       70.435       30.679        8.731       28.524       19.508       17.836      813.614      380.546      318.124        0.375        0.076       76.826       12.949        0.028      339.890       13.534      871.300
05/01/2013  20:54:00       72.162       39.984       19.700       37.838       30.873       26.466     1431.714      953.136      700.427        0.514        0.154       82.499       17.814        0.047      339.928       13.597      871.317
05/01/2013  20:55:00       63.869       32.768       29.317       26.821       19.932       20.073      719.340      397.294      402.929        0.377        0.076       71.785       13.947        0.038      339.846       13.459      871.342
05/01/2013  20:56:00       78.862       50.760       22.740       32.836       19.203       23.551     1078.230      368.742      554.658        0.566        0.100       93.786       18.788        0.040      339.831       13.435      871.357
05/01/2013  20:57:00       99.145       37.487       17.904       34.743       28.455       25.150     1207.086      809.670      632.527        0.710        0.132      105.995       10.161        0.009      339.899       13.548      871.370
05/01/2013  20:58:00       86.820       57.281       20.393       22.327       21.001       18.182      498.507      441.021      330.575        0.625        0.064      104.014       14.186        0.019      339.845       13.459      871.385
05/01/2013  20:59:00       72.384       41.954       25.395       32.221       21.654       22.456     1038.195      468.881      504.287        0.483        0.101       83.664       15.050        0.032      339.811       13.400      871.399
05/01/2013  21:00:00       69.740       47.313       17.779       19.340       17.411       18.714      374.029      303.145      350.209        0.422        0.051       84.275       10.945        0.017      339.882       13.520      871.404
05/01/2013  21:01:00       71.705       22.507       16.245       24.362       19.903       24.047      593.521      396.118      578.252        0.374        0.078       75.154       19.698        0.069      339.814       13.405      871.426
05/01/2013  21:02:00       88.501       55.563       25.154       25.177       19.736       17.253      633.864      389.500      297.665        0.644        0.066      104.497       10.165        0.009      339.858       13.480      871.435
05/01/2013  21:03:00      107.091       65.290       25.519       19.622       20.858       22.368      385.011      435.044      500.349        0.885        0.066      125.424       11.386        0.008      339.963       13.656      871.459
05/01/2013  21:04:00       81.259       38.907       12.697       39.213       28.463       20.426     1537.685      810.147      417.207        0.552        0.138       90.093       13.892        0.024      339.886       13.527      871.469
05/01/2013  21:05:00       60.192       53.889        5.124       24.736       18.930       14.981      611.855      358.344      224.429        0.387        0.060       80.791       11.313        0.020      339.851       13.468      871.480
05/01/2013  21:06:00       54.501       49.110        4.757       30.143       17.072       15.895      908.587      291.466      252.658        0.343        0.073       73.363       10.828        0.022      339.885       13.524      871.503
05/01/2013  21:07:00       53.677       45.842       -0.112       24.513       16.718       12.054      600.900      279.499      145.300        0.300        0.051       70.588        9.831        0.019      339.856       13.476      871.519
05/01/2013  21:08:00       20.029       31.947        1.469       17.905       20.517       17.609      320.580      420.963      310.061        0.124        0.053       37.707       14.068        0.139      339.715       13.239      871.532
05/01/2013  21:09:00       20.544       73.081       -9.073       19.971       23.691       12.669      398.861      561.242      160.498        0.348        0.056       75.914       13.075        0.030      339.830       13.433      871.557
05/01/2013  21:10:00       26.166       84.486       -8.139       19.227       26.795       19.023      369.683      717.953      361.877        0.467        0.072       88.445       14.793        0.028      339.789       13.363      871.571
05/01/2013  21:11:00       20.017       70.204       -7.480       21.611       30.269       17.683      467.020      916.242      312.674        0.354        0.085       73.002       13.868        0.036      339.728       13.261      871.596
05/01/2013  21:12:00       15.791       72.799       -8.657       22.905       30.654       15.528      524.624      939.657      241.105        0.366        0.085       74.492       15.555        0.044      339.785       13.356      871.609
05/01/2013  21:13:00       17.229       69.774       -4.584       18.566       34.443       17.352      344.686     1186.292      301.091        0.351        0.092       71.870       20.149        0.079      339.696       13.205      871.618
05/01/2013  21:14:00       17.760       90.000      -14.279       17.327       16.408       12.078      300.216      269.225      145.887        0.467        0.036       91.735       10.714        0.014      339.769       13.329      871.630
05/01/2013  21:15:00       16.074       52.825       -8.665       17.340       20.317       15.598      300.693      412.784      243.292        0.204        0.048       55.217       10.097        0.033      339.695       13.204      871.654
05/01/2013  21:16:00       14.232       59.783       -6.631       15.451       18.459       13.739      238.739      340.750      188.750        0.229        0.038       61.453       10.245        0.028      339.681       13.181      871.659
05/01/2013  21:17:00        5.559       14.803       -6.980       15.216       18.824       10.465      231.528      354.331      109.524        0.050        0.035       15.813        8.002        0.256      339.588       13.025      871.675
05/01/2013  21:18:00       23.684       32.351        2.602       17.236       23.397       14.259      297.071      547.412      203.309        0.133        0.052       40.094       13.064        0.106      339.576       13.005      871.691
05/01/2013  21:19:00       14.829       36.328       -1.435       13.562       19.625       12.318      183.936      385.151      151.729        0.113        0.036       39.238       12.218        0.097      339.531       12.927      871.700
05/01/2013  21:20:00        6.732       37.892       -3.004       11.563       23.294       11.352      133.692      542.628      128.877        0.115        0.040       38.485       12.887        0.112      339.542       12.946      871.716
05/01/2013  21:21:00       18.194       32.634       -7.631       16.379       14.812        9.167      268.270      219.393       84.039        0.101        0.029       37.363        5.985        0.026      339.571       12.996      871.732
05/01/2013  21:22:00        7.287       37.878       -6.816       11.391       11.924        7.893      129.747      142.177       62.299        0.093        0.017       38.573        5.918        0.024      339.579       13.009      871.748
05/01/2013  21:23:00       20.499       38.607       -3.027       15.428       22.885       10.990      238.027      523.702      120.785        0.140        0.044       43.712       11.682        0.071      339.490       12.859      871.766
05/01/2013  21:24:00       15.149       38.574       -3.586       12.400       21.868        8.330      153.770      478.207       69.385        0.122        0.035       41.442       10.512        0.064      339.510       12.893      871.789
05/01/2013  21:25:00        6.928       70.817       -9.061       12.596       13.731        6.920      158.662      188.538       47.884        0.277        0.020       71.155        4.865        0.005      339.565       12.987      871.812
05/01/2013  21:26:00       -5.925       88.014      -11.881       15.215       22.075       10.672      231.488      487.326      113.894        0.438        0.042       88.213        9.197        0.011      339.524       12.918      871.836
05/01/2013  21:27:00      -26.474       54.403       -6.068       22.677       28.302       16.511      514.251      801.015      272.613        0.264        0.079       60.503       17.855        0.087      339.321       12.573      871.847
05/01/2013  21:28:00      -22.080       37.277       -2.209       30.224       38.148       14.370      913.516     1455.256      206.500        0.223        0.129       43.325       14.050        0.105      339.343       12.611      871.862
05/01/2013  21:29:00      -19.192       99.183      -13.760       20.157       25.841       14.575      406.294      667.774      212.438        0.584        0.064      101.023        5.275        0.003      339.462       12.812      871.878
05/01/2013  21:30:00      -13.150      154.267      -20.611       32.289       31.988       18.367     1042.574     1023.204      337.361        1.340        0.120      154.826       19.090        0.015      339.340       12.607      871.893
05/01/2013  21:31:00        9.015      207.764      -33.115       39.256       52.854       22.544     1541.069     2793.524      508.243        2.459        0.242      207.959        6.436        0.001      339.286       12.513      871.901
05/01/2013  21:32:00       20.523       66.759        0.970       46.253       57.931       37.646     2139.378     3356.017     1417.252        0.589        0.346       69.842       37.059        0.282      339.122       12.239      871.913
05/01/2013  21:33:00       29.958      114.127      -16.332       41.084       69.886       34.122     1687.932     4884.072     1164.303        1.096        0.387      117.994       39.444        0.112      339.200       12.370      871.920
05/01/2013  21:34:00       31.243       90.666      -10.797       32.374       66.710       32.960     1048.088     4450.257     1086.352        0.795        0.329       95.898       37.712        0.155      339.152       12.289      871.934
05/01/2013  21:35:00       16.457      113.771       -9.864       36.943       36.879       26.442     1364.750     1360.084      699.182        0.837        0.171      114.955       20.897        0.033      339.175       12.328      871.952
05/01/2013  21:36:00       52.693       64.554       -0.428       34.003       44.990       27.808     1156.205     2024.062      773.299        0.545        0.198       83.330       26.422        0.101      339.230       12.419      871.970
05/01/2013  21:37:00       21.029       96.503      -10.177       40.994       45.365       29.975     1680.482     2058.016      898.520        0.725        0.232       98.767       21.400        0.047      339.181       12.337      871.977
05/01/2013  21:38:00       18.827      137.396      -10.697       37.424       60.224       31.102     1400.577     3626.899      967.365        1.267        0.300      138.680       32.536        0.055      339.211       12.387      871.988
05/01/2013  21:39:00       18.809       85.483        3.801       34.928       59.703       33.199     1219.964     3564.498     1102.206        0.678        0.294       87.528       33.283        0.145      339.111       12.220      872.001
05/01/2013  21:40:00       25.531       94.246       -9.510       30.480       59.610       27.089      929.040     3553.390      733.810        0.742        0.261       97.643       25.149        0.066      339.099       12.201      872.016
05/01/2013  21:41:00       25.712       85.801       -6.271       25.307       44.555       27.446      640.429     1985.152      753.260        0.572        0.169       89.570       29.726        0.110      339.131       12.253      872.010
05/01/2013  21:42:00       20.706       80.115       -0.736       33.183       43.101       25.575     1101.111     1857.724      654.056        0.523        0.181       82.747       23.289        0.079      339.094       12.191      872.026
05/01/2013  21:43:00       37.741      110.624      -10.108       44.455       45.188       28.854     1976.239     2041.964      832.571        0.931        0.243      116.885       30.215        0.067      339.140       12.269      872.028
05/01/2013  21:44:00       12.409       72.452       -3.014       36.061       40.052       26.245     1300.389     1604.190      688.819        0.450        0.180       73.507       28.263        0.148      339.013       12.056      872.040
05/01/2013  21:45:00       37.331       78.388      -12.411       42.523       47.301       26.267     1808.232     2237.408      689.966        0.621        0.237       86.823       26.684        0.094      339.110       12.219      872.047
05/01/2013  21:46:00       38.910       53.525        4.164       39.177       36.969       26.129     1534.863     1366.676      682.730        0.399        0.179       66.173       17.700        0.072      339.097       12.196      872.066
05/01/2013  21:47:00       12.941       55.936        0.536       33.902       38.598       22.184     1149.323     1489.838      492.146        0.321        0.157       57.414       15.811        0.076      339.057       12.130      872.087
05/01/2013  21:48:00       11.899      131.827      -15.772       34.928       45.666       21.345     1219.966     2085.376      455.603        1.076        0.188      132.363       12.125        0.008      339.160       12.302      872.102
05/01/2013  21:49:00       16.095      101.113       -9.837       37.467       60.219       29.262     1403.801     3626.320      856.273        0.823        0.294      102.386       35.995        0.124      339.089       12.184      872.120
05/01/2013  21:50:00        6.199      144.015      -13.719       32.537       50.633       27.586     1058.677     2563.723      760.994        1.267        0.219      144.149       26.647        0.034      339.160       12.303      872.126
05/01/2013  21:51:00       11.881      103.054       -1.888       33.992       64.219       37.797     1155.483     4124.085     1428.603        0.874        0.335      103.737       42.386        0.167      339.119       12.233      872.139
05/01/2013  21:52:00       16.674       59.605        4.105       24.526       42.911       23.237      601.549     1841.341      539.958        0.341        0.149       61.893       23.078        0.139      339.075       12.160      872.155
05/01/2013  21:53:00       33.579       62.461       13.576       33.290       41.999       36.779     1108.231     1763.880     1352.728        0.472        0.211       70.914       32.087        0.205      339.090       12.185      872.171
05/01/2013  21:54:00       23.756       76.645       -4.598       31.266       32.312       23.704      977.568     1044.043      561.893        0.452        0.129       80.243       17.735        0.049      339.083       12.173      872.196
05/01/2013  21:55:00       29.786       81.800       -1.765       22.290       56.485       24.392      496.825     3190.582      594.948        0.593        0.214       87.054       31.430        0.130      339.078       12.165      872.209
05/01/2013  21:56:00       50.661       57.030        2.628       40.350       29.550       28.850     1628.114      873.229      832.324        0.458        0.167       76.282       13.063        0.029      339.098       12.199      872.227
05/01/2013  21:57:00       37.688       44.887        9.475       37.004       30.795       26.456     1369.286      948.342      699.941        0.327        0.151       58.611       20.133        0.118      338.997       12.030      872.227
05/01/2013  21:58:00        7.000       74.729      -15.530       24.194       38.757       15.006      585.343     1502.096      225.169        0.409        0.116       75.056       15.585        0.043      339.057       12.129      872.246
05/01/2013  21:59:00       24.723       69.655       -0.935       21.554       35.490       21.301      464.579     1259.513      453.723        0.382        0.109       73.912       21.049        0.081      339.069       12.150      872.259
05/01/2013  22:00:00       22.369       22.187       -2.112       17.660       24.093       12.908      311.888      580.453      166.619        0.103        0.053       31.506        6.720        0.045      339.011       12.052      872.264
05/01/2013  22:01:00       40.069       40.400       -9.316       24.390       29.442       15.585      594.873      866.807      242.884        0.251        0.085       56.901       11.964        0.044      339.076       12.162      872.288
05/01/2013  22:02:00        2.118      -25.578        1.777       16.805       38.035       14.554      282.413     1446.625      211.818        0.130        0.097       25.666       19.620        0.584      338.908       11.879      872.308
05/01/2013  22:03:00       -1.917       -2.604        1.062       11.451       25.801       10.046      131.135      665.677      100.920        0.045        0.045        3.234        7.875        5.932      338.970       11.984      872.315
05/01/2013  22:04:00        6.042      -30.240        0.765       20.082       28.411       16.868      403.268      807.160      284.545        0.122        0.075       30.838       12.548        0.166      339.014       12.057      872.332
05/01/2013  22:05:00       13.591      -57.396       -7.604       25.413       30.354       15.633      645.818      921.365      244.395        0.267        0.091       58.983        9.858        0.028      338.896       11.858      872.344
05/01/2013  22:06:00        3.936      -41.064       10.230       30.443       42.403       18.704      926.763     1797.992      349.850        0.244        0.154       41.252       18.810        0.208      338.635       11.420      872.345
05/01/2013  22:07:00      -10.564      -35.311        0.123       34.791       23.008       23.864     1210.412      529.389      569.513        0.183        0.115       36.858        8.948        0.059      338.769       11.644      872.368
05/01/2013  22:08:00      -17.188      -15.479       16.771       33.723       25.209       16.630     1137.238      635.511      276.558        0.143        0.102       23.130       14.378        0.386      338.631       11.412      872.375
05/01/2013  22:09:00      -17.065      -24.901       -4.323       14.335       21.492       15.732      205.502      461.919      247.493        0.092        0.046       30.188        6.767        0.050      338.778       11.661      872.378
05/01/2013  22:10:00      -39.266      -25.846        0.589       24.174       15.055       14.437      584.383      226.668      208.419        0.161        0.051       47.009        7.367        0.025      338.775       11.655      872.397
05/01/2013  22:11:00      -68.224      -20.167      -11.401       11.014       10.132       10.176      121.300      102.653      103.553        0.276        0.016       71.142        2.856        0.002      338.807       11.710      872.402
05/01/2013  22:12:00      -48.819      -13.186       -0.253       20.385       14.178       11.734      415.567      201.004      137.688        0.166        0.038       50.568        9.954        0.039      338.611       11.380      872.410
05/01/2013  22:13:00      -35.694      -19.644       -5.929       22.085       16.106        9.538      487.735      259.413       90.975        0.127        0.042       40.742        7.103        0.030      338.666       11.474      872.423
05/01/2013  22:14:00      -53.658       -0.540       -7.824        8.594        9.763        6.475       73.851       95.314       41.929        0.158        0.011       53.661        5.164        0.009      338.724       11.569      872.425
05/01/2013  22:15:00       27.076       20.840       -0.072       38.338       11.983       10.621     1469.834      143.590      112.802        0.145        0.086       34.167        6.717        0.039      339.037       12.094      872.420
05/01/2013  22:16:00       37.218       38.693        4.294       15.547       17.270       11.209      241.695      298.238      125.652        0.178        0.033       53.687       10.683        0.040      339.261       12.473      872.430
05/01/2013  22:17:00       29.585       26.628       11.158       27.155       18.730       12.825      737.369      350.819      164.484        0.148        0.063       39.804       13.439        0.114      339.171       12.321      872.447
05/01/2013  22:18:00       41.426       14.221        4.565       12.324       12.539        7.170      151.877      157.215       51.408        0.115        0.018       43.799        5.031        0.013      339.246       12.449      872.458
05/01/2013  22:19:00       10.070      -31.884       -1.375       12.298       15.366        9.507      151.253      236.106       90.382        0.080        0.024       33.436        6.394        0.037      339.005       12.041      872.475
05/01/2013  22:20:00       -0.884      -12.603       -7.079       11.091       12.956        7.395      123.018      167.870       54.690        0.028        0.017       12.634        6.494        0.264      338.764       11.637      872.493
05/01/2013  22:21:00       13.689      -20.195       -1.026        9.134        8.683        5.378       83.433       75.397       28.918        0.039        0.009       24.397        2.750        0.013      338.875       11.823      872.500
05/01/2013  22:22:00        9.904      -17.719        5.696        6.616        5.600        4.933       43.766       31.359       24.334        0.027        0.005       20.299        4.036        0.040      339.051       12.117      872.496
05/01/2013  22:23:00      -24.453       -3.927       -3.931       11.227        7.585        6.814      126.040       57.531       46.435        0.043        0.012       24.767        6.072        0.060      338.605       11.371      872.502
05/01/2013  22:24:00       -7.229        1.978       -1.437        8.812        5.388        5.070       77.651       29.028       25.709        0.010        0.007        7.494        2.331        0.097      338.551       11.279      872.521
05/01/2013  22:25:00        0.165        0.548       -1.255        7.086        6.461        6.308       50.213       41.746       39.787        0.007        0.007        0.572        4.914       73.717      338.714       11.553      872.519
05/01/2013  22:26:00      -31.655       -3.328       -4.809       11.533       10.796       10.100      133.002      116.548      102.018        0.069        0.018       31.830        8.920        0.079      338.569       11.308      872.515
05/01/2013  22:27:00      -21.531       11.557       -4.465       12.024        7.669        7.826      144.573       58.808       61.253        0.044        0.013       24.437        4.842        0.039      338.790       11.680      872.525
05/01/2013  22:28:00      -24.434       16.958       -4.460       14.787       18.001       10.799      218.650      324.036      116.613        0.078        0.033       29.742        3.363        0.013      338.744       11.603      872.533
05/01/2013  22:29:00       -1.503       63.644       -4.957       15.504       26.416       13.818      240.381      697.800      190.937        0.260        0.056       63.662        9.471        0.022      338.843       11.770      872.546
05/01/2013  22:30:00        3.743      104.743      -11.377       14.734       16.779        8.307      217.083      281.541       69.011        0.584        0.028      104.810        8.416        0.006      338.888       11.846      872.560
05/01/2013  22:31:00       -5.269       97.351      -10.068       19.277       18.790        8.919      371.612      353.080       79.548        0.521        0.040       97.494        8.523        0.008      338.948       11.946      872.565
05/01/2013  22:32:00      -10.092       90.617      -13.255       16.809       12.419        9.675      282.544      154.230       93.602        0.451        0.027       91.177        2.707        0.001      338.974       11.990      872.580
05/01/2013  22:33:00      -20.341       26.366      -12.854       30.409       30.975       15.532      924.726      959.429      241.257        0.170        0.106       33.301       14.298        0.184      338.682       11.499      872.591
05/01/2013  22:34:00      -43.098       -3.910       -8.834       16.862       11.319        6.316      284.316      128.116       39.889        0.120        0.023       43.275        4.266        0.010      338.296       10.850      872.591
05/01/2013  22:35:00       -0.850       20.014       -0.700       17.921       45.707       15.385      321.165     2089.100      236.688        0.152        0.132       20.032       23.419        1.367      338.629       11.410      872.596
05/01/2013  22:36:00      -22.220       79.615      -14.286       14.759       26.311       12.698      217.823      692.291      161.242        0.405        0.054       82.658       14.863        0.032      338.860       11.798      872.595
05/01/2013  22:37:00      -49.966       22.658       -9.326       17.148       46.057       14.087      294.043     2121.257      198.445        0.285        0.131       54.863        7.299        0.018      338.300       10.857      872.591
05/01/2013  22:38:00      -47.815       -8.644      -10.945       12.409       13.452        7.481      153.992      180.948       55.960        0.144        0.020       48.590        5.239        0.012      338.094       10.512      872.589
05/01/2013  22:39:00      -50.935       -1.701       -8.625       16.896       13.429       10.539      285.468      180.340      111.077        0.162        0.029       50.964        9.077        0.032      338.008       10.368      872.587
05/01/2013  22:40:00      -28.379       24.989       -9.057       25.855       41.468       13.535      668.493     1719.614      183.194        0.204        0.129       37.812       16.339        0.187      338.308       10.870      872.601
05/01/2013  22:41:00      -14.999       32.042       -4.967       35.295       27.422       13.530     1245.713      751.979      183.069        0.173        0.109       35.379        7.733        0.048      338.370       10.976      872.615
05/01/2013  22:42:00      -45.167      -15.393       -9.726       14.266       15.567        9.691      203.511      242.343       93.919        0.146        0.027       47.718        7.900        0.027      338.098       10.517      872.608
05/01/2013  22:43:00      -61.959       -7.490      -16.744       12.208       15.363       11.955      149.029      236.026      142.930        0.235        0.026       62.410        5.835        0.009      337.930       10.235      872.601
05/01/2013  22:44:00      -46.598       -3.638       -1.317       22.856       18.511       18.206      522.413      342.650      331.473        0.169        0.060       46.740       12.148        0.068      337.718        9.881      872.611
05/01/2013  22:45:00      -68.894       -8.664      -13.063       21.921       19.343       15.003      480.549      374.155      225.105        0.304        0.054       69.437       12.618        0.033      337.614        9.707      872.628
05/01/2013  22:46:00      -52.777      -24.327       -5.938       29.308       21.200       13.881      858.973      449.424      192.694        0.246        0.075       58.114       10.336        0.032      337.696        9.846      872.639
05/01/2013  22:47:00      -50.793      -32.614       -7.863       44.751       20.151       22.605     2002.624      406.046      510.998        0.331        0.146       60.363       12.782        0.045      337.678        9.815      872.646
05/01/2013  22:48:00      -81.721      -30.750      -15.862       43.149       25.572       19.277     1861.816      653.914      371.600        0.538        0.144       87.315       22.087        0.064      337.594        9.674      872.652
05/01/2013  22:49:00     -124.529       -4.600      -16.922       28.324       19.616       17.496      802.267      384.804      306.119        0.865        0.075      124.614       13.594        0.012      337.601        9.686      872.650
05/01/2013  22:50:00     -106.961      -33.106      -14.799       33.051       29.701       18.153     1092.337      882.140      329.533        0.753        0.115      111.967       13.893        0.015      337.552        9.603      872.645
05/01/2013  22:51:00     -131.546      -30.411      -15.470       35.699       25.613       15.811     1274.428      656.018      249.995        1.032        0.109      135.015        6.975        0.003      337.498        9.512      872.640
05/01/2013  22:52:00      -73.940      -38.184      -10.579       33.428       33.797       18.733     1117.439     1142.271      350.924        0.482        0.131       83.218       16.455        0.039      337.427        9.393      872.650
05/01/2013  22:53:00     -103.720      -46.571      -12.690       27.868       25.803       21.043      776.636      665.782      442.789        0.749        0.094      113.696        8.628        0.006      337.420        9.382      872.644
05/01/2013  22:54:00     -107.675      -32.417      -18.279       29.898       31.884       20.033      893.920     1016.586      401.318        0.764        0.116      112.449        9.064        0.006      337.568        9.630      872.636
05/01/2013  22:55:00      -98.531      -12.123      -14.436       38.268       31.702       20.204     1464.444     1005.006      408.190        0.647        0.144       99.274       12.868        0.017      337.454        9.438      872.644
05/01/2013  22:56:00     -106.872      -27.423      -14.586       20.174       21.868       14.861      407.008      478.190      220.845        0.675        0.055      110.334       10.614        0.009      337.381        9.317      872.648
05/01/2013  22:57:00      -73.897      -32.255      -15.927       18.770       19.273       17.689      352.328      371.461      312.890        0.390        0.052       80.630       10.501        0.017      337.460        9.449      872.651
05/01/2013  22:58:00      -99.650      -16.165       -6.079       38.168       33.616       22.457     1456.781     1130.047      504.302        0.666        0.155      100.953       22.575        0.050      337.393        9.337      872.643
05/01/2013  22:59:00     -128.472      -21.037      -20.493       29.696       25.263       19.388      881.845      638.235      375.906        0.963        0.095      130.183       14.035        0.012      337.268        9.127      872.625
05/01/2013  23:00:00      -30.927      -32.283        0.779       49.956       30.728       27.640     2495.637      944.240      763.972        0.310        0.210       44.706       30.255        0.458      337.317        9.211      872.633
05/01/2013  23:01:00      -75.557      -49.243       -7.114       34.096       38.328       25.383     1162.524     1469.044      644.321        0.573        0.164       90.187       20.536        0.052      337.360        9.281      872.641
05/01/2013  23:02:00     -137.036        8.237      -18.836       28.187       22.162       17.780      794.492      491.165      316.140        1.040        0.080      137.283       14.786        0.012      337.318        9.210      872.647
05/01/2013  23:03:00      -83.284        3.486      -16.534       18.981       21.305       11.244      360.284      453.916      126.419        0.408        0.047       83.357        6.461        0.006      337.329        9.230      872.659
05/01/2013  23:04:00      -89.546      -35.391      -20.785       20.303       20.432       16.744      412.225      417.448      280.359        0.541        0.056       96.286       10.876        0.013      337.452        9.435      872.668
05/01/2013  23:05:00     -132.137      -44.559      -23.884       24.320       20.519       16.788      591.457      421.036      281.842        1.066        0.065      139.448       13.718        0.010      337.307        9.192      872.679
05/01/2013  23:06:00     -103.797      -73.873      -16.468       35.844       20.313       15.850     1284.818      412.629      251.234        0.923        0.097      127.401       12.452        0.010      337.312        9.200      872.683
05/01/2013  23:07:00      -98.826      -24.180       -9.188       36.904       28.566       17.967     1361.892      816.031      322.823        0.647        0.125      101.741       18.740        0.034      337.306        9.191      872.686
05/01/2013  23:08:00     -151.286      -21.075      -22.202       32.756       32.739       21.740     1072.957     1071.837      472.621        1.322        0.131      152.747       12.756        0.007      337.143        8.917      872.682
05/01/2013  23:09:00     -114.031      -30.030      -12.288       37.073       34.428       22.023     1374.426     1185.254      485.011        0.855        0.152      117.919       17.092        0.021      337.168        8.960      872.684
05/01/2013  23:10:00      -54.578        1.257       -6.041       22.956       23.645       15.348      526.996      559.100      235.555        0.217        0.066       54.593       11.372        0.043      337.153        8.936      872.699
05/01/2013  23:11:00      -58.005       -0.090       -8.962        9.926       13.244        9.761       98.520      175.399       95.272        0.191        0.018       58.005        5.324        0.008      337.312        9.202      872.714
05/01/2013  23:12:00      -87.141      -21.812      -14.274       16.846       18.807       12.318      283.776      353.708      151.725        0.453        0.039       89.829        7.572        0.007      337.396        9.341      872.705
05/01/2013  23:13:00      -33.846      -62.072      -13.179       25.143       33.059       18.561      632.147     1092.873      344.506        0.362        0.103       70.700        7.399        0.011      337.398        9.345      872.712
05/01/2013  23:14:00      -42.787      -20.946       -6.721       25.600       20.485       18.377      655.359      419.643      337.701        0.186        0.071       47.639       17.676        0.138      337.260        9.115      872.701
05/01/2013  23:15:00      -82.596      -48.626      -11.213       36.492       12.726       17.819     1331.658      161.941      317.526        0.556        0.091       95.847       20.522        0.046      337.226        9.056      872.708
05/01/2013  23:16:00      -41.201      -23.902       -9.638       24.173       17.128       15.261      584.358      293.369      232.884        0.174        0.056       47.632       16.198        0.116      337.325        9.223      872.713
05/01/2013  23:17:00      -25.286       14.478       -5.821       25.275       14.816       14.413      638.828      219.511      207.727        0.097        0.053       29.138       12.006        0.170      337.747        9.930      872.731
05/01/2013  23:18:00      -11.290        9.240       11.466       41.187       17.635       15.957     1696.366      311.005      254.631        0.130        0.113       14.589       13.008        0.795      338.023       10.393      872.717
05/01/2013  23:19:00      -11.592      -20.887        0.300       20.908       18.776       11.529      437.135      352.549      132.908        0.075        0.046       23.888       10.713        0.201      337.560        9.618      872.737
05/01/2013  23:20:00      -33.549        1.352       -2.220       23.278        8.183       11.409      541.856       66.958      130.166        0.094        0.037       33.576       10.243        0.093      337.463        9.454      872.753
05/01/2013  23:21:00      -11.353       -1.643       -6.601       17.949       10.992        5.634      322.180      120.820       31.745        0.032        0.024       11.472        5.935        0.268      338.061       10.454      872.748
05/01/2013  23:22:00      -41.316      -33.774       -3.268       29.190       27.062       12.978      852.029      732.372      168.430        0.231        0.088       53.364        9.626        0.033      338.031       10.406      872.746
05/01/2013  23:23:00        7.286        4.144        0.294       14.166       19.950       13.823      200.667      398.011      191.068        0.043        0.039        8.382        6.984        0.694      338.075       10.479      872.742
05/01/2013  23:24:00       19.840       37.464       14.774       20.213       26.026       23.962      408.551      677.363      574.175        0.184        0.083       42.393       22.997        0.294      338.345       10.935      872.753
05/01/2013  23:25:00       -7.492       26.136       -7.989       17.780       22.883       10.533      316.141      523.638      110.946        0.088        0.048       27.188        9.545        0.123      338.567       11.306      872.764
05/01/2013  23:26:00       -1.554       33.360        1.916       41.645       23.741       20.306     1734.305      563.649      412.345        0.191        0.136       33.396       16.879        0.255      338.338       10.921      872.774
05/01/2013  23:27:00        3.291       42.906      -15.273       21.098       31.930       20.113      445.122     1019.542      404.542        0.198        0.093       43.032       17.900        0.173      338.526       11.238      872.784
05/01/2013  23:28:00       -1.360        5.444        0.327       21.431       19.532       17.834      459.287      381.493      318.038        0.060        0.058        5.612       17.528        9.756      338.005       10.362      872.799
05/01/2013  23:29:00        3.260       19.191       -0.112       43.759       29.830       17.929     1914.834      889.805      321.464        0.175        0.156       19.466       14.860        0.583      338.173       10.644      872.809
05/01/2013  23:30:00       14.216        3.763        1.673       39.800       25.987       17.399     1584.064      675.304      302.713        0.139        0.128       14.706        8.760        0.355      338.287       10.836      872.814
05/01/2013  23:31:00       39.435       60.383       -3.366       40.580       33.474       21.388     1646.697     1120.528      457.460        0.422        0.161       72.120       21.496        0.089      338.370       10.975      872.830
05/01/2013  23:32:00       20.561       37.186       -2.956       25.070       31.409       17.563      628.516      986.520      308.469        0.187        0.096       42.492       19.014        0.200      338.253       10.780      872.826
05/01/2013  23:33:00        3.815       58.071       -6.790       31.643       20.793       11.596     1001.277      432.359      134.472        0.250        0.078       58.197        9.868        0.029      338.217       10.718      872.825
05/01/2013  23:34:00      -19.805       -4.524        9.855       32.654       30.196       17.418     1066.289      911.779      303.402        0.140        0.114       20.315       18.619        0.840      337.733        9.907      872.815
05/01/2013  23:35:00      -62.653      -14.488       -5.801       18.999       18.538       13.894      360.972      343.663      193.037        0.253        0.045       64.307        7.837        0.015      337.283        9.152      872.813
05/01/2013  23:36:00      -79.416      -13.231      -17.868       16.006       13.647       14.058      256.203      186.232      197.625        0.372        0.032       80.511        8.004        0.010      337.074        8.802      872.812
05/01/2013  23:37:00      -54.447      -46.832       -8.506       50.664       27.535       26.109     2566.804      758.178      681.685        0.462        0.200       71.817       25.798        0.129      337.109        8.861      872.795
05/01/2013  23:38:00      -81.230      -57.222      -21.899       25.205       24.296       23.399      635.286      590.317      547.520        0.606        0.089       99.361       14.366        0.021      337.032        8.731      872.812
05/01/2013  23:39:00      -96.592      -39.756      -14.696       16.072       20.888       15.123      258.312      436.303      228.712        0.602        0.046      104.453        5.615        0.003      336.982        8.646      872.817
05/01/2013  23:40:00      -73.740        0.112      -13.847       31.753       16.649       13.721     1008.281      277.178      188.269        0.355        0.074       73.740       15.945        0.047      337.000        8.677      872.796
05/01/2013  23:41:00     -115.092      -21.407      -19.989       30.170       22.544       16.134      910.240      508.227      260.301        0.789        0.084      117.066       15.855        0.018      336.928        8.558      872.801
05/01/2013  23:42:00      -77.295      -26.801      -15.107       35.243       17.049       15.041     1242.046      290.674      226.245        0.434        0.088       81.810       17.745        0.047      336.933        8.566      872.806
05/01/2013  23:43:00     -138.410      -32.010      -21.815       12.483       13.271       10.449      155.837      176.115      109.176        1.055        0.022      142.063        7.870        0.003      337.041        8.746      872.818
05/01/2013  23:44:00     -132.635       -4.972      -17.199       21.011       23.634       13.180      441.483      558.572      173.703        0.954        0.059      132.728       10.696        0.006      337.070        8.794      872.826
05/01/2013  23:45:00     -115.241      -13.707      -18.882       24.773       15.803       13.928      613.699      249.733      194.002        0.744        0.053      116.053       12.550        0.012      337.199        9.012      872.821
05/01/2013  23:46:00     -124.432      -28.308      -13.634       15.287       18.129       12.784      233.685      328.655      163.440        0.860        0.036      127.612        8.372        0.004      337.190        8.995      872.821
05/01/2013  23:47:00     -124.829      -22.219      -18.053       19.817       19.204       14.969      392.717      368.787      224.071        0.869        0.049      126.791       11.871        0.009      337.167        8.958      872.818
05/01/2013  23:48:00     -134.487       15.379      -25.189       28.497       18.143       15.734      812.059      329.164      247.563        1.017        0.069      135.364       15.164        0.013      336.981        8.647      872.812
05/01/2013  23:49:00      -86.071        8.698       -8.160       35.253       16.940       15.122     1242.755      286.979      228.682        0.465        0.088       86.509       15.870        0.034      336.953        8.599      872.829
05/01/2013  23:50:00      -51.324       -7.517      -11.551       13.345       12.906        9.122      178.100      166.566       83.210        0.163        0.021       51.871        7.142        0.019      337.037        8.740      872.858
05/01/2013  23:51:00      -34.590      -26.401       -7.452       12.374       14.044        7.877      153.125      197.239       62.041        0.118        0.021       43.514        3.630        0.007      337.184        8.988      872.870
05/01/2013  23:52:00      -74.526      -31.461      -15.007       24.493       15.426       12.524      599.923      237.962      156.851        0.388        0.050       80.894        6.575        0.007      337.273        9.136      872.875
05/01/2013  23:53:00     -113.817      -32.363      -18.738       16.609       16.775       11.384      275.845      281.396      129.590        0.752        0.034      118.329        7.828        0.004      337.024        8.716      872.872
05/01/2013  23:54:00     -129.856      -57.390      -17.122       21.910       20.653       12.101      480.029      426.550      146.443        1.075        0.053      141.973        6.210        0.002      336.943        8.583      872.869
05/01/2013  23:55:00     -192.582      -46.380      -19.119       39.630       32.299       19.952     1570.568     1043.201      398.068        2.131        0.151      198.088       17.922        0.008      336.918        8.540      872.830
05/01/2013  23:56:00      -11.744      -13.094       18.236       60.500       47.455       24.388     3660.256     2251.963      594.762        0.357        0.325       17.589       26.623        2.291      336.816        8.371      872.855
05/01/2013  23:57:00      -32.367       -4.841       14.860       35.372       39.635       30.500     1251.203     1570.930      930.274        0.252        0.188       32.727       30.198        0.851      336.941        8.581      872.895
05/01/2013  23:58:00      -67.679       18.076       -7.830       15.477       16.506       11.987      239.534      272.439      143.678        0.281        0.033       70.052        7.305        0.011      337.193        9.003      872.891
05/01/2013  23:59:00      -63.977      -19.098      -11.881       16.692       14.434       10.259      278.608      208.342      105.238        0.260        0.030       66.767        8.725        0.017      337.162        8.950      872.901
